[[{"header":{"parameterUnit":"m.s-1","parameterCategory":1,"la1":31.0,"la2":29.5877,"lo1":-88.7671,"lo2":-86.6584,"dy":0.0162,"dx":0.0185,"nx":115,"ny":88,"refTime":"2023-10-18T06:00:00:Z","depth":0,"parameterNumber":2,"parameterNumberName":"U-component_of_WINDS"},"data":[0.0,0.0,0.0,0.0,0.0,0.0,0.0,0.0,0.0,0.0,0.0,0.0,0.0,0.0,0.0,0.0,0.0,0.0,0.0,0.0,0.0,0.0,0.0,0.0,0.0,0.0,0.0,0.0,0.0,0.0,0.0,0.0,0.0,0.0,0.0,0.0,0.0,0.0,0.0,0.0,0.0,0.0,0.0,0.0,0.0,0.0,0.0,0.0,0.0,0.0,0.0,0.0,0.0,0.0,0.0,0.0,0.0,0.0,0.0,0.0,0.0,0.0,0.0,0.0,0.0,0.0,0.0,0.0,0.0,0.0,0.0,0.0,0.0,0.0,0.0,0.0,0.0,0.0,0.0,0.0,0.0,0.0,0.0,0.0,0.0,0.0,0.0,0.0,0.0,0.0,0.0,0.0,0.0,0.0,0.0,0.0,0.0,0.0,0.0,0.0,0.0,0.0,0.0,0.0,0.0,0.0,0.0,0.0,0.0,0.0,0.0,0.0,0.0,0.0,0.0,0.0,0.0,0.0,0.0,0.0,0.0,0.0,0.0,0.0,0.0,0.0,0.0,0.0,0.0,0.0,0.0,0.0,0.0,0.0,0.0,0.0,0.0,0.0,0.0,0.0,0.0,0.0,0.0,0.0,0.0,0.0,0.0,0.0,0.0,0.0,0.0,0.0,0.0,0.0,0.0,0.0,0.0,0.0,0.0,0.0,0.0,0.0,0.0,0.0,0.0,0.0,0.0,0.0,0.0,0.0,0.0,0.0,0.0,0.0,0.0,0.0,0.0,0.0,0.0,0.0,0.0,0.0,0.0,0.0,0.0,0.0,0.0,0.0,0.0,0.0,0.0,0.0,0.0,0.0,0.0,0.0,0.0,0.0,0.0,0.0,0.0,0.0,0.0,0.0,0.0,0.0,0.0,0.0,0.0,0.0,0.0,0.0,0.0,0.0,0.0,0.0,0.0,0.0,0.0,0.0,0.0,0.0,0.0,0.0,0.0,0.0,0.0,0.0,0.0,0.0,0.0,0.0,0.0,0.0,0.0,0.0,0.0,0.0,0.0,0.0,0.0,0.0,0.0,0.0,0.0,0.0,0.0,0.0,0.0,0.0,0.0,0.0,0.0,0.0,0.0,0.0,0.0,0.0,0.0,0.0,0.0,0.0,0.0,0.0,0.0,0.0,0.0,0.0,0.0,0.0,0.0,0.0,0.0,0.0,0.0,0.0,0.0,0.0,0.0,0.0,0.0,0.0,0.0,0.0,0.0,0.0,0.0,0.0,0.0,0.0,0.0,0.0,0.0,0.0,0.0,0.0,0.0,0.0,0.0,0.0,0.0,0.0,0.0,0.0,0.0,0.0,0.0,0.0,0.0,0.0,0.0,0.0,0.0,0.0,0.0,0.0,0.0,0.0,0.0,0.0,0.0,0.0,0.0,0.0,0.0,0.0,0.0,0.0,0.0,0.0,0.0,0.0,0.0,0.0,0.0,0.0,0.0,0.0,0.0,0.0,0.0,0.0,0.0,0.0,0.0,0.0,0.0,0.0,0.0,0.0,0.0,0.0,0.0,0.0,0.0,0.0,0.0,0.0,0.0,0.0,0.0,0.0,0.0,0.0,0.0,0.0,0.0,0.0,0.0,0.0,0.0,0.0,0.0,0.0,0.0,0.0,0.0,0.0,0.0,0.0,0.0,0.0,0.0,0.0,0.0,0.0,0.0,0.0,0.0,0.0,0.0,0.0,0.0,0.0,0.0,0.0,0.0,0.0,0.0,0.0,0.0,0.0,0.0,0.0,0.0,0.0,0.0,0.0,0.0,0.0,0.0,0.0,0.0,0.0,0.0,0.0,0.0,0.0,0.0,0.0,0.0,0.0,0.0,0.0,0.0,0.0,0.0,0.0,0.0,0.0,0.0,0.0,0.0,0.0,0.0,0.0,0.0,0.0,0.0,0.0,0.0,0.0,0.0,0.0,0.0,0.0,0.0,0.0,0.0,0.0,0.0,0.0,0.0,0.0,0.0,0.0,0.0,0.0,0.0,0.0,0.0,0.0,0.0,0.0,0.0,0.0,0.0,0.0,0.0,0.0,0.0,0.0,0.0,0.0,0.0,0.0,0.0,0.0,0.0,0.0,0.0,0.0,0.0,0.0,0.0,0.0,0.0,0.0,0.0,0.0,0.0,0.0,0.0,0.0,0.0,0.0,0.0,0.0,0.0,0.0,0.0,0.0,0.0,0.0,0.0,0.0,0.0,0.0,0.0,0.0,0.0,0.0,0.0,0.0,0.0,0.0,0.0,0.0,0.0,0.0,0.0,0.0,0.0,0.0,0.0,0.0,0.0,0.0,0.0,0.0,0.0,0.0,0.0,0.0,0.0,0.0,0.0,0.0,0.0,0.0,0.0,0.0,0.0,0.0,0.0,0.0,0.0,0.0,0.0,0.0,0.0,0.0,0.0,0.0,0.0,0.0,0.0,0.0,0.0,0.0,0.0,0.0,0.0,0.0,0.0,0.0,0.0,0.0,0.0,0.0,0.0,0.0,0.0,0.0,0.0,0.0,0.0,0.0,0.0,0.0,0.0,0.0,0.0,0.0,0.0,0.0,0.0,0.0,0.0,0.0,0.0,0.0,0.0,0.0,0.0,0.0,0.0,0.0,0.0,0.0,0.0,0.0,0.0,0.0,0.0,0.0,0.0,0.0,0.0,0.0,0.0,0.0,0.0,0.0,0.0,0.0,0.0,0.0,0.0,0.0,0.0,0.0,0.0,0.0,0.0,0.0,0.0,0.0,0.0,0.0,0.0,0.0,0.0,0.0,0.0,0.0,0.0,0.0,0.0,0.0,0.0,0.0,0.0,0.0,0.0,0.0,0.0,0.0,0.0,0.0,0.0,0.0,0.0,0.0,0.0,0.0,0.0,0.0,0.0,0.0,0.0,0.0,0.0,0.0,0.0,0.0,0.0,0.0,0.0,0.0,0.0,0.0,0.0,0.0,0.0,0.0,0.0,0.0,0.0,0.0,0.0,0.0,0.0,0.0,0.0,0.0,0.0,0.0,0.0,0.0,0.0,0.0,0.0,0.0,0.0,0.0,0.0,0.0,0.0,0.0,0.0,0.0,0.0,0.0,0.0,0.0,0.0,0.0,0.0,0.0,0.0,0.0,0.0,0.0,0.0,0.0,0.0,0.0,0.0,0.0,0.0,0.0,0.0,0.0,0.0,0.0,0.0,0.0,0.0,0.0,0.0,0.0,0.0,0.0,0.0,0.0,0.0,0.0,0.0,0.0,0.0,0.0,0.0,0.0,0.0,0.0,0.0,0.0,0.0,0.0,0.0,0.0,0.0,0.0,0.0,0.0,0.0,0.0,0.0,0.0,0.0,0.0,0.0,0.0,0.0,0.0,0.0,0.0,0.0,0.0,0.0,0.0,0.0,0.0,0.0,0.0,0.0,0.0,0.0,0.0,0.0,0.0,0.0,0.0,0.0,0.0,0.0,0.0,0.0,0.0,0.0,0.0,0.0,0.0,0.0,0.0,0.0,0.0,0.0,0.0,0.0,0.0,0.0,0.0,0.0,0.0,0.0,0.0,0.0,0.0,0.0,0.0,0.0,0.0,0.0,0.0,0.0,0.0,0.0,0.0,0.0,0.0,0.0,0.0,0.0,0.0,0.0,0.0,0.0,0.0,0.0,0.0,0.0,0.0,0.0,0.0,0.0,0.0,0.0,0.0,0.0,0.0,0.0,0.0,0.0,0.0,0.0,0.0,0.0,0.0,0.0,0.0,0.0,0.0,0.0,0.0,0.0,0.0,0.0,0.0,0.0,0.0,0.0,0.0,0.0,0.0,0.0,0.0,0.0,0.0,0.0,0.0,0.0,0.0,0.0,0.0,0.0,0.0,0.0,0.0,0.0,0.0,0.0,0.0,0.0,0.0,0.0,0.0,0.0,0.0,0.0,0.0,0.0,0.0,0.0,0.0,0.0,0.0,0.0,0.0,0.0,0.0,0.0,0.0,0.0,0.0,0.0,0.0,0.0,0.0,0.0,0.0,0.0,0.0,0.0,0.0,0.0,0.0,0.0,0.0,0.0,0.0,0.0,0.0,0.0,0.0,0.0,0.0,0.0,0.0,0.0,0.0,0.0,0.0,0.0,0.0,0.0,0.0,0.0,0.0,0.0,0.0,0.0,0.0,0.0,0.0,0.0,0.0,0.0,0.0,0.0,0.0,0.0,0.0,0.0,0.0,0.0,0.0,0.0,0.0,0.0,0.0,0.0,0.0,0.0,0.0,2.6317,0.0,0.0,0.0,0.0,0.0,0.0,0.0,0.0,0.0,0.0,0.0,0.0,0.0,0.0,0.0,0.0,0.0,0.0,0.0,0.0,0.0,0.0,0.0,0.0,0.0,0.0,0.0,0.0,0.0,0.0,0.0,0.0,0.0,0.0,0.0,0.0,0.0,0.0,0.0,0.0,0.0,0.0,0.0,0.0,0.0,0.0,0.0,0.0,0.0,0.0,0.0,0.0,0.0,0.0,0.0,0.0,0.0,0.0,0.0,0.0,0.0,0.0,0.0,0.0,0.0,0.0,0.0,0.0,0.0,0.0,0.0,0.0,0.0,0.0,0.0,0.0,0.0,0.0,0.0,0.0,0.0,0.0,0.0,0.0,0.0,0.0,0.0,0.0,0.0,0.0,0.0,0.0,0.0,0.0,0.0,0.0,0.0,0.0,0.0,0.0,0.0,0.0,0.0,0.0,0.0,0.0,0.0,0.0,0.0,0.0,2.652,2.6452,2.6415,2.638,2.6485,0.0,0.0,0.0,0.0,0.0,0.0,0.0,0.0,0.0,0.0,0.0,0.0,0.0,0.0,0.0,0.0,0.0,0.0,0.0,0.0,0.0,0.0,0.0,0.0,0.0,0.0,0.0,0.0,0.0,0.0,0.0,0.0,0.0,0.0,0.0,0.0,0.0,0.0,0.0,0.0,0.0,0.0,0.0,0.0,0.0,0.0,0.0,0.0,0.0,0.0,0.0,0.0,0.0,0.0,0.0,0.0,0.0,0.0,0.0,0.0,0.0,0.0,0.0,0.0,0.0,0.0,0.0,0.0,0.0,0.0,0.0,0.0,0.0,0.0,0.0,0.0,0.0,0.0,0.0,0.0,0.0,0.0,0.0,0.0,0.0,0.0,0.0,0.0,0.0,0.0,0.0,0.0,0.0,0.0,0.0,0.0,0.0,0.0,0.0,0.0,0.0,0.0,0.0,0.0,0.0,0.0,0.0,0.0,0.0,0.0,0.0,0.0,2.6415,2.645,2.6485,0.0,0.0,0.0,0.0,0.0,0.0,0.0,0.0,0.0,0.0,0.0,0.0,0.0,0.0,0.0,0.0,0.0,0.0,0.0,0.0,0.0,0.0,0.0,0.0,0.0,0.0,0.0,0.0,0.0,0.0,0.0,0.0,0.0,0.0,0.0,0.0,0.0,0.0,0.0,0.0,0.0,0.0,0.0,0.0,0.0,0.0,0.0,0.0,0.0,0.0,0.0,0.0,0.0,0.0,0.0,0.0,0.0,0.0,0.0,0.0,0.0,0.0,0.0,0.0,0.0,0.0,0.0,0.0,0.0,0.0,0.0,0.0,0.0,0.0,0.0,0.0,0.0,0.0,0.0,0.0,0.0,0.0,0.0,0.0,0.0,0.0,0.0,0.0,0.0,0.0,0.0,0.0,0.0,0.0,0.0,0.0,0.0,0.0,0.0,0.0,0.0,0.0,0.0,0.0,0.0,0.0,0.0,0.0,0.0,0.0,2.6382,2.6485,2.631,0.0,2.6485,0.0,0.0,0.0,0.0,0.0,0.0,0.0,0.0,0.0,0.0,0.0,0.0,0.0,0.0,0.0,0.0,0.0,0.0,0.0,0.0,0.0,0.0,0.0,0.0,0.0,0.0,0.0,0.0,0.0,0.0,0.0,0.0,0.0,0.0,0.0,0.0,0.0,0.0,0.0,0.0,0.0,0.0,0.0,0.0,0.0,0.0,0.0,0.0,0.0,0.0,0.0,0.0,0.0,0.0,0.0,0.0,0.0,0.0,0.0,0.0,0.0,0.0,0.0,0.0,0.0,0.0,0.0,0.0,0.0,0.0,0.0,0.0,0.0,0.0,0.0,0.0,0.0,0.0,0.0,0.0,0.0,0.0,0.0,0.0,0.0,0.0,0.0,0.0,0.0,0.0,0.0,0.0,0.0,0.0,0.0,0.0,0.0,0.0,0.0,0.0,0.0,0.0,0.0,0.0,0.0,0.0,0.0,0.0,0.0,0.0,2.6382,2.6382,2.6415,2.6485,0.0,0.0,0.0,0.0,0.0,0.0,0.0,0.0,0.0,0.0,0.0,0.0,0.0,0.0,0.0,0.0,0.0,0.0,0.0,0.0,0.0,0.0,0.0,0.0,0.0,0.0,0.0,0.0,0.0,0.0,0.0,0.0,0.0,0.0,0.0,0.0,0.0,0.0,0.0,0.0,0.0,0.0,0.0,0.0,0.0,0.0,0.0,0.0,0.0,0.0,0.0,0.0,0.0,0.0,0.0,0.0,0.0,0.0,0.0,0.0,0.0,0.0,0.0,0.0,0.0,0.0,0.0,0.0,0.0,0.0,0.0,0.0,0.0,0.0,0.0,0.0,0.0,0.0,0.0,0.0,0.0,0.0,0.0,0.0,0.0,0.0,0.0,0.0,0.0,0.0,0.0,0.0,0.0,0.0,0.0,0.0,0.0,0.0,0.0,0.0,0.0,0.0,0.0,0.0,0.0,0.0,0.0,0.0,0.0,0.0,2.645,2.638,2.6279,2.6417,2.652,2.6589,0.0,0.0,0.0,0.0,0.0,0.0,0.0,0.0,0.0,0.0,0.0,0.0,0.0,0.0,0.0,0.0,0.0,0.0,0.0,0.0,0.0,0.0,0.0,0.0,0.0,0.0,0.0,0.0,0.0,0.0,0.0,0.0,0.0,0.0,0.0,0.0,0.0,0.0,0.0,0.0,0.0,0.0,0.0,0.0,0.0,0.0,0.0,0.0,0.0,0.0,0.0,0.0,0.0,0.0,0.0,0.0,0.0,0.0,0.0,0.0,0.0,0.0,0.0,0.0,0.0,0.0,0.0,0.0,0.0,0.0,0.0,0.0,0.0,0.0,0.0,0.0,0.0,0.0,0.0,0.0,0.0,0.0,0.0,0.0,0.0,0.0,0.0,0.0,0.0,0.0,0.0,0.0,0.0,0.0,0.0,0.0,0.0,0.0,0.0,0.0,0.0,0.0,0.0,0.0,0.0,0.0,0.0,0.0,2.6485,2.631,2.6239,2.6312,2.6241,2.631,0.0,0.0,0.0,0.0,0.0,0.0,0.0,0.0,0.0,0.0,0.0,0.0,0.0,0.0,0.0,0.0,0.0,0.0,0.0,0.0,0.0,0.0,0.0,0.0,0.0,0.0,0.0,0.0,0.0,0.0,0.0,0.0,0.0,0.0,0.0,0.0,0.0,0.0,0.0,0.0,0.0,0.0,0.0,0.0,0.0,0.0,0.0,0.0,0.0,0.0,0.0,0.0,0.0,0.0,0.0,0.0,0.0,0.0,0.0,0.0,0.0,0.0,0.0,0.0,0.0,0.0,0.0,0.0,0.0,0.0,0.0,0.0,0.0,0.0,0.0,0.0,0.0,0.0,0.0,0.0,0.0,0.0,0.0,0.0,0.0,0.0,0.0,0.0,0.0,0.0,0.0,0.0,0.0,0.0,0.0,0.0,0.0,0.0,0.0,0.0,0.0,0.0,0.0,0.0,0.0,0.0,0.0,0.0,0.0,2.6485,2.631,2.6203,2.6239,2.6241,2.6312,0.0,0.0,0.0,0.0,0.0,0.0,0.0,0.0,0.0,0.0,0.0,0.0,0.0,0.0,0.0,0.0,0.0,0.0,0.0,0.0,0.0,0.0,0.0,0.0,0.0,0.0,0.0,0.0,0.0,0.0,0.0,0.0,0.0,0.0,0.0,0.0,0.0,0.0,0.0,0.0,0.0,0.0,0.0,0.0,0.0,0.0,0.0,0.0,0.0,0.0,0.0,0.0,0.0,0.0,0.0,0.0,0.0,0.0,0.0,0.0,0.0,0.0,0.0,0.0,0.0,0.0,0.0,0.0,0.0,0.0,0.0,0.0,0.0,0.0,0.0,0.0,0.0,0.0,0.0,0.0,0.0,0.0,0.0,0.0,0.0,0.0,0.0,0.0,0.0,0.0,0.0,0.0,0.0,0.0,0.0,0.0,0.0,0.0,0.0,0.0,0.0,0.0,0.0,0.0,0.0,0.0,0.0,0.0,0.0,2.6417,0.0,2.6203,2.6239,2.6241,2.6312,0.0,0.0,0.0,0.0,0.0,0.0,0.0,0.0,0.0,0.0,0.0,0.0,0.0,0.0,0.0,0.0,0.0,0.0,0.0,0.0,0.0,0.0,0.0,0.0,0.0,0.0,0.0,0.0,0.0,0.0,0.0,0.0,0.0,0.0,0.0,0.0,0.0,0.0,0.0,0.0,0.0,0.0,0.0,0.0,0.0,0.0,0.0,0.0,0.0,0.0,0.0,0.0,0.0,0.0,0.0,0.0,0.0,0.0,0.0,0.0,0.0,0.0,0.0,0.0,0.0,0.0,0.0,0.0,0.0,0.0,0.0,0.0,0.0,0.0,0.0,0.0,0.0,0.0,0.0,0.0,0.0,0.0,0.0,0.0,0.0,0.0,0.0,0.0,0.0,0.0,0.0,0.0,0.0,0.0,0.0,0.0,0.0,0.0,0.0,0.0,0.0,0.0,0.0,0.0,0.0,0.0,0.0,0.0,2.652,2.6312,2.6272,2.6338,2.6312,2.6308,2.6343,0.0,0.0,0.0,0.0,0.0,0.0,0.0,0.0,0.0,0.0,0.0,0.0,0.0,0.0,0.0,0.0,0.0,0.0,0.0,0.0,0.0,0.0,0.0,0.0,0.0,0.0,0.0,0.0,0.0,0.0,0.0,0.0,0.0,0.0,0.0,0.0,0.0,0.0,0.0,0.0,0.0,0.0,0.0,0.0,0.0,0.0,0.0,0.0,0.0,0.0,0.0,0.0,0.0,0.0,0.0,0.0,0.0,0.0,0.0,0.0,0.0,0.0,0.0,0.0,0.0,0.0,0.0,0.0,0.0,0.0,0.0,0.0,0.0,0.0,0.0,0.0,0.0,0.0,0.0,0.0,0.0,0.0,0.0,0.0,0.0,0.0,0.0,0.0,0.0,0.0,0.0,0.0,0.0,0.0,0.0,0.0,0.0,0.0,0.0,0.0,0.0,0.0,0.0,0.0,0.0,0.0,0.0,0.0,0.0,2.7078,2.7504,2.7499,2.7038,2.7005,2.6878,0.0,0.0,0.0,0.0,0.0,0.0,0.0,0.0,0.0,0.0,0.0,0.0,0.0,0.0,0.0,0.0,0.0,0.0,0.0,0.0,0.0,0.0,0.0,0.0,0.0,0.0,0.0,0.0,0.0,0.0,0.0,0.0,0.0,0.0,0.0,0.0,0.0,0.0,0.0,0.0,0.0,0.0,0.0,0.0,0.0,0.0,0.0,0.0,0.0,0.0,0.0,0.0,0.0,0.0,0.0,0.0,0.0,0.0,0.0,0.0,0.0,0.0,0.0,0.0,0.0,0.0,0.0,0.0,0.0,0.0,0.0,0.0,0.0,0.0,0.0,0.0,0.0,0.0,0.0,0.0,0.0,0.0,0.0,0.0,0.0,0.0,0.0,0.0,0.0,0.0,0.0,0.0,0.0,0.0,0.0,0.0,0.0,0.0,0.0,0.0,0.0,0.0,0.0,0.0,0.0,0.0,0.0,0.0,0.0,2.8135,2.8296,2.8158,2.7732,2.747,2.7211,2.6887,0.0,0.0,0.0,0.0,0.0,0.0,0.0,0.0,0.0,0.0,0.0,0.0,0.0,0.0,0.0,0.0,0.0,0.0,0.0,0.0,0.0,0.0,0.0,0.0,0.0,0.0,0.0,0.0,0.0,0.0,0.0,0.0,0.0,0.0,0.0,0.0,0.0,0.0,0.0,0.0,0.0,0.0,0.0,0.0,0.0,0.0,0.0,0.0,0.0,0.0,0.0,0.0,0.0,0.0,0.0,0.0,0.0,0.0,0.0,0.0,0.0,0.0,0.0,0.0,0.0,0.0,0.0,0.0,0.0,0.0,0.0,0.0,0.0,0.0,0.0,0.0,0.0,0.0,0.0,0.0,0.0,0.0,0.0,0.0,0.0,0.0,0.0,0.0,0.0,0.0,0.0,0.0,0.0,0.0,0.0,0.0,0.0,0.0,0.0,0.0,0.0,0.0,0.0,0.0,0.0,0.0,0.0,0.0,2.9516,2.8887,2.8561,2.8423,2.7798,2.7474,0.0,0.0,0.0,0.0,0.0,0.0,0.0,0.0,0.0,0.0,0.0,0.0,0.0,0.0,0.0,0.0,0.0,0.0,0.0,0.0,0.0,0.0,0.0,0.0,0.0,0.0,0.0,0.0,0.0,0.0,0.0,0.0,0.0,0.0,0.0,0.0,0.0,0.0,0.0,0.0,0.0,0.0,0.0,0.0,0.0,0.0,0.0,0.0,0.0,0.0,0.0,0.0,0.0,0.0,0.0,0.0,0.0,0.0,0.0,0.0,0.0,0.0,0.0,0.0,0.0,0.0,0.0,0.0,0.0,0.0,0.0,0.0,0.0,0.0,0.0,0.0,0.0,0.0,0.0,0.0,0.0,0.0,0.0,0.0,0.0,0.0,0.0,0.0,0.0,0.0,0.0,0.0,0.0,0.0,0.0,0.0,0.0,0.0,0.0,0.0,0.0,0.0,0.0,0.0,0.0,0.0,0.0,0.0,0.0,3.0974,3.0958,3.0327,2.9185,2.9065,2.8472,0.0,0.0,0.0,0.0,0.0,0.0,0.0,0.0,0.0,0.0,0.0,0.0,0.0,0.0,0.0,0.0,0.0,0.0,0.0,0.0,0.0,0.0,0.0,0.0,0.0,0.0,0.0,0.0,0.0,0.0,0.0,0.0,0.0,0.0,0.0,0.0,0.0,0.0,0.0,0.0,0.0,0.0,0.0,0.0,0.0,0.0,0.0,0.0,0.0,0.0,0.0,0.0,0.0,0.0,0.0,0.0,0.0,0.0,0.0,0.0,0.0,0.0,0.0,0.0,0.0,0.0,0.0,0.0,0.0,0.0,0.0,0.0,0.0,0.0,0.0,0.0,0.0,0.0,0.0,0.0,0.0,0.0,0.0,0.0,0.0,0.0,0.0,0.0,0.0,0.0,0.0,0.0,0.0,0.0,0.0,0.0,0.0,0.0,0.0,0.0,0.0,0.0,0.0,0.0,0.0,0.0,0.0,0.0,3.0485,3.156,3.1978,3.1622,3.0377,3.012,2.9297,0.0,0.0,0.0,0.0,0.0,0.0,0.0,0.0,0.0,0.0,0.0,0.0,0.0,0.0,0.0,0.0,0.0,0.0,0.0,0.0,0.0,0.0,0.0,0.0,0.0,0.0,0.0,0.0,0.0,0.0,0.0,0.0,0.0,0.0,0.0,0.0,0.0,0.0,0.0,0.0,0.0,0.0,0.0,0.0,0.0,0.0,0.0,0.0,0.0,0.0,0.0,0.0,0.0,0.0,0.0,0.0,0.0,0.0,0.0,0.0,0.0,0.0,0.0,0.0,0.0,0.0,0.0,0.0,0.0,0.0,0.0,0.0,0.0,0.0,0.0,0.0,0.0,0.0,0.0,0.0,0.0,0.0,0.0,0.0,0.0,0.0,0.0,0.0,0.0,0.0,0.0,0.0,0.0,0.0,0.0,0.0,0.0,0.0,0.0,0.0,0.0,0.0,0.0,0.0,0.0,0.0,0.0,0.0,3.104,3.1791,3.2464,3.2497,3.1868,3.1073,2.9987,0.0,0.0,0.0,0.0,0.0,0.0,0.0,0.0,0.0,0.0,0.0,0.0,0.0,0.0,0.0,0.0,0.0,0.0,0.0,0.0,0.0,0.0,0.0,0.0,0.0,0.0,0.0,0.0,0.0,0.0,0.0,0.0,0.0,0.0,0.0,0.0,0.0,0.0,0.0,0.0,0.0,0.0,0.0,0.0,0.0,0.0,0.0,0.0,0.0,0.0,0.0,0.0,0.0,0.0,0.0,0.0,0.0,0.0,0.0,0.0,0.0,0.0,0.0,0.0,0.0,0.0,0.0,0.0,0.0,0.0,0.0,0.0,0.0,0.0,0.0,0.0,0.0,0.0,0.0,0.0,0.0,0.0,0.0,0.0,0.0,0.0,0.0,0.0,0.0,0.0,0.0,0.0,0.0,0.0,0.0,0.0,0.0,0.0,0.0,0.0,0.0,0.0,0.0,0.0,0.0,0.0,0.0,0.0,3.2121,3.3292,3.3582,3.3615,3.3326,3.2067,3.0709,0.0,0.0,0.0,0.0,0.0,0.0,0.0,0.0,0.0,0.0,0.0,0.0,0.0,0.0,0.0,0.0,0.0,0.0,0.0,0.0,0.0,0.0,0.0,0.0,0.0,0.0,0.0,0.0,0.0,0.0,0.0,0.0,0.0,0.0,0.0,0.0,0.0,0.0,0.0,0.0,0.0,0.0,0.0,0.0,0.0,0.0,0.0,0.0,2.7267,0.0,0.0,0.0,0.0,0.0,0.0,0.0,0.0,0.0,0.0,0.0,0.0,0.0,0.0,0.0,0.0,0.0,0.0,0.0,0.0,0.0,0.0,0.0,0.0,0.0,0.0,0.0,0.0,0.0,0.0,0.0,0.0,0.0,0.0,0.0,0.0,0.0,0.0,0.0,0.0,0.0,0.0,0.0,0.0,0.0,0.0,0.0,0.0,0.0,0.0,0.0,0.0,0.0,0.0,0.0,0.0,0.0,0.0,0.0,3.2752,3.3756,3.42,3.42,3.3789,3.2696,3.1437,0.0,0.0,0.0,0.0,0.0,0.0,0.0,0.0,0.0,0.0,0.0,0.0,0.0,0.0,0.0,0.0,0.0,0.0,0.0,0.0,0.0,0.0,0.0,0.0,0.0,0.0,0.0,0.0,0.0,0.0,0.0,0.0,0.0,0.0,0.0,0.0,0.0,0.0,0.0,0.0,0.0,0.0,0.0,0.0,0.0,0.0,0.0,0.0,0.0,0.0,0.0,0.0,0.0,0.0,0.0,0.0,0.0,0.0,0.0,0.0,0.0,0.0,0.0,0.0,0.0,0.0,0.0,0.0,0.0,0.0,0.0,0.0,0.0,0.0,0.0,0.0,0.0,0.0,0.0,0.0,0.0,0.0,0.0,0.0,0.0,0.0,0.0,0.0,0.0,0.0,0.0,0.0,0.0,0.0,0.0,0.0,0.0,0.0,0.0,0.0,0.0,0.0,0.0,0.0,0.0,0.0,0.0,3.2067,3.3094,3.3955,3.4584,3.4584,3.3988,3.3127,3.21,3.0874,0.0,0.0,0.0,0.0,0.0,0.0,0.0,0.0,0.0,0.0,0.0,0.0,0.0,0.0,0.0,0.0,0.0,0.0,0.0,0.0,0.0,0.0,0.0,0.0,0.0,0.0,0.0,0.0,0.0,0.0,0.0,0.0,0.0,0.0,0.0,0.0,0.0,0.0,2.667,2.7348,0.0,0.0,0.0,0.0,0.0,0.0,0.0,0.0,2.8109,0.0,0.0,0.0,0.0,0.0,0.0,0.0,0.0,0.0,0.0,0.0,0.0,0.0,0.0,0.0,0.0,0.0,0.0,0.0,0.0,0.0,0.0,0.0,0.0,0.0,0.0,0.0,0.0,0.0,0.0,0.0,0.0,0.0,0.0,0.0,0.0,0.0,0.0,0.0,0.0,0.0,0.0,0.0,0.0,0.0,0.0,0.0,0.0,0.0,0.0,0.0,0.0,0.0,0.0,0.0,0.0,3.2299,3.2564,3.3326,3.4684,3.4849,3.4849,3.4684,3.3392,3.2564,3.2232,0.0,0.0,0.0,0.0,0.0,0.0,0.0,0.0,0.0,0.0,0.0,0.0,0.0,0.0,0.0,0.0,0.0,0.0,0.0,0.0,0.0,0.0,0.0,0.0,0.0,0.0,0.0,0.0,0.0,0.0,0.0,0.0,0.0,0.0,0.0,0.0,0.0,0.0,0.0,2.7678,2.8124,0.0,0.0,0.0,0.0,0.0,0.0,0.0,0.0,2.9589,0.0,0.0,0.0,0.0,0.0,0.0,0.0,0.0,0.0,0.0,0.0,0.0,0.0,0.0,0.0,0.0,0.0,0.0,0.0,0.0,0.0,0.0,0.0,0.0,0.0,0.0,0.0,0.0,0.0,0.0,0.0,0.0,0.0,0.0,0.0,0.0,0.0,0.0,0.0,0.0,0.0,0.0,0.0,0.0,0.0,0.0,0.0,0.0,0.0,0.0,0.0,0.0,0.0,0.0,0.0,3.274,3.2785,3.347,3.4911,3.4963,3.4916,3.4883,3.3458,3.2663,0.0,0.0,0.0,0.0,0.0,0.0,0.0,0.0,0.0,0.0,0.0,0.0,0.0,0.0,0.0,0.0,0.0,0.0,0.0,0.0,0.0,0.0,0.0,0.0,0.0,0.0,0.0,0.0,0.0,0.0,0.0,0.0,0.0,0.0,0.0,0.0,0.0,0.0,0.0,0.0,2.883,2.9579,2.9489,0.0,0.0,0.0,0.0,0.0,0.0,3.1414,3.0965,0.0,0.0,0.0,0.0,0.0,0.0,0.0,0.0,0.0,0.0,0.0,0.0,0.0,0.0,0.0,0.0,0.0,0.0,0.0,0.0,0.0,0.0,0.0,0.0,0.0,0.0,0.0,0.0,0.0,0.0,0.0,0.0,0.0,0.0,0.0,0.0,0.0,0.0,0.0,0.0,0.0,0.0,0.0,0.0,0.0,0.0,0.0,0.0,0.0,0.0,0.0,0.0,0.0,0.0,0.0,3.2894,3.2951,3.3603,3.4958,3.4963,3.4916,3.4883,3.3504,3.2741,0.0,0.0,0.0,0.0,0.0,0.0,0.0,0.0,0.0,0.0,0.0,0.0,0.0,0.0,0.0,0.0,0.0,0.0,0.0,0.0,0.0,0.0,0.0,0.0,0.0,0.0,0.0,0.0,0.0,0.0,0.0,0.0,0.0,0.0,0.0,0.0,0.0,0.0,0.0,0.0,0.0,3.0808,3.0876,3.1628,0.0,0.0,0.0,0.0,3.2714,3.242,0.0,0.0,0.0,0.0,0.0,0.0,0.0,0.0,0.0,0.0,0.0,0.0,0.0,0.0,0.0,0.0,0.0,0.0,0.0,0.0,0.0,0.0,0.0,0.0,0.0,0.0,0.0,0.0,0.0,0.0,0.0,0.0,0.0,0.0,0.0,0.0,0.0,0.0,0.0,0.0,0.0,0.0,0.0,0.0,0.0,0.0,0.0,0.0,0.0,0.0,0.0,0.0,0.0,0.0,0.0,0.0,3.2674,3.3371,3.4054,3.4897,3.4916,3.4916,3.4883,3.3582,3.2862,0.0,0.0,0.0,0.0,0.0,0.0,0.0,0.0,0.0,0.0,0.0,0.0,0.0,0.0,0.0,0.0,0.0,0.0,0.0,0.0,0.0,0.0,0.0,0.0,0.0,0.0,0.0,0.0,0.0,0.0,0.0,0.0,0.0,0.0,0.0,0.0,0.0,0.0,0.0,0.0,0.0,3.0782,3.1533,3.2433,3.2983,0.0,0.0,3.3412,3.3736,3.2978,0.0,0.0,0.0,0.0,0.0,0.0,0.0,0.0,0.0,0.0,0.0,0.0,0.0,0.0,0.0,0.0,0.0,0.0,0.0,0.0,0.0,0.0,0.0,0.0,0.0,0.0,0.0,0.0,0.0,0.0,0.0,0.0,0.0,0.0,0.0,0.0,0.0,0.0,0.0,0.0,0.0,0.0,0.0,0.0,0.0,0.0,0.0,0.0,0.0,0.0,0.0,0.0,0.0,0.0,0.0,3.1566,3.3004,3.3695,3.4631,3.578,3.5399,3.5318,3.5719,3.4397,3.3395,0.0,0.0,0.0,0.0,0.0,0.0,0.0,0.0,0.0,0.0,0.0,0.0,0.0,0.0,0.0,0.0,0.0,0.0,0.0,0.0,0.0,0.0,0.0,0.0,0.0,0.0,0.0,0.0,0.0,0.0,0.0,0.0,0.0,0.0,0.0,0.0,0.0,0.0,0.0,0.0,0.0,0.0,3.2933,3.4165,0.0,0.0,0.0,3.5383,3.558,0.0,0.0,0.0,0.0,0.0,0.0,0.0,0.0,0.0,0.0,0.0,0.0,0.0,0.0,0.0,0.0,0.0,0.0,0.0,0.0,0.0,0.0,0.0,0.0,0.0,0.0,0.0,0.0,0.0,0.0,0.0,0.0,0.0,0.0,0.0,0.0,0.0,0.0,0.0,0.0,0.0,0.0,0.0,0.0,0.0,0.0,0.0,0.0,0.0,0.0,0.0,0.0,0.0,0.0,0.0,0.0,0.0,3.3201,3.4186,3.5211,3.6377,3.598,3.59,3.6281,3.5124,0.0,0.0,0.0,0.0,0.0,0.0,0.0,0.0,0.0,0.0,0.0,0.0,0.0,0.0,0.0,0.0,0.0,0.0,0.0,0.0,0.0,0.0,0.0,0.0,0.0,0.0,0.0,2.3588,0.0,0.0,0.0,0.0,0.0,0.0,0.0,0.0,0.0,0.0,0.0,0.0,0.0,0.0,3.4331,3.4433,3.5558,3.6482,0.0,0.0,3.6795,3.6949,3.6488,3.5927,0.0,0.0,0.0,0.0,0.0,0.0,0.0,0.0,0.0,0.0,0.0,0.0,0.0,0.0,0.0,0.0,0.0,0.0,0.0,0.0,0.0,0.0,0.0,0.0,0.0,0.0,0.0,0.0,0.0,0.0,0.0,0.0,0.0,0.0,0.0,0.0,0.0,0.0,0.0,0.0,0.0,0.0,0.0,0.0,0.0,0.0,0.0,0.0,0.0,0.0,0.0,0.0,0.0,0.0,3.2861,3.2973,3.4878,3.5925,3.6058,3.6688,3.6771,3.6204,3.5499,3.4521,0.0,0.0,0.0,0.0,0.0,0.0,0.0,0.0,0.0,0.0,0.0,0.0,0.0,0.0,0.0,0.0,0.0,0.0,0.0,0.0,0.0,0.0,0.0,0.0,0.0,0.0,0.0,0.0,0.0,0.0,0.0,0.0,0.0,0.0,0.0,0.0,0.0,0.0,0.0,0.0,0.0,3.4688,3.5701,3.6066,3.6344,0.0,3.6659,3.673,3.7236,3.7153,3.7036,3.712,0.0,0.0,0.0,0.0,0.0,0.0,0.0,0.0,0.0,0.0,0.0,0.0,0.0,0.0,0.0,0.0,0.0,0.0,0.0,0.0,0.0,0.0,0.0,0.0,0.0,0.0,0.0,0.0,0.0,0.0,0.0,0.0,0.0,0.0,0.0,0.0,0.0,0.0,0.0,0.0,0.0,0.0,0.0,0.0,0.0,0.0,0.0,0.0,0.0,0.0,0.0,0.0,0.0,3.3604,3.451,3.582,3.6928,3.7767,3.77,3.7666,3.7932,3.6787,3.5677,0.0,0.0,0.0,0.0,0.0,0.0,0.0,0.0,0.0,0.0,0.0,0.0,0.0,0.0,0.0,0.0,0.0,0.0,0.0,0.0,0.0,0.0,0.0,0.0,0.0,0.0,0.0,0.0,2.6727,2.7199,2.746,0.0,0.0,0.0,0.0,0.0,0.0,0.0,0.0,0.0,0.0,3.6486,3.7326,3.801,0.0,0.0,3.9368,3.9479,3.9534,3.899,3.8479,3.8216,3.7647,0.0,0.0,0.0,0.0,0.0,0.0,0.0,0.0,0.0,0.0,0.0,0.0,0.0,0.0,0.0,0.0,0.0,0.0,0.0,0.0,0.0,0.0,0.0,0.0,0.0,0.0,0.0,0.0,0.0,0.0,0.0,0.0,0.0,0.0,0.0,0.0,0.0,0.0,0.0,0.0,0.0,0.0,0.0,0.0,0.0,0.0,0.0,0.0,0.0,0.0,0.0,0.0,3.4476,3.5487,3.6747,3.786,3.8873,3.8603,3.8603,3.8922,3.7942,3.678,0.0,0.0,0.0,0.0,0.0,0.0,0.0,0.0,0.0,0.0,0.0,0.0,0.0,0.0,0.0,0.0,0.0,0.0,0.0,0.0,0.0,0.0,0.0,0.0,0.0,0.0,0.0,0.0,2.8061,2.8526,2.8526,0.0,0.0,0.0,0.0,0.0,0.0,0.0,0.0,0.0,0.0,3.7987,3.8779,3.9502,4.0196,4.0802,4.1041,4.1099,4.1066,4.0348,3.9743,3.9532,0.0,0.0,0.0,0.0,0.0,0.0,0.0,0.0,0.0,0.0,0.0,0.0,0.0,0.0,0.0,0.0,0.0,0.0,0.0,0.0,0.0,0.0,0.0,0.0,0.0,0.0,0.0,3.3938,0.0,0.0,3.2224,0.0,0.0,0.0,0.0,0.0,0.0,0.0,0.0,0.0,0.0,0.0,0.0,0.0,0.0,0.0,0.0,0.0,0.0,0.0,0.0,0.0,0.0,3.5532,3.5542,3.7532,3.8572,3.8639,3.9276,3.9378,3.8874,3.8773,3.7696,3.5554,0.0,0.0,0.0,0.0,0.0,0.0,0.0,0.0,0.0,0.0,0.0,0.0,0.0,0.0,0.0,0.0,0.0,0.0,0.0,0.0,0.0,0.0,0.0,0.0,0.0,0.0,2.8076,2.9111,2.987,0.0,0.0,0.0,0.0,0.0,0.0,0.0,0.0,0.0,0.0,3.823,3.8893,3.9802,4.0268,4.0572,4.0723,4.0932,4.1132,4.1394,4.1124,4.0943,0.0,0.0,0.0,0.0,0.0,0.0,0.0,0.0,0.0,0.0,0.0,0.0,0.0,0.0,0.0,0.0,0.0,0.0,0.0,0.0,0.0,0.0,0.0,0.0,0.0,0.0,0.0,3.4835,3.4766,0.0,0.0,0.0,0.0,0.0,0.0,0.0,0.0,0.0,0.0,0.0,3.6412,3.6469,0.0,0.0,0.0,0.0,0.0,0.0,0.0,0.0,0.0,0.0,0.0,0.0,3.6457,3.7902,3.8584,3.9093,3.9615,3.9851,3.9885,3.9665,3.9192,3.7874,3.5645,0.0,0.0,0.0,0.0,0.0,0.0,0.0,0.0,0.0,0.0,0.0,0.0,0.0,0.0,0.0,0.0,0.0,0.0,0.0,0.0,0.0,0.0,0.0,0.0,0.0,2.9802,0.0,0.0,0.0,0.0,0.0,0.0,0.0,0.0,0.0,0.0,0.0,3.7196,3.7905,3.8809,3.9738,4.0606,4.118,4.1818,0.0,0.0,0.0,0.0,0.0,0.0,0.0,0.0,0.0,0.0,0.0,0.0,0.0,0.0,3.8566,3.7857,3.7938,3.8046,3.7883,0.0,0.0,0.0,0.0,0.0,0.0,0.0,0.0,0.0,0.0,0.0,0.0,0.0,0.0,3.6353,0.0,3.587,0.0,0.0,0.0,0.0,0.0,0.0,0.0,0.0,3.7285,3.7888,3.8357,3.8448,3.8322,0.0,3.8138,3.6874,0.0,0.0,0.0,0.0,0.0,0.0,0.0,0.0,3.784,3.9457,3.9697,4.0121,4.0798,4.0832,4.0832,4.0832,3.9918,3.8565,3.684,3.5937,3.5049,0.0,0.0,0.0,0.0,0.0,0.0,0.0,0.0,0.0,0.0,0.0,0.0,0.0,0.0,0.0,0.0,0.0,0.0,0.0,0.0,0.0,0.0,0.0,3.1283,0.0,0.0,0.0,0.0,0.0,0.0,0.0,0.0,0.0,3.6346,3.756,3.8637,3.906,4.003,4.0959,4.1662,0.0,0.0,0.0,0.0,0.0,0.0,0.0,4.3459,4.3073,4.2522,4.2154,4.2215,4.197,4.1846,4.197,0.0,0.0,3.936,3.9235,3.9349,3.9292,3.9235,3.9462,4.0118,4.013,4.0301,0.0,0.0,0.0,0.0,0.0,0.0,0.0,0.0,3.8698,3.8698,0.0,3.8629,0.0,0.0,0.0,0.0,3.8663,3.8333,0.0,0.0,3.8551,3.8562,3.8585,3.8562,3.8528,3.8517,3.8562,3.8423,3.8227,3.7478,0.0,0.0,0.0,0.0,0.0,0.0,3.9705,4.0206,4.0865,4.1576,4.2219,4.2286,4.2286,4.2252,4.0899,3.9783,3.8971,3.6848,3.5633,3.5611,3.4095,0.0,0.0,0.0,0.0,0.0,0.0,0.0,0.0,0.0,0.0,0.0,0.0,0.0,0.0,0.0,0.0,0.0,0.0,0.0,0.0,3.1994,0.0,0.0,0.0,0.0,0.0,0.0,0.0,0.0,0.0,0.0,3.8341,3.8953,3.9762,4.0956,0.0,0.0,0.0,0.0,4.4556,4.4253,4.4554,4.4786,4.4786,4.4621,4.4589,4.4689,0.0,0.0,4.4919,4.4591,4.4359,4.4721,4.4494,4.3587,4.0858,4.0559,4.0707,4.0675,4.0739,4.0869,4.1517,4.1558,4.1724,4.4492,0.0,0.0,0.0,0.0,4.1988,4.1871,4.1885,4.125,4.1009,4.0974,4.0457,0.0,0.0,0.0,0.0,0.0,0.0,4.0754,4.0995,4.1547,4.1836,4.1822,4.1822,4.1822,4.1788,4.1822,4.1724,4.1576,4.1302,4.0055,3.7923,0.0,0.0,0.0,0.0,4.0594,4.1766,4.1933,4.2083,4.2286,4.2286,4.2286,4.2286,4.1373,4.0527,3.9783,3.8633,3.7739,3.7104,3.5701,0.0,0.0,0.0,0.0,0.0,0.0,0.0,0.0,0.0,0.0,0.0,0.0,0.0,0.0,0.0,0.0,0.0,0.0,0.0,3.3386,3.4088,3.4655,0.0,0.0,0.0,0.0,0.0,0.0,0.0,0.0,0.0,4.1174,4.118,4.1279,0.0,0.0,4.3405,4.3458,4.4336,4.4888,4.4989,4.5474,0.0,4.6072,4.5721,4.533,4.5162,4.4777,4.4522,4.4623,4.4655,4.4721,4.482,4.4787,4.443,4.3686,4.3493,4.3557,4.3557,4.3557,4.3622,4.3816,4.3816,4.3848,4.7355,4.5354,4.4803,4.4527,4.4492,4.4216,4.4044,4.4009,4.3251,4.2906,4.2837,4.2112,4.185,4.185,4.1802,0.0,0.0,0.0,4.2358,4.2457,4.299,4.3232,4.3232,4.3232,4.3232,4.3232,4.3232,4.3131,4.303,4.2911,4.1968,4.0172,0.0,0.0,4.1439,4.1273,4.1732,4.2799,4.278,4.2895,4.3166,4.32,4.3064,4.2726,4.232,4.1711,4.0967,3.9986,3.9192,3.867,3.73,3.6173,0.0,0.0,0.0,0.0,0.0,0.0,0.0,0.0,0.0,0.0,0.0,2.998,3.1186,0.0,0.0,0.0,3.3758,3.4333,3.5299,3.5732,0.0,0.0,0.0,0.0,0.0,0.0,0.0,4.0158,4.1661,4.2783,4.3137,4.3229,4.3161,4.2972,4.3763,4.4325,4.4325,0.0,4.6,4.6109,4.6717,4.7237,4.7309,4.72,4.691,4.6808,4.6486,4.6265,4.6164,4.6334,4.6403,4.6403,4.6403,4.6471,4.6471,4.6471,4.605,4.5014,4.4787,4.4885,4.5111,4.5403,4.5694,4.9769,4.8976,4.7631,4.6906,4.6631,4.5906,4.5596,4.5561,4.4872,4.4527,4.4492,4.3888,4.3577,4.3577,4.3526,0.0,4.3526,4.3577,4.3561,4.3526,4.3526,4.3577,4.3577,4.3611,4.3577,4.3561,4.3577,4.3476,4.3408,4.3323,4.3289,4.3357,4.3134,4.2927,4.2808,4.2652,4.2867,4.3504,4.3504,4.3876,4.4553,4.4553,4.4248,4.3538,4.3436,4.3064,4.2388,4.1035,4.0257,4.0121,3.8836,3.7368,3.5857,0.0,0.0,0.0,0.0,0.0,0.0,0.0,0.0,0.0,0.0,0.0,0.0,0.0,0.0,0.0,3.576,0.0,3.7126,3.7142,0.0,0.0,0.0,3.9698,4.0466,4.1174,4.1787,4.2205,0.0,0.0,4.4385,4.5154,4.5378,4.4941,4.5223,4.5469,4.5533,4.6653,4.7485,4.7453,4.8102,4.8519,4.8391,4.8537,4.8651,4.8763,4.8957,4.8691,4.8546,4.8651,4.882,4.8546,4.878,4.886,4.8925,4.8731,4.822,4.5694,4.5241,4.5403,4.605,4.6633,4.7216,5.1563,5.139,5.1011,4.9562,4.7458,4.7251,4.7148,4.7148,4.6975,4.6906,4.6906,4.67,4.6631,4.6631,4.6631,4.6631,4.6631,4.6631,4.6631,4.6631,4.6631,4.6631,4.6631,4.6631,4.6631,4.6631,4.6631,4.6665,4.6576,4.6323,4.6268,4.6412,4.6022,4.5082,4.3663,4.3328,4.3538,4.4282,4.4316,4.4384,4.4553,4.4553,4.4485,4.4316,4.3741,4.3335,4.3132,4.2252,4.1508,4.0933,4.0054,3.914,3.8227,3.7557,0.0,0.0,0.0,0.0,0.0,0.0,0.0,0.0,0.0,3.3416,3.4693,0.0,3.5272,0.0,3.7936,3.8788,3.8901,3.9412,0.0,0.0,4.1179,4.1725,4.243,4.3135,4.3616,4.3776,4.4934,4.5837,4.6099,4.7226,4.7967,4.7884,4.7348,4.7101,4.7645,4.8111,4.8441,4.8295,4.8675,4.8812,4.8771,4.8812,4.899,4.903,4.8885,4.878,4.8739,4.8593,4.8519,4.8445,4.8519,4.8593,4.8739,4.878,4.8691,4.8084,4.8026,4.7987,4.8006,4.8135,4.8329,5.2735,5.2701,5.2356,5.1252,4.9735,4.9735,4.9528,4.9217,4.8872,4.8528,4.8183,4.7872,4.77,4.77,4.77,4.77,4.77,4.77,4.77,4.77,4.77,4.77,4.77,4.77,4.77,4.77,4.77,4.77,4.7644,4.7329,4.7307,4.7511,4.702,4.6293,4.5329,4.5038,4.5185,4.5648,4.5625,4.5568,4.5568,4.5568,4.5399,4.5094,4.4654,4.4282,4.3944,4.32,4.2625,4.2219,4.1474,4.073,4.002,3.953,3.9109,0.0,0.0,0.0,0.0,0.0,0.0,0.0,0.0,0.0,0.0,0.0,3.7446,3.8545,3.9735,4.0485,4.0688,4.1394,4.2104,4.2687,4.2976,4.3229,4.3746,4.4677,4.5218,4.5181,4.6609,4.7619,4.7541,4.8256,4.9014,4.9305,4.8941,4.8643,4.8771,4.8997,4.9222,4.9222,4.9628,4.9969,4.9821,4.9895,4.9969,4.9969,4.9895,4.9747,4.9705,4.963,4.948,4.9405,4.948,4.948,4.9555,4.9673,4.9821,4.9854,4.9928,4.9669,4.9014,4.9111,4.9337,5.3632,5.3494,5.2804,5.2528,5.2494,5.2494,5.2046,5.1218,5.0562,4.9838,4.9079,4.8424,4.8079,4.801,4.801,4.801,4.801,4.801,4.801,4.801,4.801,4.801,4.801,4.801,4.801,4.801,4.801,4.801,4.801,4.7638,4.7581,4.7729,4.7325,4.7149,4.7291,4.7115,4.7048,4.6961,4.6844,4.6786,4.6786,4.6786,4.6481,4.5906,4.5838,4.5534,4.4857,4.4113,4.3673,4.3572,4.2861,4.2083,4.1373,4.1339,4.1017,0.0,4.0187,0.0,0.0,0.0,0.0,0.0,0.0,0.0,0.0,3.8965,4.0065,4.0776,4.1397,4.198,4.2527,4.3039,4.3778,4.4683,4.4645,4.4641,4.5069,4.6132,4.6802,4.6589,4.8063,4.8941,4.8615,4.9006,4.9475,4.995,5.0122,4.9928,4.9442,4.9692,5.0005,5.0154,5.0778,5.093,5.1038,5.1102,5.1102,5.1135,5.107,5.1092,5.0832,5.0832,5.0788,5.0634,5.0647,5.0755,5.0666,5.094,5.1059,5.0876,5.0995,5.0714,4.9701,4.9766,5.0154,5.4839,5.4287,5.4149,5.408,5.408,5.408,5.3287,5.2011,5.1873,5.139,5.0666,5.0528,5.0149,4.9597,4.9562,4.9562,4.9562,4.9562,4.9562,4.9562,4.9562,4.9562,4.9597,4.9562,4.9562,4.9562,4.9597,4.9562,4.9562,4.9238,4.9061,4.912,4.8761,4.864,4.8761,0.0,0.0,0.0,4.6786,4.6786,4.6786,4.6786,4.6718,4.6583,4.6583,0.0,4.6346,4.5669,4.4993,4.4384,4.3639,0.0,0.0,0.0,0.0,0.0,0.0,0.0,0.0,0.0,0.0,0.0,4.2064,4.1776,4.0124,4.0981,4.1981,4.2623,4.3427,4.4041,4.4301,4.443,4.5012,4.6241,4.6265,4.6647,4.7916,4.8192,4.8207,4.8248,4.9061,4.965,4.9566,5.0241,5.0811,5.0865,5.0973,5.094,5.0811,5.0876,5.0898,5.0811,5.094,5.1048,5.1199,5.1232,5.1329,5.1199,5.1048,5.1005,5.0993,5.0807,5.0698,5.0653,5.0666,5.0775,5.0852,5.0896,5.1145,5.1124,5.1199,5.1027,5.0618,5.0682,5.0779,5.5977,5.5598,5.5219,5.5046,0.0,5.4667,5.408,5.3322,5.2942,5.239,5.1666,5.1666,5.1459,5.1114,5.1114,5.0907,5.0562,5.0562,5.0355,5.0011,5.0011,5.0011,5.0011,5.0011,5.0011,5.0011,5.0011,5.0011,5.0011,4.9683,4.9471,4.9471,4.9168,4.908,4.9107,4.908,4.8612,4.7868,4.7868,4.7868,4.7868,4.7868,4.7699,4.7394,4.7361,0.0,0.0,0.0,0.0,0.0,0.0,0.0,0.0,4.4519,0.0,4.4519,4.4463,4.4293,4.3914,4.4045,4.3943,4.3483,4.4205,4.4075,4.2556,4.3106,4.3588,4.4008,4.5043,4.5688,4.5721,4.6302,4.7012,4.769,4.7501,4.7822,4.8756,4.8987,4.9032,4.9319,4.9973,5.0392,5.0273,5.1113,5.1577,5.1565,5.1932,5.2203,5.2171,5.162,5.1297,5.1468,5.1533,5.1662,5.2171,5.2236,5.2236,5.2236,5.2159,5.2081,5.2081,5.1926,5.177,5.177,5.177,5.177,5.177,5.1926,5.2081,5.2081,5.2159,5.2236,5.2081,5.1823,5.1533,5.6909,5.6802,5.6115,5.5805,5.577,5.5012,5.4632,5.446,0.0,0.0,0.0,5.2425,5.2356,5.2218,5.2218,5.1873,5.1321,5.1321,5.0976,5.039,5.039,5.039,5.039,5.039,5.039,5.039,5.039,5.0331,5.0331,5.0035,4.9881,4.982,4.9514,4.939,4.939,4.939,4.939,4.939,4.9255,4.9187,4.9187,4.9187,4.8849,4.8105,4.8105,4.7834,4.7225,4.7056,4.6989,4.6989,4.6853,4.6786,4.6786,4.6786,4.6786,4.6786,4.6786,4.6701,4.6535,4.63,4.6121,4.5963,4.6185,4.595,4.5008,4.5206,4.5403,4.5532,4.6601,4.7179,4.7103,4.7999,4.8844,4.8973,4.8605,4.8743,4.9272,4.9608,4.9876,5.0188,5.0855,5.1274,5.1128,5.1811,5.232,5.2262,5.2805,5.3304,5.3175,5.2333,5.1847,5.23,5.2398,5.2624,5.311,5.324,5.3304,5.3207,5.324,5.3304,5.3258,5.3147,5.3068,5.2971,5.3068,5.2924,5.2877,5.2971,5.3258,5.3068,5.3147,5.3304,5.3272,5.2948,5.2592,5.7423,5.6932,5.6733,5.6698,5.6725,5.5835,5.5081,5.4494,5.4391,5.3942,5.3253,5.3218,5.2839,5.2218,5.2218,5.2183,5.2046,5.2046,5.2011,5.1908,5.1908,5.1908,5.1908,5.1908,5.1908,5.1908,5.1787,5.176,5.1665,5.1356,5.123,5.1167,5.0977,5.0879,5.0913,5.0913,5.0913,5.0913,5.027,4.9932,4.9932,4.9932,4.9593,4.8883,4.8849,4.8815,4.868,4.8105,4.7767,4.7767,4.7158,4.6786,4.6786,4.6853,4.6786,4.6786,4.6786,4.6937,4.7239,4.7464,4.7835,4.8426,4.8512,4.7993,4.673,4.7184,4.7799,4.835,4.8544,4.8706,4.8666,4.886,4.9281,4.9798,4.9895,5.0122,5.0778,5.0747,5.0916,5.1508,5.1701,5.2101,5.2474,5.2889,5.3142,5.3096,5.3323,5.3402,5.3434,5.3175,5.3045,5.3142,5.3175,5.3207,5.3434,5.3337,5.3434,5.3304,5.3402,5.3499,5.3499,5.342,5.342,5.3291,5.3388,5.3355,5.3244,5.3226,5.3355,5.342,5.342,5.3466,5.3499,5.3725,5.3855,5.8524,5.821,5.7763,5.7559,5.7455,5.6564,5.5805,5.5115,5.5115,5.4667,5.4046,5.4011,5.3804,5.3494,5.346,5.3253,5.2873,5.2873,5.2632,5.2218,5.2218,5.2218,5.2218,5.2218,5.2157,5.2096,5.2035,5.1912,5.185,5.16,5.1507,5.1473,5.1282,5.1217,5.1217,5.1217,5.142,5.1758,5.1082,5.071,5.071,5.071,5.0541,5.0202,5.0202,5.0202,5.0202,4.9898,4.9695,4.9695,4.9357,4.9187,4.9187,4.9187,4.9187,4.9187,4.9187,4.926,4.9472,4.9259,4.9052,4.9037,4.9386,4.9354,4.8706,4.8576,4.8706,4.8997,4.9354,4.9539,4.9466,4.9821,5.0338,5.1016,5.1037,5.1327,5.2126,5.2178,5.223,5.2598,5.2663,5.2792,5.3115,5.3582,5.392,5.392,5.4179,5.4438,5.4438,5.4438,5.4308,5.3984,5.392,5.4082,5.4373,5.447,5.447,5.447,5.447,5.4438,5.4438,5.4438,5.4438,5.447,5.4438,5.447,5.4438,5.447,5.447,5.447,5.447,5.447,5.4503,5.4762,5.4794,5.9351,5.9383,5.8695,5.8215,5.7874,5.7354,5.6664,5.5908,5.5939,5.5563,5.5046,5.4701,5.4494,5.4494,5.4494,5.4184,5.3701,5.3667,5.3322,5.277,5.2735,5.2735,5.2735,5.2674,5.2612,5.2489,5.2426,5.2301,5.2175,5.1983,5.1919,5.1953,5.179,5.1725,5.1725,5.1725,5.2029,5.2503,5.2029,5.1657,5.1488,5.1454,5.1386,5.1217,5.1217,5.1217,5.1217,5.1217,5.1217,5.1217,5.1217,5.1217,5.1217,5.1217,5.1217,5.1217,5.1217,5.122,5.1193,5.0724,5.0265,4.9815,5.026,5.0574,5.0596,5.0251,4.9839,4.9645,5.0196,5.051,5.0532,5.1037,5.1682,5.2165,5.2073,5.2313,5.3129,5.3147,5.3244,5.342,5.3563,5.3596,5.3823,5.4276,5.46,5.4697,5.5086,5.5377,5.5409,5.5409,5.515,5.4826,5.4632,5.4794,5.5312,5.5345,5.5345,5.5409,5.5345,5.528,5.528,5.5345,5.5377,5.5312,5.5345,5.528,5.5377,5.5345,5.5312,5.5247,5.5247,5.5312,5.528,5.5312,5.5377,5.9652,5.9683,5.9349,5.8665,5.7943,5.8074,5.7524,5.6736,5.6798,5.6764,5.6391,5.5115,5.4563,5.4494,5.4563,5.4494,5.4391,5.4391,5.4322,5.4253,5.4287,5.4287,5.4155,5.4029,5.4033,5.3901,5.3608,5.3443,5.3377,5.3347,5.3281,5.3315,5.3281,5.3247,5.3281,5.3281,5.3315,5.3382,5.3315,5.2942,5.2266,5.2198,5.1894,5.1251,5.1251,5.1217,5.1319,5.1217,5.1251,5.1217,5.1285,5.1251,5.1285,5.1251,5.1251,5.1319,5.1285,5.1194,5.1254,5.1493,5.168,5.1891,5.1912,5.2081,5.2316,5.2617,5.2333,5.1426,5.1588,5.1944,5.2041,5.2547,5.2967,5.3096,5.3129,5.3193,5.3323,5.3226,5.3563,5.4244,5.4308,5.4535,5.4956,5.515,5.5247,5.5215,5.5312,5.5409,5.5409,5.5409,5.5409,5.5312,5.5312,5.5312,5.5409,5.5409,5.5409,5.5409,5.5409,5.5409,5.5409,5.5409,5.5409,5.5409,5.5409,5.5409,5.5409,5.5409,5.5409,5.5409,5.5409,5.5409,5.5409,5.5409,5.5409,5.9652,5.9652,5.952,5.9212,5.8801,5.8801,5.8285,5.7495,5.7492,5.7285,5.6771,5.615,5.5874,5.5839,5.5391,5.515,5.515,5.4701,5.4494,5.4494,5.4494,5.4431,5.4303,5.4205,5.411,5.3915,5.3783,5.3651,5.3618,5.3518,5.3518,5.3551,5.3923,5.416,5.416,5.46,5.4803,5.4803,5.4837,5.4668,5.4262,5.345,5.2875,5.2604,5.257,5.257,5.257,5.257,5.257,5.2604,5.2976,5.3213,5.3213,5.3619,5.389,5.3856,5.3651,5.3265,5.2844,5.295,5.3019,5.2851,5.2851,5.2935,5.3036,5.3147,5.3045,5.2624,5.2721,5.2851,5.2883,5.3142,5.3466,5.3855,5.3952,5.4114,5.4503,5.4535,5.4697,5.4956,5.4988,5.5086,5.5345,5.5409,5.5409,5.5409,5.5409,5.5409,5.5409,5.5409,5.5409,5.5409,5.5409,5.5409,5.5409,5.5409,5.5409,5.5409,5.5409,5.5409,5.5409,5.5409,5.5409,5.5409,5.5409,5.5409,5.5409,5.5409,5.5409,5.5409,5.5409,5.5409,5.5409,5.5409,5.5409,5.9652,5.9652,5.9652,5.952,5.9386,5.9386,5.894,5.8321,5.8287,5.7976,5.7426,5.7391,5.7391,5.7253,5.6391,5.5943,5.5874,5.5357,5.515,5.5115,5.5051,5.4987,5.4857,5.4727,5.4529,5.4329,5.4296,5.4228,5.4093,5.4126,5.4093,5.4194,5.4634,5.4905,5.4938,5.548,5.5716,5.5716,5.5716,5.5716,5.5547,5.4668,5.4093,5.4126,5.4126,5.4093,5.4126,5.4126,5.4126,5.4126,5.4634,5.4905,5.4938,5.5412,5.5646,5.5471,5.5185,5.4642,5.3967,5.3847,5.3681,5.3596,5.3628,5.3646,5.3696,5.3808,5.3808,5.3728,5.3808,5.3887,5.3628,5.379,5.4146,5.46,5.4665,5.4924,5.5312,5.5409,5.5345,5.5409,5.5345,5.5409,5.5409,5.5409,5.5409,5.5409,5.5409,5.5409,5.5409,5.5409,5.5409,5.5409,5.5409,5.5409,5.5409,5.5409,5.5409,5.5409,5.5409,5.5409,5.5409,5.5409,5.5409,5.5409,5.5409,5.5409,5.5409,5.5409,5.5409,5.5409,5.5409,5.5409,5.5409,5.5409,5.5409,5.9779,5.9779,5.9779,5.9683,5.9621,5.9554,5.9453,5.9113,5.9147,5.9045,5.8806,5.884,5.8875,5.8737,5.7391,5.6736,5.6736,5.6633,5.6564,5.6498,5.6366,5.6368,5.6402,5.6099,5.5859,5.562,5.5448,5.5446,5.5513,5.5547,5.5615,5.5581,5.5615,5.5649,5.5683,5.5784,5.575,5.5886,5.5886,5.5784,5.5784,5.5683,5.5615,5.5615,5.5581,5.5513,5.5547,5.5581,5.5581,5.5615,5.5615,5.5683,5.5683,5.575,5.5606,5.5252,5.4782,5.4411,5.3989,5.3669,5.3693,5.4211,5.4341,5.4439,5.4645,5.4955,5.4955,5.4755,5.4987,5.4956,5.4503,5.4762,5.515,5.5247,5.5312,5.5345,5.5377,5.5409,5.5409,5.5409,5.5409,5.5409,5.5409,5.5409,5.5409,5.5409,5.5409,5.5409,5.5409,5.5409,5.5409,5.5409,5.5409,5.5409,5.5409,5.5409,5.5409,5.5409,5.5409,5.5409,5.5409,5.5409,5.5409,5.5409,5.5409,5.5409,5.5409,5.5409,5.5409,5.5409,5.5409,5.5409,5.5409,5.5409,5.5409,5.9779,5.9779,5.9718,5.9652,5.9621,5.9453,5.9319,5.9081,5.9081,5.9115,5.9012,5.9012,5.9012,5.8978,5.8461,5.7943,5.7495,5.6879,5.6606,5.6572,5.6371,5.6235,5.6201,5.6064,5.5926,5.5786,5.5716,5.5716,5.5716,5.5716,5.5716,5.5818,5.619,5.6427,5.6494,5.69,5.7103,5.7103,5.7103,5.7103,5.707,5.7103,5.7103,5.7036,5.619,5.5716,5.5716,5.5716,5.5716,5.5716,5.6156,5.6427,5.6461,5.6617,5.6519,5.6112,5.5765,5.53,5.4872,5.4745,5.4762,5.4988,5.5053,5.5037,5.5181,5.5328,5.5328,5.5246,5.5246,5.5247,5.5183,5.528,5.5409,5.5409,5.5409,5.5409,5.5409,5.5409,5.5409,5.5409,5.5409,5.5409,5.5409,5.5409,5.5409,5.5409,5.5409,5.5409,5.5409,5.5409,5.5409,5.5409,5.5409,5.5409,5.5409,5.5409,5.5409,5.5409,5.5409,5.5409,5.5409,5.5409,5.5409,5.5409,5.5409,5.5409,5.5409,5.5409,5.5409,5.5409,5.5409,5.5409,5.5409,5.5409,5.5409,5.9748,5.9814,5.9652,5.9586,5.9652,5.9453,5.9386,5.9217,5.9149,5.9081,5.9081,5.9012,5.8944,5.8978,5.8944,5.8634,5.805,5.7466,5.7158,5.709,5.6953,5.6814,5.6709,5.6639,5.6568,5.6427,5.6427,5.6427,5.6427,5.6427,5.6427,5.6494,5.6934,5.7171,5.7239,5.7645,5.7881,5.7881,5.7881,5.7881,5.7881,5.7881,5.7881,5.7746,5.6934,5.6427,5.6427,5.6427,5.6427,5.6494,5.6757,5.692,5.6841,5.7096,5.7063,5.6525,5.6211,5.5927,5.5491,5.5409,5.5328,5.5246,5.5328,5.536,5.5246,5.5328,5.5409,5.5409,5.5409,5.5328,5.5246,5.5164,5.5246,5.5328,5.5409,5.5409,5.5409,5.5409,5.5409,5.5409,5.5409,5.5409,5.5409,5.5409,5.5409,5.5409,5.5409,5.5409,5.5409,5.5409,5.5409,5.5409,5.5409,5.5409,5.5409,5.5409,5.5409,5.5409,5.5409,5.5409,5.5409,5.5409,5.5409,5.5409,5.5409,5.5409,5.5409,5.5409,5.5409,5.5409,5.5409,5.5409,5.5409,5.5409,5.5539,5.9753,5.9884,5.9687,5.9753,5.9748,5.9586,5.9652,5.9617,5.9351,5.9251,5.9183,5.9081,5.8909,5.884,5.8771,5.8667,5.8458,5.8425,5.8391,5.8251,5.8072,5.8001,5.8001,5.7789,5.7717,5.7645,5.7814,5.778,5.7679,5.7645,5.7679,5.7814,5.7712,5.7746,5.7848,5.7848,5.7881,5.7881,5.7881,5.7881,5.7881,5.7881,5.7881,5.7881,5.7746,5.7712,5.778,5.778,5.7679,5.7673,5.7487,5.7105,5.6887,5.703,5.6911,5.6323,5.6086,5.5846,5.5491,5.5409,5.5246,5.5081,5.5164,5.5246,5.5081,5.5164,5.5328,5.5328,5.5246,5.5164,5.4915,5.4864,5.4915,5.5246,5.5246,5.5246,5.5328,5.5409,5.5409,5.5409,5.5409,5.5409,5.5409,5.5409,5.5409,5.5409,5.5409,5.5409,5.5409,5.5409,5.5409,5.5409,5.5409,5.5409,5.5409,5.5409,5.5409,5.5409,5.5409,5.5409,5.5409,5.5409,5.5409,5.5409,5.5409,5.5409,5.5409,5.5409,5.5409,5.5409,5.5409,5.5409,5.5442,5.5507,5.5863,6.1173,6.0618,6.0552,6.0237,5.9783,5.952,5.9453,5.9453,5.9217,5.9047,5.8978,5.8909,5.8771,5.8631,5.8561,5.8524,5.8348,5.8348,5.8348,5.8311,5.8099,5.8027,5.7954,5.7954,5.7881,5.7881,5.7881,5.7881,5.7881,5.7881,5.7881,5.7881,5.7881,5.7881,5.7881,5.7881,5.7881,5.7881,5.7881,5.7881,5.7881,5.7881,5.7881,5.7881,5.7881,5.7881,5.7881,5.7881,5.7735,5.7514,5.7662,5.7514,5.7139,5.668,5.6369,5.6086,5.5766,5.5572,5.5409,5.5442,5.5392,5.5278,5.536,5.5328,5.5164,5.5063,5.5063,5.498,5.4749,5.4497,5.4749,5.4781,5.4761,5.4528,5.4497,5.4749,5.4998,5.5246,5.5409,5.5409,5.5409,5.5409,5.5409,5.5409,5.5409,5.5409,5.5409,5.5409,5.5409,5.5409,5.5409,5.5409,5.5409,5.5409,5.5409,5.5409,5.5409,5.5409,5.5409,5.5409,5.5409,5.5409,5.5409,5.5409,5.5409,5.5409,5.5409,5.5409,5.5409,5.5409,5.5409,5.5442,5.5474,5.5766,5.6154,6.1943,6.1457,6.1355,6.1075,6.0688,6.0389,6.0286,6.0286,6.0013,5.9805,5.977,5.9558,5.9382,5.9238,5.9238,5.9094,5.8914,5.8948,5.8914,5.8739,5.8124,5.7881,5.7881,5.7881,5.7881,5.7881,5.7881,5.7881,5.7881,5.7881,5.7881,5.7881,5.7881,5.7881,5.7881,5.7881,5.7881,5.7881,5.7881,5.8017,5.8254,5.8321,5.8423,5.866,5.8727,5.8653,5.8504,5.8504,5.816,5.7532,5.7674,5.7716,5.7442,5.7033,5.6792,5.6629,5.6384,5.6251,5.6219,5.6284,5.6053,5.577,5.5886,5.5718,5.5517,5.5261,5.5378,5.5464,5.5325,5.5121,5.5325,5.5293,5.5035,5.4423,5.4528,5.4729,5.4998,5.5081,5.5246,5.5328,5.5409,5.5409,5.5409,5.5409,5.5409,5.5409,5.5409,5.5409,5.5409,5.5409,5.5442,5.5442,5.5409,5.5409,5.5409,5.5409,5.5409,5.5409,5.5409,5.5409,5.5409,5.5409,5.5409,5.5409,5.5409,5.5409,5.5409,5.5409,5.5409,5.5409,5.5442,5.5604,5.5766,5.6089,5.6543,6.216,6.2261,6.209,6.202,6.2051,6.1812,6.1674,6.1812,6.1397,6.1045,6.1008,6.0579,6.0427,6.0347,6.0177,6.0028,6.0047,5.9911,5.9844,5.9573,5.8829,5.822,5.8254,5.8287,5.8287,5.822,5.8186,5.8152,5.8254,5.8254,5.8017,5.8186,5.822,5.8051,5.822,5.8051,5.8186,5.822,5.8152,5.849,5.9032,5.9066,5.9336,5.9945,5.9869,5.9684,5.9376,5.9187,5.8686,5.7649,5.7664,5.7672,5.7688,5.7934,5.7804,5.7469,5.7547,5.745,5.7514,5.7236,5.7013,5.6288,5.6463,5.6511,5.5847,5.5873,5.6081,5.6431,5.6288,5.6296,5.6031,5.6088,5.5732,5.5158,5.5225,5.5416,5.544,5.5256,5.555,5.5651,5.5571,5.5571,5.5733,5.5733,5.5701,5.5701,5.5766,5.5798,5.5798,5.5895,5.5668,5.5701,5.5928,5.5992,5.6187,5.6187,5.6219,5.6219,5.6057,5.583,5.5571,5.5474,5.5409,5.5409,5.5507,5.5474,5.5409,5.5409,5.5409,5.5409,5.5571,5.583,5.6219,5.6575,5.7158,6.3588,6.303,6.3063,6.2748,6.2191,6.1952,6.1745,6.1535,6.1286,6.1033,6.0671,6.0563,6.0442,6.019,6.0224,6.019,6.0182,6.0182,6.008,6.0047,5.9776,5.9539,5.9539,5.9505,5.9471,5.9438,5.937,5.9539,5.9505,5.9404,5.9438,5.9505,5.9404,5.9438,5.9505,5.9438,5.9505,5.9505,5.9505,5.9539,5.9742,5.981,5.9877,6.0047,5.9876,5.9644,5.9455,5.8866,5.8573,5.8449,5.7871,5.7738,5.8032,5.7981,5.7878,5.7793,5.7644,5.7409,5.7184,5.7098,5.6893,5.6686,5.6846,5.6861,5.7034,5.6423,5.6366,5.6246,5.5709,5.5499,5.5649,5.5952,5.6309,5.6742,5.6367,5.6112,5.6392,5.6743,5.6912,5.6996,5.6931,5.6899,5.6867,5.6867,5.6867,5.6899,5.6867,5.6867,5.6705,5.6737,5.664,5.6899,5.7093,5.7061,5.7061,5.7061,5.7093,5.7158,5.6931,5.651,5.6057,5.5571,5.5474,5.5409,5.5798,5.5863,5.5604,5.5442,5.5442,5.5733,5.5992,5.6446,5.6802,5.7191,5.7871,6.4253,6.3625,6.3764,6.338,6.2788,6.2541,6.2361,6.2144,6.185,6.1627,6.1367,6.1291,6.1138,6.1061,6.1061,6.1061,6.1061,6.1061,6.1095,6.1061,6.1061,6.0689,6.025,6.008,6.008,6.008,6.0114,6.008,6.0047,6.008,6.008,6.0047,6.008,6.008,6.0013,6.008,6.0114,6.008,6.0114,6.014,6.029,6.0324,6.0404,6.0382,6.0244,6.0084,5.9794,5.9216,5.8834,5.8689,5.8287,5.8215,5.8763,5.8657,5.8486,5.8486,5.8453,5.8313,5.802,5.7845,5.7756,5.7579,5.7401,5.737,5.7579,5.7222,5.6769,5.7286,5.6769,5.6586,5.6463,5.6586,5.6951,5.7522,5.7222,5.6789,5.6901,5.7088,5.7238,5.7324,5.7494,5.7579,5.7579,5.7579,5.7579,5.7514,5.7417,5.745,5.745,5.7579,5.7644,5.7741,5.7741,5.7611,5.7547,5.7547,5.7527,5.7624,5.7506,5.7119,5.6815,5.6168,5.6219,5.6251,5.6284,5.6251,5.6154,5.6154,5.6446,5.6705,5.6867,5.7093,5.7514,5.7806,5.8518,6.4182,6.4039,6.4039,6.3858,6.3531,6.3343,6.3131,6.3117,6.2711,6.2557,6.2479,6.2425,6.2178,6.2415,6.211,6.2313,6.2313,6.2144,6.2245,6.2212,6.211,6.1637,6.0689,6.0622,6.0588,6.0554,6.0385,6.0452,6.0588,6.0486,6.0419,6.0588,6.052,6.0419,6.0588,6.0486,6.0351,6.052,6.0511,6.055,6.0717,6.0705,6.0665,6.0787,6.0721,6.0538,6.0181,5.9816,5.9415,5.8777,5.8745,5.9036,5.9555,5.9652,5.9652,5.9555,5.949,5.9434,5.9476,5.8959,5.8876,5.8722,5.8085,5.784,5.8237,5.799,5.7898,5.8446,5.8792,5.8145,5.7837,5.7307,5.7496,5.8082,5.79,5.7579,5.7204,5.7085,5.7117,5.7172,5.7582,5.7806,5.7806,5.7773,5.7871,5.8356,5.8173,5.8119,5.8033,5.7978,5.8119,5.8194,5.813,5.7882,5.7935,5.7935,5.7947,5.7958,5.7795,5.7634,5.7592,5.7291,5.7365,5.7352,5.6996,5.6996,5.7158,5.7288,5.7417,5.745,5.745,5.7871,5.8389,5.8583,5.9069,6.3712,6.3747,6.3747,6.36,6.3377,6.3302,6.3076,6.2881,6.2727,6.2649,6.2459,6.2381,6.2415,6.2415,6.2415,6.2415,6.2415,6.2415,6.2415,6.2415,6.2415,6.2279,6.1873,6.1772,6.1839,6.1806,6.1839,6.1873,6.1839,6.1704,6.1873,6.1839,6.167,6.1873,6.1806,6.167,6.1873,6.1795,6.1492,6.1254,6.1227,6.0968,6.087,6.0903,6.0685,6.0292,5.9979,5.9804,5.9619,5.9522,5.949,5.9587,5.9684,5.9716,5.9749,5.9781,5.9781,5.9572,5.9306,5.9223,5.9004,5.9132,5.8924,5.8882,5.9241,5.8978,5.8582,5.8427,5.8026,5.8184,5.8027,5.7965,5.815,5.8642,5.8882,5.8844,5.8588,5.8492,5.8574,5.8871,5.8959,5.9231,5.9198,5.9014,5.9046,5.9111,5.9024,5.8848,5.8606,5.8389,5.8382,5.8517,5.8549,5.8365,5.8365,5.8333,5.8245,5.8157,5.8044,5.7988,5.7948,5.79,5.7817,5.7667,5.7514,5.7644,5.8,5.7806,5.7838,5.7903,5.8065,5.8453,5.8842,5.9166,5.936,6.3491,6.3302,6.3302,6.3152,6.2923,6.2847,6.277,6.2537,6.2537,6.2459,6.2415,6.2415,6.2415,6.2415,6.2415,6.2415,6.2415,6.2415,6.2415,6.2415,6.2415,6.2415,6.2415,6.2415,6.2415,6.2415,6.2381,6.2415,6.2415,6.2415,6.2313,6.2415,6.2415,6.2313,6.2302,6.2223,6.1997,6.1917,6.1628,6.1268,6.1053,6.0853,6.0515,6.043,6.0206,5.9892,5.9716,5.9716,5.9911,6.0137,6.0235,6.004,5.9749,5.9749,5.9878,6.017,6.0235,6.034,6.0232,6.0147,5.9996,5.9964,5.9596,5.9781,6.0056,5.9873,5.9873,5.9749,5.9749,5.9468,5.9058,5.8717,5.8899,5.8855,5.8824,5.8701,5.8733,5.9004,5.9274,5.9452,5.9266,5.9266,5.9331,5.9241,5.903,5.8716,5.8927,5.887,5.8659,5.8414,5.8568,5.8627,5.8812,5.8844,5.8722,5.869,5.8505,5.8382,5.8137,5.8169,5.8137,5.8032,5.798,5.7964,5.8011,5.8497,5.8755,5.8497,5.8453,5.8777,5.9004,5.9069,5.9198,5.9337,5.9467,6.3227,6.2923,6.2923,6.2693,6.2459,6.2415,6.2493,6.2415,6.2415,6.2381,6.2415,6.2415,6.2415,6.2415,6.2415,6.2415,6.2448,6.2618,6.2685,6.2685,6.2922,6.2956,6.2956,6.2956,6.2956,6.2719,6.2482,6.2415,6.2415,6.2415,6.2415,6.2415,6.2302,6.2223,6.2144,6.187,6.1628,6.1547,6.1185,6.0769,6.0548,6.0378,6.0185,6.0151,6.0291,6.0323,6.0267,6.0267,6.0364,6.0882,6.0947,6.0623,6.0235,6.0073,6.0267,6.0915,6.0947,6.1141,6.1342,6.1294,6.1142,6.1177,6.0456,6.0361,6.0895,6.0799,6.0828,6.1078,6.1014,6.0668,6.0559,5.9693,5.9253,5.909,5.8342,5.8185,5.8527,5.9292,5.9479,5.8972,5.8882,5.8882,5.8792,5.8701,5.8487,5.8303,5.861,5.8824,5.861,5.8303,5.8335,5.8518,5.861,5.861,5.8578,5.8335,5.8211,5.8119,5.8026,5.7933,5.7933,5.7713,5.7645,5.8414,5.8627,5.8838,5.9016,5.8912,5.9065,5.9508,5.9564,5.937,5.9434,5.9596,5.9572,6.2537,6.2459,6.2459,6.2459,6.2415,6.2415,6.2448,6.2415,6.2482,6.2415,6.2415,6.2415,6.2415,6.2448,6.2415,6.2415,6.2685,6.3057,6.3328,6.3429,6.3768,6.4038,6.3971,6.3856,6.3991,6.3869,6.3147,6.2505,6.255,6.2415,6.2572,6.2403,6.2085,6.1958,6.1877,6.1383,6.1302,6.1401,6.0948,6.0693,6.0521,6.0294,6.0314,6.0591,6.0979,6.1239,6.1336,6.14,6.153,6.1627,6.1627,6.1562,6.1498,6.1465,6.153,6.1595,6.166,6.1789,6.2016,6.186,6.1763,6.1607,6.1491,6.1459,6.1644,6.1612,6.1588,6.1151,6.0741,6.0105,5.9787,5.9755,5.9499,5.9439,5.9537,5.9633,5.9759,5.9854,5.9568,5.8717,5.8557,5.8367,5.8369,5.8245,5.8026,5.8026,5.815,5.8427,5.8427,5.8058,5.7778,5.8026,5.8211,5.8211,5.8211,5.784,5.7684,5.759,5.7495,5.7211,5.7211,5.705,5.7306,5.7871,5.8303,5.8423,5.8637,5.8972,5.9062,5.9152,5.9331,5.954,5.9395,5.9158,5.9042,6.2415,6.2415,6.2415,6.2618,6.2922,6.2956,6.3193,6.3429,6.3159,6.299,6.2854,6.2618,6.2618,6.2888,6.2956,6.3159,6.3565,6.3869,6.4072,6.4208,6.4444,6.4613,6.4566,6.4368,6.4252,6.4001,6.3265,6.3012,6.3208,6.3242,6.3026,6.2799,6.2516,6.2516,6.2348,6.2042,6.1772,6.1686,6.1339,6.1108,6.1108,6.0874,6.1044,6.1303,6.1595,6.1789,6.1789,6.1789,6.2016,6.2275,6.2372,6.2566,6.2793,6.2858,6.2761,6.2437,6.2372,6.2566,6.2858,6.2955,6.2894,6.2582,6.2518,6.255,6.2518,6.2488,6.2359,6.2013,6.1534,6.0823,6.0606,6.038,6.0289,6.0007,5.9975,5.991,5.9878,5.9683,5.9277,5.8683,5.8529,5.8467,5.8248,5.8123,5.7746,5.7684,5.7715,5.7965,5.8401,5.806,5.7681,5.7745,5.7966,5.806,5.806,5.7807,5.7648,5.7394,5.7267,5.7105,5.6946,5.7135,5.7078,5.7306,5.7559,5.8091,5.8303,5.8701,5.8701,5.8733,5.9036,5.9158,5.8919,5.8709,5.8746,6.2482,6.2618,6.2618,6.3057,6.3666,6.3734,6.4038,6.441,6.3971,6.3734,6.3666,6.3193,6.3226,6.3599,6.3802,6.4038,6.4613,6.4681,6.4735,6.472,6.4922,6.4922,6.464,6.4439,6.4319,6.4419,6.4029,6.3677,6.35,6.3551,6.3515,6.3126,6.3087,6.3066,6.288,6.2366,6.2418,6.224,6.197,6.1789,6.1821,6.1951,6.2016,6.2081,6.2145,6.234,6.2437,6.2437,6.2663,6.2987,6.3182,6.3376,6.3894,6.4024,6.3732,6.3246,6.3117,6.3473,6.3764,6.3926,6.3576,6.3322,6.3324,6.3357,6.3292,6.3132,6.3068,6.2971,6.2418,6.1901,6.1231,6.1168,6.0917,6.0536,6.0085,5.9793,5.9818,5.978,5.9773,5.9278,5.8949,5.8736,5.8581,5.8425,5.8239,5.8369,5.8431,5.8369,5.8687,5.8306,5.8049,5.7731,5.7797,5.799,5.8021,5.7952,5.7819,5.7881,5.785,5.7752,5.75,5.7408,5.7479,5.7541,5.7797,5.821,5.8373,5.8398,5.8401,5.8464,5.8801,5.8931,5.9033,5.9034,5.9033,6.2753,6.3396,6.3362,6.3802,6.441,6.4478,6.4512,6.4647,6.4546,6.4478,6.4478,6.4343,6.4275,6.4397,6.4431,6.458,6.4735,6.5125,6.5228,6.5042,6.5444,6.5507,6.5326,6.5249,6.5017,6.4829,6.4873,6.4365,6.3769,6.3471,6.3372,6.3231,6.2946,6.2661,6.2835,6.2509,6.188,6.1945,6.1886,6.1886,6.2016,6.2502,6.2696,6.2923,6.3246,6.3538,6.3473,6.3473,6.3635,6.3732,6.3829,6.3926,6.4024,6.4024,6.3991,6.3894,6.3894,6.3926,6.4024,6.4121,6.4153,6.3964,6.3964,6.3962,6.3837,6.342,6.3096,6.2481,6.2048,6.1683,6.1426,6.1122,6.0887,6.0763,6.0546,6.0506,6.0465,6.0197,6.0055,6.0024,5.9703,5.9302,5.9054,5.89,5.8777,5.9042,5.9078,5.9016,5.8923,5.8541,5.8412,5.8221,5.819,5.8257,5.8226,5.8122,5.8215,5.8239,5.8239,5.8239,5.8116,5.8023,5.83,5.843,5.8499,5.819,5.8114,5.8026,5.8027,5.8373,5.8877,5.9159,5.9437,5.9367,5.9301,6.3226,6.3531,6.3971,6.4546,6.5189,6.5222,6.5459,6.5696,6.5392,6.5222,6.5121,6.4749,6.4653,6.4891,6.5178,6.5362,6.5173,6.5373,6.5454,6.5247,6.5492,6.557,6.5359,6.5123,6.4976,6.4976,6.4669,6.4289,6.376,6.3809,6.3932,6.3629,6.348,6.3394,6.3258,6.3112,6.3084,6.3117,6.3084,6.3052,6.3117,6.3344,6.3505,6.3505,6.3862,6.3991,6.4024,6.4024,6.4024,6.4024,6.4024,6.4024,6.4024,6.4056,6.4121,6.4606,6.4574,6.4412,6.4121,6.4412,6.4542,6.4704,6.4802,6.5062,6.4706,6.3921,6.3199,6.2613,6.2073,6.164,6.1361,6.0897,6.0897,6.0824,6.1009,6.0886,6.0886,6.0794,6.064,6.0609,6.0547,6.0055,5.9562,5.9325,5.914,5.9147,5.9185,5.9123,5.8999,5.8777,5.8677,5.8708,5.8708,5.8876,5.8746,5.8547,5.8677,5.8639,5.8639,5.8639,5.867,5.8731,5.8978,5.8916,5.877,5.84,5.7999,5.8164,5.8678,5.8802,5.9086,5.9363,5.9508,5.9687,5.9711,6.3789,6.4106,6.4647,6.529,6.5967,6.5967,6.6271,6.6677,6.612,6.5883,6.5665,6.5127,6.4941,6.5173,6.5588,6.558,6.5359,6.5425,6.5336,6.5246,6.5213,6.5156,6.4885,6.461,6.4518,6.4518,6.4272,6.402,6.4114,6.4175,6.4203,6.3991,6.3891,6.3894,6.3959,6.3894,6.3829,6.3829,6.3829,6.3862,6.3894,6.3926,6.3959,6.3991,6.4024,6.4024,6.4024,6.4024,6.4024,6.4024,6.4283,6.438,6.4347,6.4639,6.4898,6.5254,6.5287,6.5125,6.4963,6.506,6.5254,6.5352,6.5481,6.5413,6.498,6.416,6.3412,6.2685,6.2372,6.1884,6.1471,6.1379,6.1471,6.1502,6.1471,6.1255,6.1101,6.1163,6.1009,6.0732,6.0701,6.0732,6.024,5.9747,5.9501,5.9378,5.9285,5.9255,5.9224,5.9193,5.9316,5.947,5.9602,5.9602,5.9571,5.9378,5.9285,5.9162,5.9162,5.9255,5.9408,5.947,5.9624,5.9439,5.9193,5.9285,5.9285,5.934,5.9321,5.9315,5.9439,5.9494,5.9641,5.9849,6.0055,6.4588,6.5527,6.5595,6.6034,6.6677,6.6745,6.6745,6.6728,6.6491,6.6253,6.5928,6.5547,6.5304,6.5382,6.5326,6.5392,6.5336,6.5425,6.5066,6.4885,6.4669,6.4518,6.4365,6.4179,6.4118,6.4118,6.4024,6.4024,6.4024,6.4118,6.4085,6.3991,6.4024,6.4024,6.4024,6.4024,6.4024,6.4024,6.4024,6.4024,6.4024,6.4024,6.4024,6.4024,6.4024,6.4024,6.4024,6.4088,6.4153,6.4185,6.4671,6.4963,6.5027,6.5384,6.5708,6.5967,6.6031,6.5967,6.6031,6.5967,6.5999,6.5869,6.5801,6.5528,6.5084,6.4214,6.34,6.3008,6.2764,6.2671,6.2579,6.2641,6.2333,6.2271,6.2117,6.1994,6.184,6.1748,6.1532,6.0978,6.0948,6.1225,6.1286,6.0855,6.027,6.0116,6.0055,6.0024,6.0147,6.0178,6.0332,6.0455,6.0486,6.0517,6.0547,6.0393,6.0086,6.0024,6.0055,6.0209,6.0424,6.0424,6.0178,6.024,6.0116,6.0393,6.0455,6.0074,5.9734,5.9756,5.9778,5.9972,6.0126,6.0301,6.0547,6.4681,6.5487,6.5521,6.5861,6.6388,6.6558,6.6473,6.6215,6.6042,6.5867,6.5658,6.5514,6.5213,6.5066,6.4976,6.4793,6.4551,6.4551,6.4458,6.4365,6.4272,6.4179,6.4024,6.4024,6.4024,6.4056,6.4056,6.4024,6.4024,6.4153,6.4056,6.4024,6.4153,6.4024,6.4024,6.4024,6.4024,6.4024,6.4024,6.4024,6.4024,6.4024,6.4024,6.4024,6.4024,6.4024,6.4088,6.4445,6.4574,6.4801,6.5351,6.5578,6.5708,6.6064,6.6388,6.6711,6.6776,6.6938,6.7132,6.7035,6.6938,6.726,6.6924,6.6352,6.5606,6.5176,6.4395,6.3842,6.3441,6.3379,6.2887,6.2794,6.2733,6.2794,6.2825,6.2733,6.2579,6.2562,6.224,6.1779,6.1933,6.2179,6.2179,6.2086,6.144,6.0917,6.0855,6.0794,6.0794,6.0794,6.0794,6.0794,6.0794,6.0794,6.0794,6.0794,6.0794,6.0794,6.0794,6.0794,6.0794,6.0763,6.0609,6.0763,6.0794,6.0701,6.0547,6.0301,6.0209,6.0209,6.0332,6.0486,6.0671,6.0855,6.1071,6.4586,6.5392,6.5246,6.5481,6.5922,6.6129,6.5955,6.5692,6.5603,6.5425,6.5066,6.4976,6.4793,6.4518,6.4518,6.4365,6.4085,6.4118,6.4024,6.4024,6.4024,6.4024,6.4088,6.425,6.4412,6.4347,6.4606,6.4736,6.4801,6.4671,6.4768,6.4768,6.4606,6.4542,6.4024,6.4024,6.4024,6.4024,6.4024,6.4024,6.4024,6.4024,6.4218,6.4283,6.438,6.4606,6.4801,6.5157,6.5319,6.5578,6.5967,6.6355,6.6485,6.6647,6.6971,6.7195,6.7454,6.7648,6.7709,6.7777,6.7715,6.7741,6.726,6.691,6.6586,6.5947,6.4785,6.4351,6.4118,6.3933,6.3379,6.3595,6.3873,6.3996,6.3779,6.3656,6.3533,6.3317,6.2994,6.2641,6.2764,6.2671,6.2641,6.2517,6.2086,6.1409,6.0948,6.0855,6.0794,6.0794,6.0794,6.0794,6.0794,6.0794,6.0794,6.0794,6.0794,6.0794,6.0794,6.0794,6.0794,6.0794,6.0794,6.0794,6.0794,6.0794,6.0701,6.0547,6.0609,6.0701,6.0794,6.0855,6.1059,6.1243,6.1625,6.4351,6.527,6.4885,6.4976,6.5336,6.5425,6.5392,6.5336,6.5156,6.4885,6.4426,6.4272,6.4085,6.4118,6.4085,6.4118,6.4024,6.4024,6.4024,6.4024,6.4024,6.4024,6.4283,6.4574,6.4898,6.5157,6.5416,6.5675,6.5869,6.5708,6.5772,6.5805,6.561,6.5287,6.4185,6.4056,6.4056,6.4056,6.4185,6.425,6.4283,6.4347,6.4639,6.4898,6.5027,6.5254,6.5578,6.5934,6.6064,6.6193,6.6678,6.7001,6.7098,6.7519,6.7709,6.7636,6.7668,6.7631,6.7491,6.7866,6.7935,6.7663,6.7078,6.6691,6.6374,6.5731,6.5077,6.4721,6.4813,6.4875,6.4734,6.4813,6.5018,6.4847,6.4597,6.4364,6.4212,6.4027,6.3734,6.3533,6.3164,6.2887,6.2887,6.2794,6.2517,6.1963,6.1225,6.0978,6.1071,6.0978,6.1071,6.0978,6.0978,6.0794,6.0794,6.0794,6.0794,6.0794,6.0794,6.0794,6.0794,6.0794,6.0794,6.0794,6.0978,6.1132,6.1009,6.0855,6.1163,6.1335,6.1163,6.1225,6.1322,6.166,6.2073,6.3732,6.4458,6.4272,6.4365,6.4551,6.4976,6.5066,6.4669,6.4577,6.4426,6.4179,6.4024,6.4024,6.4024,6.4024,6.4024,6.4024,6.4024,6.4024,6.4024,6.4056,6.4347,6.4639,6.4995,6.5351,6.5708,6.6064,6.6226,6.6031,6.6258,6.6161,6.6096,6.629,6.5869,6.5513,6.5416,6.5416,6.5416,6.5448,6.5416,6.5384,6.5351,6.5481,6.574,6.574,6.5934,6.6258,6.6614,6.6809,6.6873,6.7357,6.7548,6.7479,6.7765,6.7695,6.7491,6.7491,6.7388,6.7317,6.7388,6.7356,6.7181,6.6974,6.6554,6.5561,6.5592,6.5297,6.5218,6.4998,6.5077,6.5344,6.5344,6.539,6.4985,6.4764,6.4734,6.4659,6.4659,6.4457,6.4426,6.421,6.4057,6.4026,6.3626,6.3256,6.3071,6.2487,6.2117,6.2086,6.1717,6.1563,6.1348,6.1225,6.0948,6.0824,6.1101,6.1163,6.1132,6.0978,6.0794,6.0794,6.1009,6.0978,6.1101,6.1286,6.1471,6.1532,6.1656,6.1919,6.1966,6.1981,6.2025,6.2196,6.2472,6.2794,6.3196,6.3707,6.3707,6.3802,6.4118,6.4551,6.4518,6.424,6.4146,6.4085,6.4024,6.4024,6.4024,6.4024,6.4024,6.4024,6.4024,6.4024,6.4024,6.4056,6.4315,6.4606,6.4995,6.5546,6.6129,6.6452,6.6711,6.6873,6.6971,6.6873,6.6906,6.6971,6.6809,6.6906,6.6711,6.6452,6.5999,6.5934,6.5902,6.5967,6.5967,6.6031,6.6161,6.6388,6.6517,6.6614,6.7004,6.7328,6.762,6.7683,6.7709,6.7797,6.7695,6.7491,6.7285,6.7285,6.7109,6.7005,6.7005,6.7005,6.6869,6.6311,6.6764,6.6448,6.5344,6.5266,6.5077,6.4857,6.4967,6.4967,6.5156,6.5266,6.5266,6.4888,6.4888,6.4857,6.5046,6.5016,6.4826,6.4857,6.4857,6.4888,6.4888,6.458,6.4118,6.3995,6.381,6.3441,6.2979,6.2517,6.2148,6.1994,6.1871,6.1748,6.1656,6.1748,6.1717,6.1532,6.1409,6.1286,6.1532,6.1871,6.1625,6.1502,6.1871,6.2179,6.2333,6.2411,6.2779,6.3087,6.3271,6.321,6.3117,6.3148,6.341,6.2678,6.3164,6.3164,6.3484,6.3929,6.4118,6.4024,6.3991,6.3991,6.3991,6.4024,6.4024,6.4024,6.4024,6.4024,6.4024,6.4024,6.4024,6.4121,6.4283,6.4639,6.4995,6.5643,6.642,6.6873,6.7327,6.7618,6.7715,6.8104,6.7845,6.7877,6.8007,6.7813,6.7813,6.7521,6.7068,6.655,6.6582,6.6582,6.6614,6.6614,6.6485,6.6776,6.7035,6.723,6.7555,6.7914,6.8206,6.8172,6.8136,6.8068,6.7797,6.7593,6.742,6.7213,6.7005,6.6691,6.6723,6.6617,6.6617,6.6532,6.6242,6.6519,6.6287,6.5592,6.5046,6.4826,6.4524,6.4412,6.43,6.43,6.4493,6.4826,6.4746,6.4857,6.4967,6.5266,6.5156,6.4998,6.4888,6.4888,6.4888,6.4888,6.4734,6.458,6.4549,6.4334,6.4087,6.3626,6.3164,6.2856,6.2825,6.2702,6.2671,6.261,6.2394,6.2302,6.2117,6.2302,6.2302,6.2548,6.2579,6.2333,6.2271,6.2641,6.2948,6.3256,6.3502,6.3749,6.4026,6.418,6.4039,6.3794,6.3763,6.4026,6.2383,6.3164,6.3164,6.3484,6.3929,6.4024,6.4024,6.4024,6.4024,6.4024,6.4024,6.4024,6.4024,6.4024,6.4024,6.4024,6.4024,6.4088,6.4412,6.4671,6.4995,6.5708,6.6388,6.7003,6.7456,6.7813,6.8072,6.8201,6.8169,6.8201,6.8201,6.8169,6.8201,6.8201,6.8072,6.778,6.7586,6.7456,6.7392,6.7392,6.7424,6.7424,6.7651,6.7748,6.7813,6.8107,6.8236,6.8201,6.8101,6.8,6.7593,6.7213,6.7213,6.6901,6.6691,6.6236,6.6268,6.6512,6.6224,6.6815,6.7067,6.6652,6.6902,6.5978,6.5195,6.4727,6.4616,6.4401,6.4349,6.4327,6.444,6.4605,6.4748,6.4779,6.483,6.4788,6.5091,6.4998,6.4808,6.4888,6.4888,6.4888,6.4888,6.4888,6.4764,6.4857,6.4795,6.4549,6.4272,6.3779,6.3564,6.3533,6.3379,6.3318,6.3041,6.2794,6.2794,6.2764,6.301,6.3102,6.301,6.2979,6.2887,6.3041,6.3349,6.3841,6.4303,6.4426,6.4364,6.4549,6.4672,6.4672,6.4531,6.4518,6.4457,6.1784,6.258,6.2776,6.3293,6.3929,6.4024,6.4024,6.4024,6.4024,6.4024,6.4024,6.4024,6.4024,6.4024,6.4024,6.4024,6.4024,6.4056,6.4347,6.4898,6.5351,6.6129,6.6873,6.7456,6.7813,6.8104,6.8201,6.8201,6.8201,6.8201,6.8201,6.8201,6.8201,6.8201,6.8169,6.8104,6.8136,6.8104,6.8136,6.8201,6.8201,6.8201,6.8201,6.8201,6.8201,6.8201,6.8301,6.8101,6.7899,6.7797,6.7317,6.7005,6.6901,6.6691,6.6839,6.6551,6.6815,6.7174,6.7211,6.7354,6.7402,6.7229,6.7175,6.6334,6.5718,6.5246,6.4988,6.4789,6.4728,6.4668,6.4866,6.495,6.4782,6.4698,6.4714,6.4584,6.4687,6.4646,6.4727,6.4918,6.4888,6.4888,6.4888,6.4888,6.4888,6.4888,6.4888,6.4826,6.4672,6.4457,6.4272,6.4241,6.4057,6.3872,6.3595,6.3472,6.3595,6.3718,6.3872,6.3903,6.3626,6.3656,6.381,6.3903,6.4057,6.4457,6.4685,6.4795,6.4795,6.5011,6.5226,6.5288,6.5195,6.4918,6.4857,6.1103,6.1683,6.2184,6.3002,6.3835,6.3802,6.3802,6.3929,6.3897,6.4024,6.4024,6.4024,6.4024,6.4024,6.4024,6.4024,6.4088,6.4185,6.4639,6.5157,6.5902,6.6679,6.7359,6.7845,6.8039,6.8169,6.8201,6.8201,6.8201,6.8201,6.8201,6.8201,6.8201,6.8201,6.8201,6.8201,6.8201,6.8201,6.8201,6.8201,6.8201,6.8201,6.8201,6.8201,6.8201,6.8301,6.8401,6.8301,6.8,6.7797,6.7388,6.7005,6.6955,6.6701,6.7016,6.7225,6.7337,6.7339,6.7464,6.7665,6.7536,6.7373,6.7208,6.6644,6.6265,6.5632,6.5334,6.4985,6.4838,6.4838,6.4925,6.5041,6.4955,6.4925,6.4976,6.494,6.4964,6.4889,6.4799,6.4819,6.4777,6.4777,6.4777,6.4777,6.4888,6.4888,6.4888,6.4888,6.4888,6.4826,6.4795,6.4764,6.4549,6.4364,6.4426,6.4364,6.458,6.4703,6.4672,6.4611,6.4303,6.4487,6.4715,6.4451,6.4126,6.4543,6.4788,6.4992,6.5288,6.5534,6.575,6.5934,6.5811,6.5422,6.5534,6.1103,6.1683,6.2184,6.258,6.2776,6.2808,6.2971,6.3389,6.3389,6.3612,6.3897,6.4024,6.4024,6.4024,6.4024,6.4024,6.4088,6.4509,6.5189,6.5805,6.6517,6.7132,6.778,6.8072,6.8201,6.8201,6.8201,6.8201,6.8201,6.8201,6.8201,6.8201,6.8201,6.8201,6.8201,6.8201,6.8201,6.8201,6.8201,6.8201,6.8201,6.8201,6.8201,6.8201,6.8201,6.8201,6.8201,6.7899,6.7695,6.7388,6.7005,6.6944,6.7313,6.6915,6.6823,6.6989,6.7509,6.7473,6.7384,6.7526,6.7596,6.7433,6.7265,6.7183,6.6793,6.6274,6.5763,6.5321,6.5114,6.5144,6.5144,6.5263,6.5263,6.5291,6.5259,6.5317,6.5343,6.5147,6.488,6.4779,6.4819,6.4758,6.4788,6.4758,6.4888,6.4888,6.4888,6.4918,6.4869,6.4838,6.4808,6.4777,6.4857,6.4795,6.4888,6.4888,6.4888,6.4888,6.4795,6.4826,6.4918,6.4788,6.4626,6.4218,6.4045,6.4554,6.4972,6.5433,6.5729,6.5801,6.6024,6.6155,6.6361,6.6208,6.6405,6.1,6.1277,6.1784,6.2184,6.2383,6.2383,6.258,6.2776,6.2873,6.3164,6.3707,6.3929,6.4024,6.4024,6.4024,6.4056,6.4153,6.4704,6.5351,6.6096,6.6906,6.7521,6.7942,6.8201,6.8201,6.8201,6.8201,6.8201,6.8201,6.8201,6.8201,6.8201,6.8201,6.8201,6.8201,6.8201,6.8201,6.8201,6.8201,6.8201,6.8201,6.8201,6.8201,6.8201,6.8201,6.8201,6.8,6.7695,6.7285,6.6996,6.6551,6.6683,6.69,6.6834,6.6982,6.7301,6.7548,6.7641,6.7372,6.7413,6.7688,6.7484,6.7246,6.7033,6.7033,6.6523,6.6463,6.6131,6.6131,6.6161,6.6131,6.6161,6.6161,6.6222,6.5922,6.5622,6.5588,6.5369,6.5298,6.5437,6.5429,6.5429,6.5315,6.5315,6.5482,6.5482,6.5329,6.5106,6.5075,6.5095,6.4973,6.4881,6.4942,6.5011,6.4888,6.4888,6.4777,6.4777,6.4808,6.4838,6.49,6.4636,6.4357,6.4304,6.4256,6.4563,6.5037,6.5474,6.542,6.5339,6.5849,6.6274,6.6569,6.6777,6.6752,6.0794,6.0897,6.1308,6.1784,6.2184,6.2184,6.2184,6.2284,6.2284,6.258,6.3068,6.3517,6.3802,6.4024,6.4024,6.4088,6.438,6.506,6.5643,6.6355,6.7068,6.7683,6.8039,6.8201,6.8201,6.8201,6.8201,6.8201,6.8201,6.8201,6.8201,6.8201,6.8201,6.8201,6.8201,6.8201,6.8201,6.8201,6.8201,6.8101,6.8101,6.8201,6.8201,6.8201,6.8101,6.8101,6.7866,6.7587,6.6933,6.6614,6.6182,6.6529,6.6848,6.6981,6.7297,6.7549,6.7733,6.801,6.8111,6.7727,6.7698,6.7517,6.7213,6.6999,6.6969,6.6939,6.6909,6.6879,6.6879,6.6879,6.6879,6.6879,6.6879,6.6819,6.6311,6.5982,6.5742,6.5648,6.5676,6.5849,6.5759,6.5875,6.5875,6.5789,6.5936,6.5936,6.5814,6.5511,6.5268,6.5346,6.5338,6.5185,6.5268,6.5136,6.4931,6.4758,6.4677,6.4646,6.4596,6.485,6.4891,6.4637,6.4477,6.4537,6.4661,6.4606,6.4845,6.5203,6.5144,6.5263,6.5922,6.6613,6.6523,6.6794,6.6883,6.0794,6.0794,6.0897,6.1,6.1103,6.1103,6.141,6.1683,6.1784,6.2085,6.2481,6.2678,6.3099,6.4024,6.4024,6.4123,6.4577,6.5384,6.629,6.7035,6.7553,6.7974,6.8169,6.8201,6.8201,6.8201,6.8201,6.8201,6.8201,6.8201,6.8201,6.8201,6.8201,6.8201,6.8201,6.8201,6.8101,6.8101,6.8,6.7899,6.7695,6.7797,6.8201,6.8101,6.7797,6.7459,6.7141,6.6985,6.6635,6.6257,6.616,6.6522,6.695,6.7108,6.7326,6.7481,6.7694,6.7666,6.7668,6.7457,6.7335,6.7335,6.6999,6.6999,6.6999,6.6999,6.6939,6.6939,6.6969,6.6969,6.6939,6.6939,6.6939,6.6939,6.664,6.634,6.6132,6.6042,6.6161,6.6038,6.5796,6.5827,6.5827,6.5827,6.6062,6.6092,6.6122,6.5849,6.5611,6.5637,6.5663,6.548,6.5444,6.5094,6.4657,6.4636,6.4523,6.438,6.4532,6.4836,6.4971,6.4693,6.4696,6.4606,6.4486,6.4511,6.4718,6.5166,6.5647,6.5796,6.6398,6.6941,6.6697,6.6391,6.6293]},{"header":{"parameterUnit":"m.s-1","parameterCategory":1,"la1":31.0,"la2":29.5877,"lo1":-88.7671,"lo2":-86.6584,"dy":0.0162,"dx":0.0185,"nx":115,"ny":88,"refTime":"2023-10-18T06:00:00:Z","depth":0,"parameterNumber":3,"parameterNumberName":"V-component_of_WINDS"},"data":[0.0,0.0,0.0,0.0,0.0,0.0,0.0,0.0,0.0,0.0,0.0,0.0,0.0,0.0,0.0,0.0,0.0,0.0,0.0,0.0,0.0,0.0,0.0,0.0,0.0,0.0,0.0,0.0,0.0,0.0,0.0,0.0,0.0,0.0,0.0,0.0,0.0,0.0,0.0,0.0,0.0,0.0,0.0,0.0,0.0,0.0,0.0,0.0,0.0,0.0,0.0,0.0,0.0,0.0,0.0,0.0,0.0,0.0,0.0,0.0,0.0,0.0,0.0,0.0,0.0,0.0,0.0,0.0,0.0,0.0,0.0,0.0,0.0,0.0,0.0,0.0,0.0,0.0,0.0,0.0,0.0,0.0,0.0,0.0,0.0,0.0,0.0,0.0,0.0,0.0,0.0,0.0,0.0,0.0,0.0,0.0,0.0,0.0,0.0,0.0,0.0,0.0,0.0,0.0,0.0,0.0,0.0,0.0,0.0,0.0,0.0,0.0,0.0,0.0,0.0,0.0,0.0,0.0,0.0,0.0,0.0,0.0,0.0,0.0,0.0,0.0,0.0,0.0,0.0,0.0,0.0,0.0,0.0,0.0,0.0,0.0,0.0,0.0,0.0,0.0,0.0,0.0,0.0,0.0,0.0,0.0,0.0,0.0,0.0,0.0,0.0,0.0,0.0,0.0,0.0,0.0,0.0,0.0,0.0,0.0,0.0,0.0,0.0,0.0,0.0,0.0,0.0,0.0,0.0,0.0,0.0,0.0,0.0,0.0,0.0,0.0,0.0,0.0,0.0,0.0,0.0,0.0,0.0,0.0,0.0,0.0,0.0,0.0,0.0,0.0,0.0,0.0,0.0,0.0,0.0,0.0,0.0,0.0,0.0,0.0,0.0,0.0,0.0,0.0,0.0,0.0,0.0,0.0,0.0,0.0,0.0,0.0,0.0,0.0,0.0,0.0,0.0,0.0,0.0,0.0,0.0,0.0,0.0,0.0,0.0,0.0,0.0,0.0,0.0,0.0,0.0,0.0,0.0,0.0,0.0,0.0,0.0,0.0,0.0,0.0,0.0,0.0,0.0,0.0,0.0,0.0,0.0,0.0,0.0,0.0,0.0,0.0,0.0,0.0,0.0,0.0,0.0,0.0,0.0,0.0,0.0,0.0,0.0,0.0,0.0,0.0,0.0,0.0,0.0,0.0,0.0,0.0,0.0,0.0,0.0,0.0,0.0,0.0,0.0,0.0,0.0,0.0,0.0,0.0,0.0,0.0,0.0,0.0,0.0,0.0,0.0,0.0,0.0,0.0,0.0,0.0,0.0,0.0,0.0,0.0,0.0,0.0,0.0,0.0,0.0,0.0,0.0,0.0,0.0,0.0,0.0,0.0,0.0,0.0,0.0,0.0,0.0,0.0,0.0,0.0,0.0,0.0,0.0,0.0,0.0,0.0,0.0,0.0,0.0,0.0,0.0,0.0,0.0,0.0,0.0,0.0,0.0,0.0,0.0,0.0,0.0,0.0,0.0,0.0,0.0,0.0,0.0,0.0,0.0,0.0,0.0,0.0,0.0,0.0,0.0,0.0,0.0,0.0,0.0,0.0,0.0,0.0,0.0,0.0,0.0,0.0,0.0,0.0,0.0,0.0,0.0,0.0,0.0,0.0,0.0,0.0,0.0,0.0,0.0,0.0,0.0,0.0,0.0,0.0,0.0,0.0,0.0,0.0,0.0,0.0,0.0,0.0,0.0,0.0,0.0,0.0,0.0,0.0,0.0,0.0,0.0,0.0,0.0,0.0,0.0,0.0,0.0,0.0,0.0,0.0,0.0,0.0,0.0,0.0,0.0,0.0,0.0,0.0,0.0,0.0,0.0,0.0,0.0,0.0,0.0,0.0,0.0,0.0,0.0,0.0,0.0,0.0,0.0,0.0,0.0,0.0,0.0,0.0,0.0,0.0,0.0,0.0,0.0,0.0,0.0,0.0,0.0,0.0,0.0,0.0,0.0,0.0,0.0,0.0,0.0,0.0,0.0,0.0,0.0,0.0,0.0,0.0,0.0,0.0,0.0,0.0,0.0,0.0,0.0,0.0,0.0,0.0,0.0,0.0,0.0,0.0,0.0,0.0,0.0,0.0,0.0,0.0,0.0,0.0,0.0,0.0,0.0,0.0,0.0,0.0,0.0,0.0,0.0,0.0,0.0,0.0,0.0,0.0,0.0,0.0,0.0,0.0,0.0,0.0,0.0,0.0,0.0,0.0,0.0,0.0,0.0,0.0,0.0,0.0,0.0,0.0,0.0,0.0,0.0,0.0,0.0,0.0,0.0,0.0,0.0,0.0,0.0,0.0,0.0,0.0,0.0,0.0,0.0,0.0,0.0,0.0,0.0,0.0,0.0,0.0,0.0,0.0,0.0,0.0,0.0,0.0,0.0,0.0,0.0,0.0,0.0,0.0,0.0,0.0,0.0,0.0,0.0,0.0,0.0,0.0,0.0,0.0,0.0,0.0,0.0,0.0,0.0,0.0,0.0,0.0,0.0,0.0,0.0,0.0,0.0,0.0,0.0,0.0,0.0,0.0,0.0,0.0,0.0,0.0,0.0,0.0,0.0,0.0,0.0,0.0,0.0,0.0,0.0,0.0,0.0,0.0,0.0,0.0,0.0,0.0,0.0,0.0,0.0,0.0,0.0,0.0,0.0,0.0,0.0,0.0,0.0,0.0,0.0,0.0,0.0,0.0,0.0,0.0,0.0,0.0,0.0,0.0,0.0,0.0,0.0,0.0,0.0,0.0,0.0,0.0,0.0,0.0,0.0,0.0,0.0,0.0,0.0,0.0,0.0,0.0,0.0,0.0,0.0,0.0,0.0,0.0,0.0,0.0,0.0,0.0,0.0,0.0,0.0,0.0,0.0,0.0,0.0,0.0,0.0,0.0,0.0,0.0,0.0,0.0,0.0,0.0,0.0,0.0,0.0,0.0,0.0,0.0,0.0,0.0,0.0,0.0,0.0,0.0,0.0,0.0,0.0,0.0,0.0,0.0,0.0,0.0,0.0,0.0,0.0,0.0,0.0,0.0,0.0,0.0,0.0,0.0,0.0,0.0,0.0,0.0,0.0,0.0,0.0,0.0,0.0,0.0,0.0,0.0,0.0,0.0,0.0,0.0,0.0,0.0,0.0,0.0,0.0,0.0,0.0,0.0,0.0,0.0,0.0,0.0,0.0,0.0,0.0,0.0,0.0,0.0,0.0,0.0,0.0,0.0,0.0,0.0,0.0,0.0,0.0,0.0,0.0,0.0,0.0,0.0,0.0,0.0,0.0,0.0,0.0,0.0,0.0,0.0,0.0,0.0,0.0,0.0,0.0,0.0,0.0,0.0,0.0,0.0,0.0,0.0,0.0,0.0,0.0,0.0,0.0,0.0,0.0,0.0,0.0,0.0,0.0,0.0,0.0,0.0,0.0,0.0,0.0,0.0,0.0,0.0,0.0,0.0,0.0,0.0,0.0,0.0,0.0,0.0,0.0,0.0,0.0,0.0,0.0,0.0,0.0,0.0,0.0,0.0,0.0,0.0,0.0,0.0,0.0,0.0,0.0,0.0,0.0,0.0,0.0,0.0,0.0,0.0,0.0,0.0,0.0,0.0,0.0,0.0,0.0,0.0,0.0,0.0,0.0,0.0,0.0,0.0,0.0,0.0,0.0,0.0,0.0,0.0,0.0,0.0,0.0,0.0,0.0,0.0,0.0,0.0,0.0,0.0,0.0,0.0,0.0,0.0,0.0,0.0,0.0,0.0,0.0,0.0,0.0,0.0,0.0,0.0,0.0,0.0,0.0,0.0,0.0,0.0,0.0,0.0,0.0,0.0,0.0,0.0,0.0,0.0,0.0,0.0,0.0,0.0,0.0,0.0,0.0,0.0,0.0,0.0,0.0,0.0,0.0,0.0,0.0,0.0,0.0,0.0,0.0,0.0,0.0,0.0,0.0,0.0,0.0,0.0,0.0,0.0,0.0,0.0,0.0,0.0,0.0,0.0,0.0,0.0,0.0,0.0,0.0,0.0,0.0,0.0,0.0,0.0,0.0,0.0,0.0,0.0,0.0,0.0,0.0,0.0,0.0,0.0,0.0,0.0,0.0,0.0,0.0,0.0,0.0,0.0,0.0,0.0,0.0,0.0,0.0,0.0,0.0,0.0,0.0,0.0,0.0,0.0,0.0,0.0,0.0,0.0,0.0,0.0,0.0,0.0,0.0,0.0,0.0,0.0,0.0,0.0,0.0,0.0,0.0,0.0,-1.5891,0.0,0.0,0.0,0.0,0.0,0.0,0.0,0.0,0.0,0.0,0.0,0.0,0.0,0.0,0.0,0.0,0.0,0.0,0.0,0.0,0.0,0.0,0.0,0.0,0.0,0.0,0.0,0.0,0.0,0.0,0.0,0.0,0.0,0.0,0.0,0.0,0.0,0.0,0.0,0.0,0.0,0.0,0.0,0.0,0.0,0.0,0.0,0.0,0.0,0.0,0.0,0.0,0.0,0.0,0.0,0.0,0.0,0.0,0.0,0.0,0.0,0.0,0.0,0.0,0.0,0.0,0.0,0.0,0.0,0.0,0.0,0.0,0.0,0.0,0.0,0.0,0.0,0.0,0.0,0.0,0.0,0.0,0.0,0.0,0.0,0.0,0.0,0.0,0.0,0.0,0.0,0.0,0.0,0.0,0.0,0.0,0.0,0.0,0.0,0.0,0.0,0.0,0.0,0.0,0.0,0.0,0.0,0.0,0.0,0.0,-1.5856,-1.5894,-1.6029,-1.6087,-1.5914,0.0,0.0,0.0,0.0,0.0,0.0,0.0,0.0,0.0,0.0,0.0,0.0,0.0,0.0,0.0,0.0,0.0,0.0,0.0,0.0,0.0,0.0,0.0,0.0,0.0,0.0,0.0,0.0,0.0,0.0,0.0,0.0,0.0,0.0,0.0,0.0,0.0,0.0,0.0,0.0,0.0,0.0,0.0,0.0,0.0,0.0,0.0,0.0,0.0,0.0,0.0,0.0,0.0,0.0,0.0,0.0,0.0,0.0,0.0,0.0,0.0,0.0,0.0,0.0,0.0,0.0,0.0,0.0,0.0,0.0,0.0,0.0,0.0,0.0,0.0,0.0,0.0,0.0,0.0,0.0,0.0,0.0,0.0,0.0,0.0,0.0,0.0,0.0,0.0,0.0,0.0,0.0,0.0,0.0,0.0,0.0,0.0,0.0,0.0,0.0,0.0,0.0,0.0,0.0,0.0,0.0,0.0,0.0,0.0,0.0,0.0,0.0,-1.6029,-1.5972,-1.5914,0.0,0.0,0.0,0.0,0.0,0.0,0.0,0.0,0.0,0.0,0.0,0.0,0.0,0.0,0.0,0.0,0.0,0.0,0.0,0.0,0.0,0.0,0.0,0.0,0.0,0.0,0.0,0.0,0.0,0.0,0.0,0.0,0.0,0.0,0.0,0.0,0.0,0.0,0.0,0.0,0.0,0.0,0.0,0.0,0.0,0.0,0.0,0.0,0.0,0.0,0.0,0.0,0.0,0.0,0.0,0.0,0.0,0.0,0.0,0.0,0.0,0.0,0.0,0.0,0.0,0.0,0.0,0.0,0.0,0.0,0.0,0.0,0.0,0.0,0.0,0.0,0.0,0.0,0.0,0.0,0.0,0.0,0.0,0.0,0.0,0.0,0.0,0.0,0.0,0.0,0.0,0.0,0.0,0.0,0.0,0.0,0.0,0.0,0.0,0.0,0.0,0.0,0.0,0.0,0.0,0.0,0.0,0.0,0.0,0.0,-1.6009,-1.5914,-1.6202,0.0,-1.5914,0.0,0.0,0.0,0.0,0.0,0.0,0.0,0.0,0.0,0.0,0.0,0.0,0.0,0.0,0.0,0.0,0.0,0.0,0.0,0.0,0.0,0.0,0.0,0.0,0.0,0.0,0.0,0.0,0.0,0.0,0.0,0.0,0.0,0.0,0.0,0.0,0.0,0.0,0.0,0.0,0.0,0.0,0.0,0.0,0.0,0.0,0.0,0.0,0.0,0.0,0.0,0.0,0.0,0.0,0.0,0.0,0.0,0.0,0.0,0.0,0.0,0.0,0.0,0.0,0.0,0.0,0.0,0.0,0.0,0.0,0.0,0.0,0.0,0.0,0.0,0.0,0.0,0.0,0.0,0.0,0.0,0.0,0.0,0.0,0.0,0.0,0.0,0.0,0.0,0.0,0.0,0.0,0.0,0.0,0.0,0.0,0.0,0.0,0.0,0.0,0.0,0.0,0.0,0.0,0.0,0.0,0.0,0.0,0.0,0.0,-1.6009,-1.6009,-1.6029,-1.5914,0.0,0.0,0.0,0.0,0.0,0.0,0.0,0.0,0.0,0.0,0.0,0.0,0.0,0.0,0.0,0.0,0.0,0.0,0.0,0.0,0.0,0.0,0.0,0.0,0.0,0.0,0.0,0.0,0.0,0.0,0.0,0.0,0.0,0.0,0.0,0.0,0.0,0.0,0.0,0.0,0.0,0.0,0.0,0.0,0.0,0.0,0.0,0.0,0.0,0.0,0.0,0.0,0.0,0.0,0.0,0.0,0.0,0.0,0.0,0.0,0.0,0.0,0.0,0.0,0.0,0.0,0.0,0.0,0.0,0.0,0.0,0.0,0.0,0.0,0.0,0.0,0.0,0.0,0.0,0.0,0.0,0.0,0.0,0.0,0.0,0.0,0.0,0.0,0.0,0.0,0.0,0.0,0.0,0.0,0.0,0.0,0.0,0.0,0.0,0.0,0.0,0.0,0.0,0.0,0.0,0.0,0.0,0.0,0.0,0.0,-1.5972,-1.6087,-1.6104,-1.5951,-1.5856,-1.574,0.0,0.0,0.0,0.0,0.0,0.0,0.0,0.0,0.0,0.0,0.0,0.0,0.0,0.0,0.0,0.0,0.0,0.0,0.0,0.0,0.0,0.0,0.0,0.0,0.0,0.0,0.0,0.0,0.0,0.0,0.0,0.0,0.0,0.0,0.0,0.0,0.0,0.0,0.0,0.0,0.0,0.0,0.0,0.0,0.0,0.0,0.0,0.0,0.0,0.0,0.0,0.0,0.0,0.0,0.0,0.0,0.0,0.0,0.0,0.0,0.0,0.0,0.0,0.0,0.0,0.0,0.0,0.0,0.0,0.0,0.0,0.0,0.0,0.0,0.0,0.0,0.0,0.0,0.0,0.0,0.0,0.0,0.0,0.0,0.0,0.0,0.0,0.0,0.0,0.0,0.0,0.0,0.0,0.0,0.0,0.0,0.0,0.0,0.0,0.0,0.0,0.0,0.0,0.0,0.0,0.0,0.0,0.0,-1.5914,-1.6202,-1.6316,-1.6124,-1.6239,-1.6202,0.0,0.0,0.0,0.0,0.0,0.0,0.0,0.0,0.0,0.0,0.0,0.0,0.0,0.0,0.0,0.0,0.0,0.0,0.0,0.0,0.0,0.0,0.0,0.0,0.0,0.0,0.0,0.0,0.0,0.0,0.0,0.0,0.0,0.0,0.0,0.0,0.0,0.0,0.0,0.0,0.0,0.0,0.0,0.0,0.0,0.0,0.0,0.0,0.0,0.0,0.0,0.0,0.0,0.0,0.0,0.0,0.0,0.0,0.0,0.0,0.0,0.0,0.0,0.0,0.0,0.0,0.0,0.0,0.0,0.0,0.0,0.0,0.0,0.0,0.0,0.0,0.0,0.0,0.0,0.0,0.0,0.0,0.0,0.0,0.0,0.0,0.0,0.0,0.0,0.0,0.0,0.0,0.0,0.0,0.0,0.0,0.0,0.0,0.0,0.0,0.0,0.0,0.0,0.0,0.0,0.0,0.0,0.0,0.0,-1.5914,-1.6202,-1.6374,-1.6316,-1.6239,-1.6124,0.0,0.0,0.0,0.0,0.0,0.0,0.0,0.0,0.0,0.0,0.0,0.0,0.0,0.0,0.0,0.0,0.0,0.0,0.0,0.0,0.0,0.0,0.0,0.0,0.0,0.0,0.0,0.0,0.0,0.0,0.0,0.0,0.0,0.0,0.0,0.0,0.0,0.0,0.0,0.0,0.0,0.0,0.0,0.0,0.0,0.0,0.0,0.0,0.0,0.0,0.0,0.0,0.0,0.0,0.0,0.0,0.0,0.0,0.0,0.0,0.0,0.0,0.0,0.0,0.0,0.0,0.0,0.0,0.0,0.0,0.0,0.0,0.0,0.0,0.0,0.0,0.0,0.0,0.0,0.0,0.0,0.0,0.0,0.0,0.0,0.0,0.0,0.0,0.0,0.0,0.0,0.0,0.0,0.0,0.0,0.0,0.0,0.0,0.0,0.0,0.0,0.0,0.0,0.0,0.0,0.0,0.0,0.0,0.0,-1.5951,0.0,-1.6374,-1.6316,-1.6239,-1.6124,0.0,0.0,0.0,0.0,0.0,0.0,0.0,0.0,0.0,0.0,0.0,0.0,0.0,0.0,0.0,0.0,0.0,0.0,0.0,0.0,0.0,0.0,0.0,0.0,0.0,0.0,0.0,0.0,0.0,0.0,0.0,0.0,0.0,0.0,0.0,0.0,0.0,0.0,0.0,0.0,0.0,0.0,0.0,0.0,0.0,0.0,0.0,0.0,0.0,0.0,0.0,0.0,0.0,0.0,0.0,0.0,0.0,0.0,0.0,0.0,0.0,0.0,0.0,0.0,0.0,0.0,0.0,0.0,0.0,0.0,0.0,0.0,0.0,0.0,0.0,0.0,0.0,0.0,0.0,0.0,0.0,0.0,0.0,0.0,0.0,0.0,0.0,0.0,0.0,0.0,0.0,0.0,0.0,0.0,0.0,0.0,0.0,0.0,0.0,0.0,0.0,0.0,0.0,0.0,0.0,0.0,0.0,0.0,-1.5856,-1.6124,-1.6337,-1.6378,-1.6124,-1.628,-1.6222,0.0,0.0,0.0,0.0,0.0,0.0,0.0,0.0,0.0,0.0,0.0,0.0,0.0,0.0,0.0,0.0,0.0,0.0,0.0,0.0,0.0,0.0,0.0,0.0,0.0,0.0,0.0,0.0,0.0,0.0,0.0,0.0,0.0,0.0,0.0,0.0,0.0,0.0,0.0,0.0,0.0,0.0,0.0,0.0,0.0,0.0,0.0,0.0,0.0,0.0,0.0,0.0,0.0,0.0,0.0,0.0,0.0,0.0,0.0,0.0,0.0,0.0,0.0,0.0,0.0,0.0,0.0,0.0,0.0,0.0,0.0,0.0,0.0,0.0,0.0,0.0,0.0,0.0,0.0,0.0,0.0,0.0,0.0,0.0,0.0,0.0,0.0,0.0,0.0,0.0,0.0,0.0,0.0,0.0,0.0,0.0,0.0,0.0,0.0,0.0,0.0,0.0,0.0,0.0,0.0,0.0,0.0,0.0,0.0,-1.6593,-1.702,-1.71,-1.6732,-1.6711,-1.6471,0.0,0.0,0.0,0.0,0.0,0.0,0.0,0.0,0.0,0.0,0.0,0.0,0.0,0.0,0.0,0.0,0.0,0.0,0.0,0.0,0.0,0.0,0.0,0.0,0.0,0.0,0.0,0.0,0.0,0.0,0.0,0.0,0.0,0.0,0.0,0.0,0.0,0.0,0.0,0.0,0.0,0.0,0.0,0.0,0.0,0.0,0.0,0.0,0.0,0.0,0.0,0.0,0.0,0.0,0.0,0.0,0.0,0.0,0.0,0.0,0.0,0.0,0.0,0.0,0.0,0.0,0.0,0.0,0.0,0.0,0.0,0.0,0.0,0.0,0.0,0.0,0.0,0.0,0.0,0.0,0.0,0.0,0.0,0.0,0.0,0.0,0.0,0.0,0.0,0.0,0.0,0.0,0.0,0.0,0.0,0.0,0.0,0.0,0.0,0.0,0.0,0.0,0.0,0.0,0.0,0.0,0.0,0.0,0.0,-1.741,-1.7595,-1.7595,-1.7245,-1.6999,-1.6675,-1.6155,0.0,0.0,0.0,0.0,0.0,0.0,0.0,0.0,0.0,0.0,0.0,0.0,0.0,0.0,0.0,0.0,0.0,0.0,0.0,0.0,0.0,0.0,0.0,0.0,0.0,0.0,0.0,0.0,0.0,0.0,0.0,0.0,0.0,0.0,0.0,0.0,0.0,0.0,0.0,0.0,0.0,0.0,0.0,0.0,0.0,0.0,0.0,0.0,0.0,0.0,0.0,0.0,0.0,0.0,0.0,0.0,0.0,0.0,0.0,0.0,0.0,0.0,0.0,0.0,0.0,0.0,0.0,0.0,0.0,0.0,0.0,0.0,0.0,0.0,0.0,0.0,0.0,0.0,0.0,0.0,0.0,0.0,0.0,0.0,0.0,0.0,0.0,0.0,0.0,0.0,0.0,0.0,0.0,0.0,0.0,0.0,0.0,0.0,0.0,0.0,0.0,0.0,0.0,0.0,0.0,0.0,0.0,0.0,-1.8444,-1.805,-1.776,-1.7761,-1.7286,-1.6919,0.0,0.0,0.0,0.0,0.0,0.0,0.0,0.0,0.0,0.0,0.0,0.0,0.0,0.0,0.0,0.0,0.0,0.0,0.0,0.0,0.0,0.0,0.0,0.0,0.0,0.0,0.0,0.0,0.0,0.0,0.0,0.0,0.0,0.0,0.0,0.0,0.0,0.0,0.0,0.0,0.0,0.0,0.0,0.0,0.0,0.0,0.0,0.0,0.0,0.0,0.0,0.0,0.0,0.0,0.0,0.0,0.0,0.0,0.0,0.0,0.0,0.0,0.0,0.0,0.0,0.0,0.0,0.0,0.0,0.0,0.0,0.0,0.0,0.0,0.0,0.0,0.0,0.0,0.0,0.0,0.0,0.0,0.0,0.0,0.0,0.0,0.0,0.0,0.0,0.0,0.0,0.0,0.0,0.0,0.0,0.0,0.0,0.0,0.0,0.0,0.0,0.0,0.0,0.0,0.0,0.0,0.0,0.0,0.0,-1.9354,-1.9157,-1.8767,-1.8237,-1.7986,-1.7533,0.0,0.0,0.0,0.0,0.0,0.0,0.0,0.0,0.0,0.0,0.0,0.0,0.0,0.0,0.0,0.0,0.0,0.0,0.0,0.0,0.0,0.0,0.0,0.0,0.0,0.0,0.0,0.0,0.0,0.0,0.0,0.0,0.0,0.0,0.0,0.0,0.0,0.0,0.0,0.0,0.0,0.0,0.0,0.0,0.0,0.0,0.0,0.0,0.0,0.0,0.0,0.0,0.0,0.0,0.0,0.0,0.0,0.0,0.0,0.0,0.0,0.0,0.0,0.0,0.0,0.0,0.0,0.0,0.0,0.0,0.0,0.0,0.0,0.0,0.0,0.0,0.0,0.0,0.0,0.0,0.0,0.0,0.0,0.0,0.0,0.0,0.0,0.0,0.0,0.0,0.0,0.0,0.0,0.0,0.0,0.0,0.0,0.0,0.0,0.0,0.0,0.0,0.0,0.0,0.0,0.0,0.0,0.0,-1.8957,-1.9817,-1.9885,-1.9569,-1.8982,-1.873,-1.813,0.0,0.0,0.0,0.0,0.0,0.0,0.0,0.0,0.0,0.0,0.0,0.0,0.0,0.0,0.0,0.0,0.0,0.0,0.0,0.0,0.0,0.0,0.0,0.0,0.0,0.0,0.0,0.0,0.0,0.0,0.0,0.0,0.0,0.0,0.0,0.0,0.0,0.0,0.0,0.0,0.0,0.0,0.0,0.0,0.0,0.0,0.0,0.0,0.0,0.0,0.0,0.0,0.0,0.0,0.0,0.0,0.0,0.0,0.0,0.0,0.0,0.0,0.0,0.0,0.0,0.0,0.0,0.0,0.0,0.0,0.0,0.0,0.0,0.0,0.0,0.0,0.0,0.0,0.0,0.0,0.0,0.0,0.0,0.0,0.0,0.0,0.0,0.0,0.0,0.0,0.0,0.0,0.0,0.0,0.0,0.0,0.0,0.0,0.0,0.0,0.0,0.0,0.0,0.0,0.0,0.0,0.0,0.0,-1.9396,-1.9962,-2.0286,-2.0307,-1.9913,-1.9417,-1.8647,0.0,0.0,0.0,0.0,0.0,0.0,0.0,0.0,0.0,0.0,0.0,0.0,0.0,0.0,0.0,0.0,0.0,0.0,0.0,0.0,0.0,0.0,0.0,0.0,0.0,0.0,0.0,0.0,0.0,0.0,0.0,0.0,0.0,0.0,0.0,0.0,0.0,0.0,0.0,0.0,0.0,0.0,0.0,0.0,0.0,0.0,0.0,0.0,0.0,0.0,0.0,0.0,0.0,0.0,0.0,0.0,0.0,0.0,0.0,0.0,0.0,0.0,0.0,0.0,0.0,0.0,0.0,0.0,0.0,0.0,0.0,0.0,0.0,0.0,0.0,0.0,0.0,0.0,0.0,0.0,0.0,0.0,0.0,0.0,0.0,0.0,0.0,0.0,0.0,0.0,0.0,0.0,0.0,0.0,0.0,0.0,0.0,0.0,0.0,0.0,0.0,0.0,0.0,0.0,0.0,0.0,0.0,0.0,-1.9877,-2.0803,-2.0781,-2.0802,-2.0824,-2.0038,-1.9189,0.0,0.0,0.0,0.0,0.0,0.0,0.0,0.0,0.0,0.0,0.0,0.0,0.0,0.0,0.0,0.0,0.0,0.0,0.0,0.0,0.0,0.0,0.0,0.0,0.0,0.0,0.0,0.0,0.0,0.0,0.0,0.0,0.0,0.0,0.0,0.0,0.0,0.0,0.0,0.0,0.0,0.0,0.0,0.0,0.0,0.0,0.0,0.0,-1.8392,0.0,0.0,0.0,0.0,0.0,0.0,0.0,0.0,0.0,0.0,0.0,0.0,0.0,0.0,0.0,0.0,0.0,0.0,0.0,0.0,0.0,0.0,0.0,0.0,0.0,0.0,0.0,0.0,0.0,0.0,0.0,0.0,0.0,0.0,0.0,0.0,0.0,0.0,0.0,0.0,0.0,0.0,0.0,0.0,0.0,0.0,0.0,0.0,0.0,0.0,0.0,0.0,0.0,0.0,0.0,0.0,0.0,0.0,0.0,-2.0267,-2.1093,-2.1267,-2.1267,-2.1114,-2.0431,-1.9644,0.0,0.0,0.0,0.0,0.0,0.0,0.0,0.0,0.0,0.0,0.0,0.0,0.0,0.0,0.0,0.0,0.0,0.0,0.0,0.0,0.0,0.0,0.0,0.0,0.0,0.0,0.0,0.0,0.0,0.0,0.0,0.0,0.0,0.0,0.0,0.0,0.0,0.0,0.0,0.0,0.0,0.0,0.0,0.0,0.0,0.0,0.0,0.0,0.0,0.0,0.0,0.0,0.0,0.0,0.0,0.0,0.0,0.0,0.0,0.0,0.0,0.0,0.0,0.0,0.0,0.0,0.0,0.0,0.0,0.0,0.0,0.0,0.0,0.0,0.0,0.0,0.0,0.0,0.0,0.0,0.0,0.0,0.0,0.0,0.0,0.0,0.0,0.0,0.0,0.0,0.0,0.0,0.0,0.0,0.0,0.0,0.0,0.0,0.0,0.0,0.0,0.0,0.0,0.0,0.0,0.0,0.0,-2.0038,-2.0679,-2.1217,-2.1611,-2.1611,-2.1238,-2.07,-2.0058,-1.9292,0.0,0.0,0.0,0.0,0.0,0.0,0.0,0.0,0.0,0.0,0.0,0.0,0.0,0.0,0.0,0.0,0.0,0.0,0.0,0.0,0.0,0.0,0.0,0.0,0.0,0.0,0.0,0.0,0.0,0.0,0.0,0.0,0.0,0.0,0.0,0.0,0.0,0.0,-1.8159,-1.8621,0.0,0.0,0.0,0.0,0.0,0.0,0.0,0.0,-1.896,0.0,0.0,0.0,0.0,0.0,0.0,0.0,0.0,0.0,0.0,0.0,0.0,0.0,0.0,0.0,0.0,0.0,0.0,0.0,0.0,0.0,0.0,0.0,0.0,0.0,0.0,0.0,0.0,0.0,0.0,0.0,0.0,0.0,0.0,0.0,0.0,0.0,0.0,0.0,0.0,0.0,0.0,0.0,0.0,0.0,0.0,0.0,0.0,0.0,0.0,0.0,0.0,0.0,0.0,0.0,0.0,-2.0182,-2.0348,-2.0824,-2.1673,-2.1776,-2.1776,-2.1673,-2.0866,-2.0348,-2.0141,0.0,0.0,0.0,0.0,0.0,0.0,0.0,0.0,0.0,0.0,0.0,0.0,0.0,0.0,0.0,0.0,0.0,0.0,0.0,0.0,0.0,0.0,0.0,0.0,0.0,0.0,0.0,0.0,0.0,0.0,0.0,0.0,0.0,0.0,0.0,0.0,0.0,0.0,0.0,-1.9652,-1.9968,0.0,0.0,0.0,0.0,0.0,0.0,0.0,0.0,-1.977,0.0,0.0,0.0,0.0,0.0,0.0,0.0,0.0,0.0,0.0,0.0,0.0,0.0,0.0,0.0,0.0,0.0,0.0,0.0,0.0,0.0,0.0,0.0,0.0,0.0,0.0,0.0,0.0,0.0,0.0,0.0,0.0,0.0,0.0,0.0,0.0,0.0,0.0,0.0,0.0,0.0,0.0,0.0,0.0,0.0,0.0,0.0,0.0,0.0,0.0,0.0,0.0,0.0,0.0,0.0,-2.0063,-2.0288,-2.0813,-2.1603,-2.1741,-2.1818,-2.1797,-2.0907,-2.041,0.0,0.0,0.0,0.0,0.0,0.0,0.0,0.0,0.0,0.0,0.0,0.0,0.0,0.0,0.0,0.0,0.0,0.0,0.0,0.0,0.0,0.0,0.0,0.0,0.0,0.0,0.0,0.0,0.0,0.0,0.0,0.0,0.0,0.0,0.0,0.0,0.0,0.0,0.0,0.0,-2.0187,-2.0616,-2.0744,0.0,0.0,0.0,0.0,0.0,0.0,-2.0694,-2.0593,0.0,0.0,0.0,0.0,0.0,0.0,0.0,0.0,0.0,0.0,0.0,0.0,0.0,0.0,0.0,0.0,0.0,0.0,0.0,0.0,0.0,0.0,0.0,0.0,0.0,0.0,0.0,0.0,0.0,0.0,0.0,0.0,0.0,0.0,0.0,0.0,0.0,0.0,0.0,0.0,0.0,0.0,0.0,0.0,0.0,0.0,0.0,0.0,0.0,0.0,0.0,0.0,0.0,0.0,0.0,-1.9961,-2.0391,-2.0896,-2.1527,-2.1741,-2.1818,-2.1797,-2.0834,-2.0359,0.0,0.0,0.0,0.0,0.0,0.0,0.0,0.0,0.0,0.0,0.0,0.0,0.0,0.0,0.0,0.0,0.0,0.0,0.0,0.0,0.0,0.0,0.0,0.0,0.0,0.0,0.0,0.0,0.0,0.0,0.0,0.0,0.0,0.0,0.0,0.0,0.0,0.0,0.0,0.0,0.0,-2.1174,-2.1419,-2.1636,0.0,0.0,0.0,0.0,-2.0841,-2.1154,0.0,0.0,0.0,0.0,0.0,0.0,0.0,0.0,0.0,0.0,0.0,0.0,0.0,0.0,0.0,0.0,0.0,0.0,0.0,0.0,0.0,0.0,0.0,0.0,0.0,0.0,0.0,0.0,0.0,0.0,0.0,0.0,0.0,0.0,0.0,0.0,0.0,0.0,0.0,0.0,0.0,0.0,0.0,0.0,0.0,0.0,0.0,0.0,0.0,0.0,0.0,0.0,0.0,0.0,0.0,0.0,-2.0318,-2.0751,-2.128,-2.17,-2.1818,-2.1818,-2.1797,-2.0781,-2.0237,0.0,0.0,0.0,0.0,0.0,0.0,0.0,0.0,0.0,0.0,0.0,0.0,0.0,0.0,0.0,0.0,0.0,0.0,0.0,0.0,0.0,0.0,0.0,0.0,0.0,0.0,0.0,0.0,0.0,0.0,0.0,0.0,0.0,0.0,0.0,0.0,0.0,0.0,0.0,0.0,0.0,-2.1554,-2.1774,-2.198,-2.2143,0.0,0.0,-2.1491,-2.0978,-2.1009,0.0,0.0,0.0,0.0,0.0,0.0,0.0,0.0,0.0,0.0,0.0,0.0,0.0,0.0,0.0,0.0,0.0,0.0,0.0,0.0,0.0,0.0,0.0,0.0,0.0,0.0,0.0,0.0,0.0,0.0,0.0,0.0,0.0,0.0,0.0,0.0,0.0,0.0,0.0,0.0,0.0,0.0,0.0,0.0,0.0,0.0,0.0,0.0,0.0,0.0,0.0,0.0,0.0,0.0,0.0,-1.9061,-1.9929,-2.0447,-2.1014,-2.1605,-2.148,-2.1537,-2.1781,-2.0872,-2.0265,0.0,0.0,0.0,0.0,0.0,0.0,0.0,0.0,0.0,0.0,0.0,0.0,0.0,0.0,0.0,0.0,0.0,0.0,0.0,0.0,0.0,0.0,0.0,0.0,0.0,0.0,0.0,0.0,0.0,0.0,0.0,0.0,0.0,0.0,0.0,0.0,0.0,0.0,0.0,0.0,0.0,0.0,-2.2634,-2.3045,0.0,0.0,0.0,-2.2759,-2.2449,0.0,0.0,0.0,0.0,0.0,0.0,0.0,0.0,0.0,0.0,0.0,0.0,0.0,0.0,0.0,0.0,0.0,0.0,0.0,0.0,0.0,0.0,0.0,0.0,0.0,0.0,0.0,0.0,0.0,0.0,0.0,0.0,0.0,0.0,0.0,0.0,0.0,0.0,0.0,0.0,0.0,0.0,0.0,0.0,0.0,0.0,0.0,0.0,0.0,0.0,0.0,0.0,0.0,0.0,0.0,0.0,0.0,-1.9753,-2.0541,-2.1262,-2.1749,-2.1726,-2.1784,-2.1908,-2.1104,0.0,0.0,0.0,0.0,0.0,0.0,0.0,0.0,0.0,0.0,0.0,0.0,0.0,0.0,0.0,0.0,0.0,0.0,0.0,0.0,0.0,0.0,0.0,0.0,0.0,0.0,0.0,-1.4883,0.0,0.0,0.0,0.0,0.0,0.0,0.0,0.0,0.0,0.0,0.0,0.0,0.0,0.0,-2.2939,-2.3555,-2.3984,-2.4147,0.0,0.0,-2.3668,-2.3426,-2.3133,-2.2778,0.0,0.0,0.0,0.0,0.0,0.0,0.0,0.0,0.0,0.0,0.0,0.0,0.0,0.0,0.0,0.0,0.0,0.0,0.0,0.0,0.0,0.0,0.0,0.0,0.0,0.0,0.0,0.0,0.0,0.0,0.0,0.0,0.0,0.0,0.0,0.0,0.0,0.0,0.0,0.0,0.0,0.0,0.0,0.0,0.0,0.0,0.0,0.0,0.0,0.0,0.0,0.0,0.0,0.0,-1.994,-2.0206,-2.1583,-2.234,-2.2422,-2.2814,-2.2755,-2.2186,-2.1541,-2.0742,0.0,0.0,0.0,0.0,0.0,0.0,0.0,0.0,0.0,0.0,0.0,0.0,0.0,0.0,0.0,0.0,0.0,0.0,0.0,0.0,0.0,0.0,0.0,0.0,0.0,0.0,0.0,0.0,0.0,0.0,0.0,0.0,0.0,0.0,0.0,0.0,0.0,0.0,0.0,0.0,0.0,-2.3178,-2.4537,-2.4557,-2.4284,0.0,-2.3807,-2.3625,-2.3042,-2.3103,-2.3143,-2.2859,0.0,0.0,0.0,0.0,0.0,0.0,0.0,0.0,0.0,0.0,0.0,0.0,0.0,0.0,0.0,0.0,0.0,0.0,0.0,0.0,0.0,0.0,0.0,0.0,0.0,0.0,0.0,0.0,0.0,0.0,0.0,0.0,0.0,0.0,0.0,0.0,0.0,0.0,0.0,0.0,0.0,0.0,0.0,0.0,0.0,0.0,0.0,0.0,0.0,0.0,0.0,0.0,0.0,-1.9992,-2.0532,-2.131,-2.197,-2.2469,-2.2429,-2.2409,-2.2344,-2.1669,-2.1015,0.0,0.0,0.0,0.0,0.0,0.0,0.0,0.0,0.0,0.0,0.0,0.0,0.0,0.0,0.0,0.0,0.0,0.0,0.0,0.0,0.0,0.0,0.0,0.0,0.0,0.0,0.0,0.0,-1.744,-1.8003,-1.8175,0.0,0.0,0.0,0.0,0.0,0.0,0.0,0.0,0.0,0.0,-2.4494,-2.5414,-2.5518,0.0,0.0,-2.5444,-2.5272,-2.5186,-2.4364,-2.3928,-2.4346,-2.3639,0.0,0.0,0.0,0.0,0.0,0.0,0.0,0.0,0.0,0.0,0.0,0.0,0.0,0.0,0.0,0.0,0.0,0.0,0.0,0.0,0.0,0.0,0.0,0.0,0.0,0.0,0.0,0.0,0.0,0.0,0.0,0.0,0.0,0.0,0.0,0.0,0.0,0.0,0.0,0.0,0.0,0.0,0.0,0.0,0.0,0.0,0.0,0.0,0.0,0.0,0.0,0.0,-2.0206,-2.0799,-2.143,-2.2079,-2.267,-2.2512,-2.2512,-2.2585,-2.2016,-2.145,0.0,0.0,0.0,0.0,0.0,0.0,0.0,0.0,0.0,0.0,0.0,0.0,0.0,0.0,0.0,0.0,0.0,0.0,0.0,0.0,0.0,0.0,0.0,0.0,0.0,0.0,0.0,0.0,-1.8398,-1.897,-1.897,0.0,0.0,0.0,0.0,0.0,0.0,0.0,0.0,0.0,0.0,-2.5622,-2.6403,-2.6519,-2.6605,-2.6751,-2.6525,-2.6436,-2.6415,-2.5581,-2.5076,-2.555,0.0,0.0,0.0,0.0,0.0,0.0,0.0,0.0,0.0,0.0,0.0,0.0,0.0,0.0,0.0,0.0,0.0,0.0,0.0,0.0,0.0,0.0,0.0,0.0,0.0,0.0,0.0,-1.8045,0.0,0.0,-1.8325,0.0,0.0,0.0,0.0,0.0,0.0,0.0,0.0,0.0,0.0,0.0,0.0,0.0,0.0,0.0,0.0,0.0,0.0,0.0,0.0,0.0,0.0,-2.0722,-2.0936,-2.2329,-2.3177,-2.3217,-2.3599,-2.3428,-2.2899,-2.2839,-2.2205,-2.0839,0.0,0.0,0.0,0.0,0.0,0.0,0.0,0.0,0.0,0.0,0.0,0.0,0.0,0.0,0.0,0.0,0.0,0.0,0.0,0.0,0.0,0.0,0.0,0.0,0.0,0.0,-1.8233,-1.936,-2.0053,0.0,0.0,0.0,0.0,0.0,0.0,0.0,0.0,0.0,0.0,-2.603,-2.6234,-2.7741,-2.7547,-2.7238,-2.7082,-2.6836,-2.6457,-2.6118,-2.6325,-2.6462,0.0,0.0,0.0,0.0,0.0,0.0,0.0,0.0,0.0,0.0,0.0,0.0,0.0,0.0,0.0,0.0,0.0,0.0,0.0,0.0,0.0,0.0,0.0,0.0,0.0,0.0,0.0,-1.8522,-1.8485,0.0,0.0,0.0,0.0,0.0,0.0,0.0,0.0,0.0,0.0,0.0,-2.0917,-2.0738,0.0,0.0,0.0,0.0,0.0,0.0,0.0,0.0,0.0,0.0,0.0,0.0,-2.0837,-2.1773,-2.2389,-2.2913,-2.3103,-2.324,-2.326,-2.3016,-2.2742,-2.1977,-2.0683,0.0,0.0,0.0,0.0,0.0,0.0,0.0,0.0,0.0,0.0,0.0,0.0,0.0,0.0,0.0,0.0,0.0,0.0,0.0,0.0,0.0,0.0,0.0,0.0,0.0,-1.9447,0.0,0.0,0.0,0.0,0.0,0.0,0.0,0.0,0.0,0.0,0.0,-2.5326,-2.6295,-2.7048,-2.7696,-2.8432,-2.8701,-2.8741,0.0,0.0,0.0,0.0,0.0,0.0,0.0,0.0,0.0,0.0,0.0,0.0,0.0,0.0,-2.6506,-2.5535,-2.4992,-2.4826,-2.5074,0.0,0.0,0.0,0.0,0.0,0.0,0.0,0.0,0.0,0.0,0.0,0.0,0.0,0.0,-1.9329,0.0,-1.9072,0.0,0.0,0.0,0.0,0.0,0.0,0.0,0.0,-2.0561,-2.0679,-2.1043,-2.0876,-2.1024,0.0,-2.1358,-2.1289,0.0,0.0,0.0,0.0,0.0,0.0,0.0,0.0,-2.1409,-2.2437,-2.2804,-2.3164,-2.3555,-2.3574,-2.3574,-2.3574,-2.3047,-2.2266,-2.1269,-2.0958,-2.0542,0.0,0.0,0.0,0.0,0.0,0.0,0.0,0.0,0.0,0.0,0.0,0.0,0.0,0.0,0.0,0.0,0.0,0.0,0.0,0.0,0.0,0.0,0.0,-2.0608,0.0,0.0,0.0,0.0,0.0,0.0,0.0,0.0,0.0,-2.4631,-2.5694,-2.6679,-2.7097,-2.8029,-2.8813,-2.9307,0.0,0.0,0.0,0.0,0.0,0.0,0.0,-2.9175,-2.9742,-2.8817,-2.8034,-2.7942,-2.8309,-2.8492,-2.8309,0.0,0.0,-2.6799,-2.6216,-2.6044,-2.613,-2.6216,-2.6368,-2.6933,-2.7195,-2.7569,0.0,0.0,0.0,0.0,0.0,0.0,0.0,0.0,-2.0576,-2.0576,0.0,-2.0539,0.0,0.0,0.0,0.0,-2.0558,-2.1248,0.0,0.0,-2.0932,-2.0829,-2.095,-2.1156,-2.1137,-2.0913,-2.1156,-2.1408,-2.1518,-2.1096,0.0,0.0,0.0,0.0,0.0,0.0,-2.2236,-2.3096,-2.3594,-2.4004,-2.4375,-2.4414,-2.4414,-2.4394,-2.3613,-2.2969,-2.25,-2.1489,-2.0781,-2.0664,-2.0083,0.0,0.0,0.0,0.0,0.0,0.0,0.0,0.0,0.0,0.0,0.0,0.0,0.0,0.0,0.0,0.0,0.0,0.0,0.0,0.0,-2.0877,0.0,0.0,0.0,0.0,0.0,0.0,0.0,0.0,0.0,0.0,-2.6351,-2.6771,-2.7456,-2.8545,0.0,0.0,0.0,0.0,-3.048,-3.0987,-3.0621,-3.0351,-3.0351,-3.0524,-3.0502,-3.0285,0.0,0.0,-2.9872,-3.0361,-3.063,-3.0307,-3.0295,-3.0097,-2.8344,-2.7745,-2.7457,-2.7435,-2.7479,-2.7566,-2.8003,-2.8429,-2.8945,-2.3657,0.0,0.0,0.0,0.0,-2.2208,-2.2263,-2.2154,-2.1933,-2.1805,-2.1786,-2.1511,0.0,0.0,0.0,0.0,0.0,0.0,-2.2358,-2.1913,-2.2207,-2.2245,-2.2354,-2.2354,-2.2354,-2.2336,-2.2354,-2.2537,-2.2809,-2.2659,-2.2089,-2.1021,0.0,0.0,0.0,0.0,-2.2967,-2.3751,-2.4088,-2.4297,-2.4414,-2.4414,-2.4414,-2.4414,-2.3887,-2.3398,-2.2969,-2.2305,-2.1899,-2.1747,-2.082,0.0,0.0,0.0,0.0,0.0,0.0,0.0,0.0,0.0,0.0,0.0,0.0,0.0,0.0,0.0,0.0,0.0,0.0,0.0,-2.1889,-2.2456,-2.3156,0.0,0.0,0.0,0.0,0.0,0.0,0.0,0.0,0.0,-2.8298,-2.8701,-2.9173,0.0,0.0,-3.1103,-3.143,-3.1479,-3.1577,-3.1502,-3.1694,0.0,-3.1516,-3.113,-3.1009,-3.1184,-3.0918,-3.0599,-3.0383,-3.0405,-3.0307,-3.0231,-3.0209,-3.011,-2.9745,-2.9474,-2.9379,-2.9379,-2.9379,-2.9423,-2.9554,-2.9693,-2.9855,-2.5179,-2.4115,-2.3822,-2.3675,-2.3657,-2.351,-2.3419,-2.34,-2.2997,-2.2813,-2.2777,-2.2392,-2.2135,-2.2135,-2.2226,0.0,0.0,0.0,-2.276,-2.2575,-2.2738,-2.2866,-2.2866,-2.2866,-2.2866,-2.2866,-2.2866,-2.3054,-2.3242,-2.3299,-2.2906,-2.2039,0.0,0.0,-2.2734,-2.3114,-2.3731,-2.4462,-2.4575,-2.4766,-2.4922,-2.4941,-2.4863,-2.4668,-2.4434,-2.4082,-2.3652,-2.3086,-2.2742,-2.2552,-2.1644,-2.1095,0.0,0.0,0.0,0.0,0.0,0.0,0.0,0.0,0.0,0.0,0.0,-1.9099,-1.9677,0.0,0.0,0.0,-2.1818,-2.2724,-2.3809,-2.4215,0.0,0.0,0.0,0.0,0.0,0.0,0.0,-2.8119,-2.9036,-2.968,-2.9786,-3.027,-3.0503,-3.0229,-3.1072,-3.1763,-3.1763,0.0,-3.2509,-3.2286,-3.2712,-3.2922,-3.2819,-3.2288,-3.209,-3.217,-3.1949,-3.1649,-3.1728,-3.1548,-3.1447,-3.1447,-3.1447,-3.1345,-3.1345,-3.1345,-3.1061,-3.0362,-3.0209,-3.0275,-3.0428,-3.0624,-3.0821,-2.6463,-2.6041,-2.5326,-2.4941,-2.4794,-2.4409,-2.4244,-2.4225,-2.3859,-2.3675,-2.3657,-2.3213,-2.3048,-2.3048,-2.3143,0.0,-2.3143,-2.3048,-2.3162,-2.3143,-2.3143,-2.3048,-2.3048,-2.3067,-2.3048,-2.3162,-2.3048,-2.3238,-2.3446,-2.3522,-2.3504,-2.3541,-2.3787,-2.3918,-2.3729,-2.4009,-2.4501,-2.5117,-2.5117,-2.5332,-2.5723,-2.5723,-2.5547,-2.5137,-2.5078,-2.4863,-2.4473,-2.3691,-2.3242,-2.3164,-2.2422,-2.1683,-2.1016,0.0,0.0,0.0,0.0,0.0,0.0,0.0,0.0,0.0,0.0,0.0,0.0,0.0,0.0,0.0,-2.3894,0.0,-2.5636,-2.5887,0.0,0.0,0.0,-2.7411,-2.7811,-2.8298,-2.8854,-2.9553,0.0,0.0,-3.0935,-3.1471,-3.1627,-3.0887,-3.1372,-3.1838,-3.1883,-3.2667,-3.3249,-3.3227,-3.3525,-3.3816,-3.3726,-3.3515,-3.3281,-3.3046,-3.3178,-3.3153,-3.3365,-3.3281,-3.3241,-3.3365,-3.3369,-3.3112,-3.3156,-3.3024,-3.2525,-3.0821,-3.0515,-3.0624,-3.1061,-3.1455,-3.1848,-2.7416,-2.7325,-2.7123,-2.6353,-2.5234,-2.5124,-2.5069,-2.5069,-2.4977,-2.4941,-2.4941,-2.4831,-2.4794,-2.4794,-2.4794,-2.4794,-2.4794,-2.4794,-2.4794,-2.4794,-2.4794,-2.4794,-2.4794,-2.4794,-2.4794,-2.4794,-2.4794,-2.4812,-2.4896,-2.5282,-2.5383,-2.52,-2.5906,-2.5506,-2.4203,-2.4639,-2.5137,-2.5566,-2.5586,-2.5625,-2.5723,-2.5723,-2.5684,-2.5586,-2.5254,-2.5019,-2.4902,-2.4394,-2.3965,-2.3633,-2.3125,-2.2598,-2.207,-2.1902,0.0,0.0,0.0,0.0,0.0,0.0,0.0,0.0,0.0,-2.17,-2.253,0.0,-2.3568,0.0,-2.5348,-2.604,-2.6363,-2.6583,0.0,0.0,-2.8567,-2.9081,-2.9572,-3.0063,-3.0398,-3.051,-3.1172,-3.1651,-3.1683,-3.2458,-3.2967,-3.2603,-3.2694,-3.2981,-3.3361,-3.3376,-3.3448,-3.3659,-3.3453,-3.3391,-3.352,-3.3391,-3.32,-3.3071,-3.3285,-3.3369,-3.3498,-3.371,-3.3816,-3.3922,-3.3816,-3.371,-3.3498,-3.3369,-3.3153,-3.2586,-3.2394,-3.252,-3.284,-3.2928,-3.306,-2.804,-2.8022,-2.7838,-2.7251,-2.6444,-2.6444,-2.6334,-2.6169,-2.5986,-2.5803,-2.5619,-2.5454,-2.5362,-2.5362,-2.5362,-2.5362,-2.5362,-2.5362,-2.5362,-2.5362,-2.5362,-2.5362,-2.5362,-2.5362,-2.5362,-2.5362,-2.5362,-2.5362,-2.5466,-2.5966,-2.6088,-2.5796,-2.6602,-2.6458,-2.5385,-2.5741,-2.5956,-2.609,-2.6209,-2.6309,-2.6309,-2.6309,-2.6211,-2.6035,-2.5781,-2.5566,-2.5371,-2.4941,-2.4609,-2.4375,-2.3945,-2.3516,-2.3105,-2.2938,-2.2808,0.0,0.0,0.0,0.0,0.0,0.0,0.0,0.0,0.0,0.0,0.0,-2.5376,-2.6122,-2.6802,-2.7436,-2.7833,-2.8184,-2.8668,-2.9338,-2.9813,-3.027,-3.0348,-3.0994,-3.1515,-3.1636,-3.2183,-3.2575,-3.2827,-3.3166,-3.3372,-3.357,-3.3479,-3.3431,-3.352,-3.3675,-3.3829,-3.3829,-3.379,-3.3704,-3.3922,-3.3813,-3.3704,-3.3704,-3.3813,-3.4031,-3.4161,-3.427,-3.4486,-3.4594,-3.4486,-3.4486,-3.4378,-3.4139,-3.3922,-3.3944,-3.3835,-3.366,-3.3372,-3.3438,-3.3592,-2.8517,-2.8443,-2.8077,-2.793,-2.7911,-2.7911,-2.7673,-2.7233,-2.6885,-2.6499,-2.6096,-2.5748,-2.5564,-2.5527,-2.5527,-2.5527,-2.5527,-2.5527,-2.5527,-2.5527,-2.5527,-2.5527,-2.5527,-2.5527,-2.5527,-2.5527,-2.5527,-2.5527,-2.5527,-2.6135,-2.6239,-2.605,-2.6775,-2.7085,-2.6756,-2.7065,-2.7026,-2.6705,-2.691,-2.7012,-2.7012,-2.7012,-2.6836,-2.6504,-2.6465,-2.6289,-2.5898,-2.5469,-2.5215,-2.5156,-2.4746,-2.4297,-2.3887,-2.3867,-2.38,0.0,-2.3672,0.0,0.0,0.0,0.0,0.0,0.0,0.0,0.0,-2.6406,-2.7151,-2.7634,-2.8318,-2.8987,-2.9502,-2.9996,-3.037,-3.071,-3.0971,-3.1113,-3.0975,-3.1705,-3.2316,-3.2622,-3.3033,-3.3479,-3.3883,-3.3523,-3.3528,-3.401,-3.3967,-3.3835,-3.3507,-3.3834,-3.4207,-3.3989,-3.425,-3.4515,-3.4425,-3.4469,-3.4469,-3.4491,-3.4447,-3.4624,-3.4936,-3.4936,-3.5069,-3.529,-3.5135,-3.5046,-3.5312,-3.4847,-3.4602,-3.4803,-3.4558,-3.4207,-3.3682,-3.3726,-3.3989,-2.9159,-2.8865,-2.8792,-2.8755,-2.8755,-2.8755,-2.8333,-2.7655,-2.7581,-2.7325,-2.694,-2.6866,-2.6664,-2.6371,-2.6353,-2.6353,-2.6353,-2.6353,-2.6353,-2.6353,-2.6353,-2.6353,-2.6371,-2.6353,-2.6353,-2.6353,-2.6371,-2.6353,-2.6353,-2.6873,-2.7195,-2.7088,-2.7728,-2.7941,-2.7728,0.0,0.0,0.0,-2.7012,-2.7012,-2.7012,-2.7012,-2.6973,-2.6894,-2.6894,0.0,-2.6758,-2.6367,-2.5977,-2.5625,-2.5195,0.0,0.0,0.0,0.0,0.0,0.0,0.0,0.0,0.0,0.0,0.0,-2.8239,-2.8178,-2.7064,-2.8165,-2.9123,-2.9569,-2.9986,-3.0127,-3.0022,-3.011,-3.0504,-3.1337,-3.1649,-3.2059,-3.2625,-3.3121,-3.3443,-3.3315,-3.3719,-3.3965,-3.4225,-3.4208,-3.4272,-3.4471,-3.4382,-3.436,-3.4272,-3.4316,-3.4493,-3.4759,-3.4847,-3.4758,-3.4534,-3.4556,-3.4622,-3.4534,-3.4758,-3.4891,-3.5046,-3.5246,-3.5335,-3.5468,-3.5312,-3.5224,-3.5113,-3.498,-3.4823,-3.4646,-3.4534,-3.458,-3.4626,-3.467,-3.4736,-2.9764,-2.9562,-2.936,-2.9269,0.0,-2.9067,-2.8755,-2.8352,-2.815,-2.7856,-2.7471,-2.7471,-2.7361,-2.7178,-2.7178,-2.7068,-2.6885,-2.6885,-2.6774,-2.6591,-2.6591,-2.6591,-2.6591,-2.6591,-2.6591,-2.6591,-2.6591,-2.6591,-2.6591,-2.7116,-2.7422,-2.7422,-2.796,-2.8194,-2.8067,-2.8194,-2.8066,-2.7637,-2.7637,-2.7637,-2.7637,-2.7637,-2.7539,-2.7363,-2.7344,0.0,0.0,0.0,0.0,0.0,0.0,0.0,0.0,-2.5703,0.0,-2.5703,-2.58,-2.6091,-2.6648,-2.7256,-2.786,-2.8645,-2.9676,-2.9869,-2.8976,-2.9487,-2.9958,-3.0105,-3.0668,-3.1108,-3.113,-3.1526,-3.2009,-3.2471,-3.2953,-3.3176,-3.3197,-3.3826,-3.4173,-3.3896,-3.4185,-3.4472,-3.4714,-3.4801,-3.4953,-3.5109,-3.5194,-3.5212,-3.519,-3.4818,-3.46,-3.5043,-3.5087,-3.5175,-3.519,-3.5233,-3.5233,-3.5233,-3.5347,-3.5461,-3.5461,-3.5688,-3.5914,-3.5914,-3.5914,-3.5914,-3.5914,-3.5688,-3.5461,-3.5461,-3.5347,-3.5233,-3.5461,-3.5285,-3.5087,-3.0259,-3.0043,-2.9837,-2.9672,-2.9654,-2.925,-2.9048,-2.8957,0.0,0.0,0.0,-2.7875,-2.7838,-2.7765,-2.7765,-2.7581,-2.7288,-2.7288,-2.7105,-2.6793,-2.6793,-2.6793,-2.6793,-2.6793,-2.6793,-2.6793,-2.6793,-2.6903,-2.6903,-2.745,-2.7649,-2.7758,-2.83,-2.8516,-2.8516,-2.8516,-2.8516,-2.8516,-2.8437,-2.8398,-2.8398,-2.8398,-2.8203,-2.7773,-2.7773,-2.7617,-2.7266,-2.7168,-2.7129,-2.7129,-2.7051,-2.7012,-2.7012,-2.7012,-2.7012,-2.7012,-2.7012,-2.7235,-2.7823,-2.8512,-2.9241,-2.9992,-3.086,-3.114,-3.0789,-3.0636,-3.0624,-3.0712,-3.1433,-3.1973,-3.2222,-3.2989,-3.3413,-3.3501,-3.4034,-3.3972,-3.3548,-3.4095,-3.4601,-3.4493,-3.4626,-3.4911,-3.5469,-3.5442,-3.5457,-3.5751,-3.5786,-3.5954,-3.5867,-3.5299,-3.4971,-3.5277,-3.5343,-3.5496,-3.5823,-3.5911,-3.5954,-3.5889,-3.5911,-3.5954,-3.6092,-3.6187,-3.6302,-3.6236,-3.6302,-3.6374,-3.6511,-3.6236,-3.6092,-3.6302,-3.6187,-3.5954,-3.5932,-3.5714,-3.5474,-3.0372,-2.9795,-3.0007,-2.9989,-2.9686,-2.9532,-2.9287,-2.8975,-2.892,-2.8682,-2.8315,-2.8297,-2.8095,-2.7765,-2.7765,-2.7746,-2.7673,-2.7673,-2.7655,-2.76,-2.76,-2.76,-2.76,-2.76,-2.76,-2.76,-2.7826,-2.7957,-2.8052,-2.8614,-2.8837,-2.8949,-2.9283,-2.9375,-2.9394,-2.9394,-2.9394,-2.9394,-2.9023,-2.8828,-2.8828,-2.8828,-2.8633,-2.8223,-2.8203,-2.8184,-2.8105,-2.7773,-2.7578,-2.7578,-2.7226,-2.7012,-2.7012,-2.7051,-2.7012,-2.7012,-2.7012,-2.7373,-2.8244,-2.9229,-3.0621,-3.2358,-3.2721,-3.2372,-3.152,-3.1826,-3.2241,-3.2612,-3.2743,-3.2853,-3.2981,-3.3112,-3.3397,-3.3748,-3.3813,-3.3967,-3.425,-3.4714,-3.5157,-3.54,-3.5533,-3.5641,-3.6064,-3.6011,-3.5845,-3.5983,-3.6136,-3.602,-3.6042,-3.5867,-3.578,-3.5845,-3.5867,-3.5889,-3.6042,-3.5976,-3.6042,-3.5954,-3.602,-3.6085,-3.6085,-3.6202,-3.6202,-3.6114,-3.618,-3.6158,-3.6252,-3.607,-3.6158,-3.6202,-3.6202,-3.6063,-3.6085,-3.6238,-3.6326,-3.0628,-3.0302,-3.023,-3.0283,-3.0228,-3.0075,-2.9672,-2.9305,-2.9305,-2.9067,-2.8737,-2.8718,-2.8608,-2.8443,-2.8425,-2.8315,-2.8113,-2.8113,-2.7985,-2.7765,-2.7765,-2.7765,-2.7765,-2.7765,-2.7879,-2.7992,-2.8106,-2.8333,-2.8446,-2.8897,-2.9141,-2.9122,-2.9458,-2.957,-2.957,-2.957,-2.9687,-2.9883,-2.9492,-2.9277,-2.9277,-2.9277,-2.918,-2.8984,-2.8984,-2.8984,-2.8984,-2.8809,-2.8691,-2.8691,-2.8496,-2.8398,-2.8398,-2.8398,-2.8398,-2.8398,-2.8398,-2.8584,-2.8996,-3.0038,-3.1401,-3.292,-3.3311,-3.3289,-3.2853,-3.2765,-3.2853,-3.3049,-3.3289,-3.3572,-3.368,-3.3922,-3.4274,-3.4736,-3.4913,-3.5111,-3.5325,-3.5527,-3.5729,-3.5813,-3.5857,-3.5945,-3.6165,-3.6312,-3.6369,-3.6369,-3.6544,-3.6719,-3.6719,-3.6719,-3.6631,-3.6413,-3.6369,-3.6479,-3.6675,-3.6741,-3.6741,-3.6741,-3.6741,-3.6719,-3.6719,-3.6719,-3.6719,-3.6741,-3.6719,-3.6741,-3.6719,-3.6741,-3.6741,-3.6741,-3.6741,-3.6741,-3.6762,-3.6937,-3.6959,-3.0732,-3.0584,-3.0555,-3.0629,-3.0772,-3.0336,-2.997,-2.9727,-2.9587,-2.9544,-2.9269,-2.9085,-2.8975,-2.8975,-2.8975,-2.881,-2.8553,-2.8535,-2.8352,-2.8058,-2.804,-2.804,-2.804,-2.8155,-2.827,-2.8499,-2.8613,-2.8842,-2.907,-2.9411,-2.9524,-2.9543,-2.975,-2.9863,-2.9863,-2.9863,-3.0039,-3.0312,-3.0039,-2.9824,-2.9726,-2.9707,-2.9668,-2.957,-2.957,-2.957,-2.957,-2.957,-2.957,-2.957,-2.957,-2.957,-2.957,-2.957,-2.957,-2.957,-2.957,-2.9721,-3.0155,-3.1236,-3.2332,-3.3443,-3.3901,-3.4274,-3.445,-3.4054,-3.3617,-3.3486,-3.3857,-3.423,-3.4406,-3.4913,-3.5354,-3.5685,-3.5957,-3.5953,-3.6005,-3.6187,-3.6252,-3.6202,-3.6129,-3.6151,-3.6304,-3.661,-3.6828,-3.6894,-3.7156,-3.7352,-3.7374,-3.7374,-3.7199,-3.6981,-3.685,-3.6959,-3.7309,-3.733,-3.733,-3.7374,-3.733,-3.7287,-3.7287,-3.733,-3.7352,-3.7309,-3.733,-3.7287,-3.7352,-3.733,-3.7309,-3.7265,-3.7265,-3.7309,-3.7287,-3.7309,-3.7352,-3.023,-3.0083,-3.0567,-3.0865,-3.0809,-3.0393,-3.0265,-3.0167,-2.9883,-2.9865,-2.9984,-2.9305,-2.9012,-2.8975,-2.9012,-2.8975,-2.892,-2.892,-2.8883,-2.8847,-2.8865,-2.8865,-2.8947,-2.9183,-2.9338,-2.9418,-2.9868,-3.0083,-3.0199,-3.049,-3.0762,-3.0781,-3.0762,-3.0742,-3.0762,-3.0762,-3.0781,-3.082,-3.0781,-3.0566,-3.0176,-3.0137,-2.9961,-2.959,-2.959,-2.957,-2.9629,-2.957,-2.959,-2.957,-2.9609,-2.959,-2.9609,-2.959,-2.959,-2.9629,-2.9609,-3.0306,-3.1717,-3.2805,-3.3883,-3.4836,-3.5015,-3.5461,-3.6293,-3.5994,-3.5299,-3.4687,-3.4797,-3.5037,-3.5102,-3.561,-3.5895,-3.5983,-3.6005,-3.6049,-3.6136,-3.607,-3.6129,-3.6588,-3.6631,-3.6784,-3.7068,-3.7199,-3.7265,-3.7243,-3.7309,-3.7374,-3.7374,-3.7374,-3.7374,-3.7309,-3.7309,-3.7309,-3.7374,-3.7374,-3.7374,-3.7374,-3.7374,-3.7374,-3.7374,-3.7374,-3.7374,-3.7374,-3.7374,-3.7374,-3.7374,-3.7374,-3.7374,-3.7374,-3.7374,-3.7374,-3.7374,-3.7374,-3.7374,-3.023,-3.023,-3.049,-3.066,-3.0773,-3.0773,-3.0665,-3.0571,-3.0409,-3.0299,-3.0185,-2.9855,-2.9709,-2.969,-2.9452,-2.9324,-2.9324,-2.9085,-2.8975,-2.8975,-2.8975,-2.9094,-2.9331,-2.9431,-2.9686,-3.0039,-3.0274,-3.0509,-3.0645,-3.0898,-3.0898,-3.0918,-3.1133,-3.1269,-3.1269,-3.1523,-3.1641,-3.1641,-3.166,-3.1562,-3.1328,-3.0859,-3.0527,-3.0371,-3.0351,-3.0351,-3.0351,-3.0351,-3.0351,-3.0371,-3.0586,-3.0723,-3.0723,-3.0957,-3.1113,-3.1094,-3.1445,-3.2322,-3.3665,-3.4222,-3.4761,-3.5648,-3.5648,-3.5873,-3.628,-3.6187,-3.578,-3.5496,-3.5561,-3.5648,-3.567,-3.5845,-3.6063,-3.6326,-3.6391,-3.65,-3.6762,-3.6784,-3.6894,-3.7068,-3.709,-3.7156,-3.733,-3.7374,-3.7374,-3.7374,-3.7374,-3.7374,-3.7374,-3.7374,-3.7374,-3.7374,-3.7374,-3.7374,-3.7374,-3.7374,-3.7374,-3.7374,-3.7374,-3.7374,-3.7374,-3.7374,-3.7374,-3.7374,-3.7374,-3.7374,-3.7374,-3.7374,-3.7374,-3.7374,-3.7374,-3.7374,-3.7374,-3.7374,-3.7374,-3.023,-3.023,-3.023,-3.049,-3.075,-3.075,-3.0846,-3.0847,-3.0829,-3.0664,-3.0534,-3.0516,-3.0516,-3.0442,-2.9984,-2.9745,-2.9709,-2.9434,-2.9324,-2.9305,-2.9425,-2.9545,-2.9785,-3.0024,-3.0382,-3.0738,-3.0876,-3.0994,-3.123,-3.125,-3.123,-3.1289,-3.1543,-3.1699,-3.1719,-3.2031,-3.2168,-3.2168,-3.2168,-3.2168,-3.207,-3.1562,-3.123,-3.125,-3.125,-3.123,-3.125,-3.125,-3.125,-3.125,-3.1543,-3.1699,-3.1719,-3.1992,-3.2289,-3.2512,-3.2995,-3.3813,-3.488,-3.5136,-3.5531,-3.6151,-3.6173,-3.6355,-3.656,-3.6465,-3.6465,-3.6582,-3.6465,-3.6347,-3.6173,-3.6282,-3.6522,-3.6828,-3.6872,-3.7046,-3.7309,-3.7374,-3.733,-3.7374,-3.733,-3.7374,-3.7374,-3.7374,-3.7374,-3.7374,-3.7374,-3.7374,-3.7374,-3.7374,-3.7374,-3.7374,-3.7374,-3.7374,-3.7374,-3.7374,-3.7374,-3.7374,-3.7374,-3.7374,-3.7374,-3.7374,-3.7374,-3.7374,-3.7374,-3.7374,-3.7374,-3.7374,-3.7374,-3.7374,-3.7374,-3.7374,-3.7374,-3.7374,-3.7374,-2.9805,-2.9805,-2.9805,-3.0083,-3.0378,-3.0508,-3.062,-3.0936,-3.0954,-3.1065,-3.1267,-3.1286,-3.1304,-3.1231,-3.0516,-3.0167,-3.0167,-3.0112,-3.0075,-3.0199,-3.0445,-3.0605,-3.0624,-3.1256,-3.1604,-3.1629,-3.1852,-3.2012,-3.2051,-3.207,-3.2109,-3.209,-3.2109,-3.2129,-3.2148,-3.2207,-3.2187,-3.2266,-3.2266,-3.2207,-3.2207,-3.2148,-3.2109,-3.2109,-3.209,-3.2051,-3.207,-3.209,-3.209,-3.2109,-3.2109,-3.2148,-3.2148,-3.2187,-3.2591,-3.3035,-3.3735,-3.4331,-3.5061,-3.5691,-3.6216,-3.6566,-3.6653,-3.7066,-3.7732,-3.7418,-3.7418,-3.7985,-3.744,-3.7068,-3.6762,-3.6937,-3.7199,-3.7265,-3.7309,-3.733,-3.7352,-3.7374,-3.7374,-3.7374,-3.7374,-3.7374,-3.7374,-3.7374,-3.7374,-3.7374,-3.7374,-3.7374,-3.7374,-3.7374,-3.7374,-3.7374,-3.7374,-3.7374,-3.7374,-3.7374,-3.7374,-3.7374,-3.7374,-3.7374,-3.7374,-3.7374,-3.7374,-3.7374,-3.7374,-3.7374,-3.7374,-3.7374,-3.7374,-3.7374,-3.7374,-3.7374,-3.7374,-3.7374,-3.7374,-2.9805,-2.9805,-3.01,-3.023,-3.0378,-3.062,-3.0879,-3.1249,-3.1249,-3.1267,-3.1377,-3.1377,-3.1377,-3.1359,-3.1084,-3.0809,-3.0571,-3.0562,-3.0575,-3.0556,-3.0926,-3.1172,-3.1313,-3.1558,-3.1803,-3.2046,-3.2168,-3.2168,-3.2168,-3.2168,-3.2168,-3.2226,-3.2441,-3.2578,-3.2617,-3.2851,-3.2969,-3.2969,-3.2969,-3.2969,-3.2949,-3.2969,-3.2969,-3.293,-3.2441,-3.2168,-3.2168,-3.2168,-3.2168,-3.2168,-3.2422,-3.2578,-3.2598,-3.3184,-3.396,-3.4554,-3.5185,-3.5912,-3.6491,-3.6752,-3.6937,-3.709,-3.7134,-3.7298,-3.7572,-3.7495,-3.7495,-3.7616,-3.7616,-3.7265,-3.7221,-3.7287,-3.7374,-3.7374,-3.7374,-3.7374,-3.7374,-3.7374,-3.7374,-3.7374,-3.7374,-3.7374,-3.7374,-3.7374,-3.7374,-3.7374,-3.7374,-3.7374,-3.7374,-3.7374,-3.7374,-3.7374,-3.7374,-3.7374,-3.7374,-3.7374,-3.7374,-3.7374,-3.7374,-3.7374,-3.7374,-3.7374,-3.7374,-3.7374,-3.7374,-3.7374,-3.7374,-3.7374,-3.7374,-3.7374,-3.7374,-3.7374,-3.7374,-3.7374,-3.7374,-2.9952,-2.9822,-3.023,-3.0361,-3.023,-3.062,-3.075,-3.0991,-3.112,-3.1249,-3.1249,-3.1377,-3.1506,-3.1525,-3.1506,-3.1505,-3.1355,-3.1202,-3.1196,-3.1321,-3.1569,-3.1818,-3.2084,-3.2208,-3.2332,-3.2578,-3.2578,-3.2578,-3.2578,-3.2578,-3.2578,-3.2617,-3.2871,-3.3008,-3.3047,-3.3281,-3.3418,-3.3418,-3.3418,-3.3418,-3.3418,-3.3418,-3.3418,-3.334,-3.2871,-3.2578,-3.2578,-3.2578,-3.2578,-3.2617,-3.3099,-3.3361,-3.3649,-3.4138,-3.4797,-3.5665,-3.6156,-3.6667,-3.7253,-3.7374,-3.7495,-3.7616,-3.7495,-3.7517,-3.7616,-3.7495,-3.7374,-3.7374,-3.7374,-3.7495,-3.7616,-3.7736,-3.7616,-3.7495,-3.7374,-3.7374,-3.7374,-3.7374,-3.7374,-3.7374,-3.7374,-3.7374,-3.7374,-3.7374,-3.7374,-3.7374,-3.7374,-3.7374,-3.7374,-3.7374,-3.7374,-3.7374,-3.7374,-3.7374,-3.7374,-3.7374,-3.7374,-3.7374,-3.7374,-3.7374,-3.7374,-3.7374,-3.7374,-3.7374,-3.7374,-3.7374,-3.7374,-3.7374,-3.7374,-3.7374,-3.7374,-3.7374,-3.7374,-3.7374,-3.7461,-3.0118,-2.9857,-3.0248,-3.0118,-2.9952,-3.0361,-3.023,-3.0213,-3.0732,-3.1009,-3.1138,-3.1249,-3.1653,-3.1782,-3.191,-3.2019,-3.2237,-3.2053,-3.2035,-3.2289,-3.2689,-3.2815,-3.2815,-3.3029,-3.3155,-3.3281,-3.3379,-3.3359,-3.3301,-3.3281,-3.3301,-3.3379,-3.332,-3.334,-3.3398,-3.3398,-3.3418,-3.3418,-3.3418,-3.3418,-3.3418,-3.3418,-3.3418,-3.3418,-3.334,-3.332,-3.3359,-3.3359,-3.3301,-3.3466,-3.3862,-3.4652,-3.486,-3.4777,-3.5046,-3.6055,-3.6423,-3.6789,-3.7253,-3.7374,-3.7616,-3.7856,-3.7736,-3.7616,-3.7856,-3.7736,-3.7495,-3.7495,-3.7616,-3.7736,-3.8096,-3.8238,-3.8096,-3.7616,-3.7616,-3.7616,-3.7495,-3.7374,-3.7374,-3.7374,-3.7374,-3.7374,-3.7374,-3.7374,-3.7374,-3.7374,-3.7374,-3.7374,-3.7374,-3.7374,-3.7374,-3.7374,-3.7374,-3.7374,-3.7374,-3.7374,-3.7374,-3.7374,-3.7374,-3.7374,-3.7374,-3.7374,-3.7374,-3.7374,-3.7374,-3.7374,-3.7374,-3.7374,-3.7374,-3.7374,-3.7374,-3.7374,-3.7396,-3.744,-3.768,-3.0333,-3.0223,-3.0355,-3.0197,-2.997,-3.049,-3.062,-3.062,-3.0991,-3.1396,-3.1525,-3.1653,-3.191,-3.2166,-3.2294,-3.2441,-3.2676,-3.2676,-3.2676,-3.2823,-3.3038,-3.3165,-3.3292,-3.3292,-3.3418,-3.3418,-3.3418,-3.3418,-3.3418,-3.3418,-3.3418,-3.3418,-3.3418,-3.3418,-3.3418,-3.3418,-3.3418,-3.3418,-3.3418,-3.3418,-3.3418,-3.3418,-3.3418,-3.3418,-3.3418,-3.3418,-3.3418,-3.3418,-3.367,-3.4047,-3.3796,-3.4047,-3.4673,-3.5418,-3.5911,-3.6423,-3.6911,-3.7132,-3.7374,-3.7396,-3.7539,-3.7637,-3.7517,-3.7495,-3.7736,-3.8021,-3.8021,-3.8141,-3.8335,-3.8693,-3.8335,-3.8358,-3.8522,-3.8716,-3.8693,-3.8335,-3.7976,-3.7616,-3.7374,-3.7374,-3.7374,-3.7374,-3.7374,-3.7374,-3.7374,-3.7374,-3.7374,-3.7374,-3.7374,-3.7374,-3.7374,-3.7374,-3.7374,-3.7374,-3.7374,-3.7374,-3.7374,-3.7374,-3.7374,-3.7374,-3.7374,-3.7374,-3.7374,-3.7374,-3.7374,-3.7374,-3.7374,-3.7374,-3.7374,-3.7374,-3.7374,-3.7396,-3.7418,-3.7614,-3.7876,-3.0715,-3.0641,-3.0758,-3.0618,-3.0258,-3.0936,-3.105,-3.105,-3.1574,-3.1967,-3.2115,-3.2506,-3.2747,-3.3005,-3.3005,-3.3264,-3.3502,-3.3521,-3.3502,-3.3572,-3.3389,-3.3418,-3.3418,-3.3418,-3.3418,-3.3418,-3.3418,-3.3418,-3.3418,-3.3418,-3.3418,-3.3418,-3.3418,-3.3418,-3.3418,-3.3418,-3.3418,-3.3418,-3.3418,-3.3496,-3.3633,-3.3672,-3.373,-3.3867,-3.3906,-3.4034,-3.429,-3.429,-3.4259,-3.4398,-3.4312,-3.4851,-3.5894,-3.6685,-3.7057,-3.7305,-3.7675,-3.7942,-3.792,-3.7964,-3.8165,-3.8509,-3.8409,-3.8653,-3.8873,-3.9236,-3.9138,-3.9017,-3.9281,-3.9499,-3.9281,-3.9258,-3.9619,-4.0455,-3.9254,-3.85,-3.7976,-3.7856,-3.7616,-3.7495,-3.7374,-3.7374,-3.7374,-3.7374,-3.7374,-3.7374,-3.7374,-3.7374,-3.7374,-3.7374,-3.7396,-3.7396,-3.7374,-3.7374,-3.7374,-3.7374,-3.7374,-3.7374,-3.7374,-3.7374,-3.7374,-3.7374,-3.7374,-3.7374,-3.7374,-3.7374,-3.7374,-3.7374,-3.7374,-3.7374,-3.7396,-3.7505,-3.7614,-3.7833,-3.8139,-3.1331,-3.1042,-3.1296,-3.1261,-3.0937,-3.1325,-3.1425,-3.1325,-3.2132,-3.2629,-3.2781,-3.3407,-3.3841,-3.4143,-3.4046,-3.4309,-3.4668,-3.459,-3.4551,-3.4394,-3.3965,-3.3613,-3.3633,-3.3652,-3.3652,-3.3613,-3.3594,-3.3574,-3.3633,-3.3633,-3.3496,-3.3594,-3.3613,-3.3516,-3.3613,-3.3516,-3.3594,-3.3613,-3.3574,-3.3769,-3.4082,-3.4101,-3.4258,-3.4609,-3.474,-3.4981,-3.5501,-3.5739,-3.5436,-3.481,-3.5684,-3.6918,-3.8183,-3.8164,-3.8078,-3.8581,-3.8816,-3.875,-3.8794,-3.8788,-3.9184,-4.015,-3.9904,-4.0309,-4.0762,-4.0594,-4.0372,-3.9882,-4.015,-4.0341,-4.0709,-4.0563,-4.1051,-4.1754,-3.9756,-3.8265,-3.7747,-3.8154,-3.8001,-3.7714,-3.7483,-3.7483,-3.7593,-3.7593,-3.7571,-3.7571,-3.7614,-3.7636,-3.7636,-3.7702,-3.7549,-3.7571,-3.7724,-3.7767,-3.7898,-3.7898,-3.792,-3.792,-3.7811,-3.7658,-3.7483,-3.7418,-3.7374,-3.7374,-3.744,-3.7418,-3.7374,-3.7374,-3.7374,-3.7374,-3.7483,-3.7658,-3.792,-3.816,-3.8554,-3.1531,-3.1425,-3.1271,-3.1114,-3.1007,-3.1396,-3.1801,-3.2204,-3.2758,-3.3311,-3.3804,-3.3917,-3.4371,-3.4576,-3.4595,-3.4576,-3.4746,-3.4746,-3.4687,-3.4668,-3.4512,-3.4375,-3.4375,-3.4355,-3.4336,-3.4316,-3.4277,-3.4375,-3.4355,-3.4297,-3.4316,-3.4355,-3.4297,-3.4316,-3.4355,-3.4316,-3.4355,-3.4355,-3.4355,-3.4375,-3.4492,-3.4531,-3.457,-3.4668,-3.527,-3.5661,-3.5901,-3.6784,-3.6957,-3.6346,-3.7403,-3.8035,-3.8229,-3.8377,-3.8673,-3.8799,-3.8881,-3.9088,-3.9486,-3.961,-3.9837,-4.0062,-4.0175,-3.9814,-3.9566,-4.0432,-4.0578,-4.0678,-4.1411,-4.1821,-4.1555,-4.1213,-4.0724,-3.9916,-3.9836,-3.9656,-3.912,-3.8817,-3.8569,-3.8444,-3.8401,-3.8379,-3.8357,-3.8357,-3.8357,-3.8379,-3.8357,-3.8357,-3.8248,-3.827,-3.8204,-3.8379,-3.851,-3.8488,-3.8488,-3.8488,-3.851,-3.8554,-3.8401,-3.8117,-3.7811,-3.7483,-3.7418,-3.7374,-3.7636,-3.768,-3.7505,-3.7396,-3.7396,-3.7593,-3.7767,-3.8073,-3.8313,-3.8575,-3.9034,-3.1861,-3.2069,-3.1792,-3.1946,-3.2165,-3.2557,-3.2984,-3.3391,-3.3932,-3.4336,-3.472,-3.4853,-3.5121,-3.5254,-3.5254,-3.5254,-3.5254,-3.5254,-3.5273,-3.5254,-3.5254,-3.5039,-3.4785,-3.4687,-3.4687,-3.4687,-3.4707,-3.4687,-3.4668,-3.4687,-3.4687,-3.4668,-3.4687,-3.4687,-3.4648,-3.4687,-3.4707,-3.4687,-3.4707,-3.4897,-3.5337,-3.5356,-3.5759,-3.6102,-3.6557,-3.682,-3.7363,-3.8272,-3.8573,-3.8295,-3.8763,-3.9082,-3.8894,-3.9194,-3.9449,-3.9449,-3.9427,-3.9704,-4.0063,-4.0315,-4.0442,-4.0693,-4.0944,-4.0921,-4.0693,-4.1194,-4.1816,-4.124,-4.1816,-4.2063,-4.2163,-4.2063,-4.1568,-4.0841,-4.1194,-4.126,-4.0028,-3.9419,-3.9339,-3.9214,-3.8963,-3.8838,-3.8838,-3.8838,-3.8838,-3.8794,-3.8728,-3.875,-3.875,-3.8838,-3.8881,-3.8947,-3.8947,-3.8859,-3.8816,-3.8816,-3.8985,-3.9051,-3.9154,-3.8891,-3.8503,-3.8065,-3.792,-3.7942,-3.7964,-3.7942,-3.7876,-3.7876,-3.8073,-3.8248,-3.8357,-3.851,-3.8794,-3.8991,-3.9471,-3.2526,-3.2806,-3.2806,-3.3242,-3.378,-3.4214,-3.4277,-3.4627,-3.512,-3.5393,-3.5529,-3.586,-3.5898,-3.6035,-3.5859,-3.5976,-3.5976,-3.5879,-3.5937,-3.5918,-3.5859,-3.5586,-3.5039,-3.5,-3.498,-3.4961,-3.4863,-3.4902,-3.498,-3.4922,-3.4883,-3.498,-3.4941,-3.4883,-3.498,-3.4922,-3.4844,-3.4941,-3.5112,-3.5666,-3.6302,-3.6475,-3.6994,-3.7616,-3.7943,-3.8381,-3.9082,-3.9779,-3.9888,-3.9646,-3.9624,-3.9821,-4.017,-4.0236,-4.0236,-4.017,-4.0126,-4.0278,-4.0495,-4.0902,-4.1226,-4.1309,-4.2201,-4.2799,-4.1924,-4.2132,-4.2259,-4.1497,-4.155,-4.2051,-4.2408,-4.338,-4.2934,-4.2006,-4.2454,-4.1834,-4.0615,-3.9971,-3.9993,-3.9846,-3.939,-3.8991,-3.8991,-3.8969,-3.9034,-3.9362,-3.9423,-3.9572,-3.9699,-3.9847,-3.9572,-3.9253,-3.9209,-3.9226,-3.9078,-3.9078,-3.927,-3.9462,-3.9907,-3.9796,-3.9582,-3.9192,-3.8875,-3.8685,-3.8444,-3.8444,-3.8554,-3.8641,-3.8728,-3.875,-3.875,-3.9034,-3.9384,-3.9515,-3.9842,-3.3521,-3.3539,-3.3539,-3.3817,-3.4232,-3.437,-3.4784,-3.5215,-3.5489,-3.5626,-3.5879,-3.6016,-3.6035,-3.6035,-3.6035,-3.6035,-3.6035,-3.6035,-3.6035,-3.6035,-3.6035,-3.5957,-3.5723,-3.5664,-3.5703,-3.5684,-3.5703,-3.5723,-3.5703,-3.5625,-3.5723,-3.5703,-3.5605,-3.5723,-3.5684,-3.5605,-3.5723,-3.5857,-3.6222,-3.6623,-3.6971,-3.7545,-3.7852,-3.8242,-3.866,-3.9341,-3.9888,-4.0149,-4.0214,-4.0148,-4.0126,-4.0192,-4.0257,-4.0279,-4.0301,-4.0323,-4.0323,-4.0561,-4.095,-4.1276,-4.1315,-4.1405,-4.1836,-4.1421,-4.0906,-4.1489,-4.1979,-4.2061,-4.2546,-4.2662,-4.2742,-4.2696,-4.2443,-4.1829,-4.1421,-4.1203,-4.1024,-4.0957,-4.0634,-4.0272,-4.0144,-3.9952,-3.993,-3.9993,-4.0015,-4.0059,-4.0188,-4.0445,-4.0657,-4.0695,-4.0501,-4.003,-4.0052,-4.0113,-4.0113,-4.0091,-4.0218,-4.0345,-4.0643,-4.0792,-4.0576,-4.0167,-3.9737,-3.9264,-3.8794,-3.8881,-3.9122,-3.8991,-3.9012,-3.9056,-3.9165,-3.9427,-3.9689,-3.9908,-4.0039,-3.3937,-3.437,-3.437,-3.4646,-3.5059,-3.5196,-3.5333,-3.5743,-3.5743,-3.5879,-3.6035,-3.6035,-3.6035,-3.6035,-3.6035,-3.6035,-3.6035,-3.6035,-3.6035,-3.6035,-3.6035,-3.6035,-3.6035,-3.6035,-3.6035,-3.6035,-3.6016,-3.6035,-3.6035,-3.6035,-3.5976,-3.6035,-3.6035,-3.5976,-3.6152,-3.6287,-3.6519,-3.6654,-3.7213,-3.7729,-3.815,-3.8395,-3.8925,-3.9057,-3.9473,-4.0018,-4.0279,-4.0279,-4.041,-4.0563,-4.0629,-4.0498,-4.0301,-4.0301,-4.0388,-4.0585,-4.0629,-4.0892,-4.1396,-4.1725,-4.201,-4.1987,-4.2509,-4.2249,-4.1857,-4.2118,-4.2118,-4.2226,-4.2226,-4.2418,-4.2321,-4.266,-4.2207,-4.1595,-4.1572,-4.1678,-4.1701,-4.1315,-4.0928,-4.0669,-4.0732,-4.0732,-4.0777,-4.0906,-4.1142,-4.1114,-4.0879,-4.103,-4.1264,-4.1474,-4.1392,-4.1242,-4.1181,-4.1203,-4.1309,-4.1287,-4.1347,-4.1452,-4.1661,-4.1683,-4.1661,-4.1203,-4.0598,-4.0211,-3.987,-3.9642,-3.9818,-3.9642,-3.9427,-3.9646,-3.9799,-3.9842,-3.993,-4.0212,-4.03,-3.4508,-3.5059,-3.5059,-3.547,-3.5879,-3.6035,-3.5899,-3.6035,-3.6035,-3.6016,-3.6035,-3.6035,-3.6035,-3.6035,-3.6035,-3.6035,-3.6055,-3.6152,-3.6191,-3.6191,-3.6328,-3.6348,-3.6348,-3.6348,-3.6348,-3.6211,-3.6074,-3.6035,-3.6035,-3.6035,-3.6035,-3.6035,-3.6152,-3.6287,-3.6423,-3.6809,-3.7213,-3.7348,-3.7863,-3.8528,-3.8946,-3.921,-3.9647,-4.0192,-4.0475,-4.0497,-4.0651,-4.0651,-4.0716,-4.1066,-4.1109,-4.0891,-4.0629,-4.052,-4.0651,-4.1087,-4.1109,-4.124,-4.1571,-4.2126,-4.2416,-4.2638,-4.3522,-4.3654,-4.2837,-4.277,-4.2592,-4.2371,-4.2327,-4.248,-4.1816,-4.2776,-4.2853,-4.2343,-4.2974,-4.3055,-4.2522,-4.1517,-4.1455,-4.1293,-4.1421,-4.1421,-4.155,-4.1678,-4.1911,-4.2166,-4.1806,-4.1572,-4.1806,-4.2166,-4.2189,-4.1934,-4.1806,-4.1806,-4.1783,-4.2189,-4.2293,-4.242,-4.2546,-4.2673,-4.2673,-4.2511,-4.2074,-4.1474,-4.1242,-4.1008,-4.0751,-4.0489,-4.0405,-4.0517,-4.0366,-4.0234,-4.0278,-4.0388,-4.0561,-3.5743,-3.5879,-3.5879,-3.5879,-3.6035,-3.6035,-3.6055,-3.6035,-3.6074,-3.6035,-3.6035,-3.6035,-3.6035,-3.6055,-3.6035,-3.6035,-3.6191,-3.6406,-3.6562,-3.6621,-3.6816,-3.6973,-3.6934,-3.7053,-3.7132,-3.6875,-3.6642,-3.6269,-3.6113,-3.6035,-3.6308,-3.621,-3.6754,-3.7044,-3.7179,-3.7616,-3.812,-3.8182,-3.8828,-3.9226,-3.9491,-3.9908,-4.03,-4.0869,-4.1131,-4.1306,-4.1371,-4.1415,-4.1503,-4.1568,-4.1568,-4.1524,-4.1481,-4.1459,-4.1503,-4.1546,-4.159,-4.1677,-4.183,-4.1922,-4.1856,-4.1946,-4.246,-4.2438,-4.2169,-4.2147,-4.2526,-4.3017,-4.3526,-4.4071,-4.424,-4.4217,-4.443,-4.4184,-4.3854,-4.3724,-4.3617,-4.3287,-4.2883,-4.266,-4.2349,-4.2212,-4.2408,-4.2512,-4.2546,-4.2546,-4.2443,-4.2061,-4.2061,-4.257,-4.2949,-4.2546,-4.2293,-4.2293,-4.2293,-4.2799,-4.3075,-4.32,-4.3326,-4.3701,-4.3701,-4.3974,-4.3576,-4.2822,-4.2166,-4.1865,-4.1633,-4.1293,-4.1164,-4.1035,-4.0777,-4.0539,-4.0821,-4.1231,-4.1534,-3.6035,-3.6035,-3.6035,-3.6152,-3.6328,-3.6348,-3.6484,-3.6621,-3.6465,-3.6367,-3.6289,-3.6152,-3.6152,-3.6309,-3.6348,-3.6465,-3.6699,-3.6875,-3.6992,-3.707,-3.7207,-3.7305,-3.7465,-3.7727,-3.7847,-3.7888,-3.7826,-3.7488,-3.7233,-3.7252,-3.7311,-3.792,-3.831,-3.831,-3.8582,-3.9146,-3.9353,-3.9488,-4.0024,-4.0447,-4.0447,-4.0867,-4.1175,-4.135,-4.1546,-4.1677,-4.1677,-4.1677,-4.183,-4.2005,-4.207,-4.2201,-4.2354,-4.2398,-4.2333,-4.2114,-4.207,-4.2201,-4.2398,-4.2464,-4.2623,-4.3011,-4.2967,-4.2989,-4.2967,-4.3148,-4.3059,-4.3624,-4.4298,-4.5007,-4.4642,-4.4883,-4.4612,-4.4402,-4.4379,-4.4533,-4.451,-4.4771,-4.4466,-4.4021,-4.3706,-4.3461,-4.3298,-4.3205,-4.3121,-4.3075,-4.3098,-4.2892,-4.2431,-4.2962,-4.3663,-4.3514,-4.3285,-4.3158,-4.3158,-4.3561,-4.3836,-4.404,-4.4141,-4.4415,-4.4491,-4.4439,-4.4194,-4.3576,-4.3177,-4.2985,-4.2166,-4.1678,-4.1678,-4.1701,-4.1338,-4.1231,-4.164,-4.207,-4.2486,-3.6074,-3.6152,-3.6152,-3.6406,-3.6758,-3.6797,-3.6973,-3.7187,-3.6934,-3.6797,-3.6758,-3.6484,-3.6504,-3.6719,-3.6836,-3.6973,-3.7305,-3.7344,-3.7563,-3.7744,-3.7862,-3.7862,-3.8266,-3.8528,-3.9029,-3.909,-3.9429,-3.9404,-3.8722,-3.8563,-3.8922,-3.9254,-3.9612,-3.9792,-3.9866,-4.0308,-4.0729,-4.1001,-4.1407,-4.1677,-4.1699,-4.1786,-4.183,-4.1874,-4.1918,-4.2049,-4.2114,-4.2114,-4.2267,-4.2485,-4.2617,-4.2748,-4.3097,-4.3184,-4.2988,-4.266,-4.2573,-4.2813,-4.301,-4.3119,-4.3288,-4.352,-4.393,-4.3952,-4.3907,-4.3796,-4.4161,-4.4503,-4.5142,-4.5388,-4.5309,-4.5262,-4.5076,-4.4999,-4.5277,-4.5468,-4.5693,-4.5871,-4.6073,-4.5691,-4.5029,-4.4664,-4.4546,-4.4428,-4.4286,-4.3984,-4.4031,-4.3984,-4.3624,-4.3937,-4.4341,-4.4499,-4.4349,-4.4097,-4.412,-4.4468,-4.4768,-4.4816,-4.4792,-4.4918,-4.4924,-4.4852,-4.4505,-4.4553,-4.4349,-4.4064,-4.2997,-4.2234,-4.2431,-4.2477,-4.1942,-4.223,-4.289,-4.3286,-4.3682,-3.623,-3.6601,-3.6582,-3.6836,-3.7187,-3.7226,-3.7246,-3.7324,-3.7266,-3.7226,-3.7226,-3.7148,-3.7109,-3.7367,-3.7387,-3.7285,-3.7563,-3.798,-3.8422,-3.8888,-3.9129,-3.9555,-4.0228,-4.0574,-4.043,-4.051,-4.0734,-4.022,-3.9847,-3.9661,-3.9599,-3.9896,-4.0488,-4.0498,-4.0805,-4.1374,-4.1542,-4.1586,-4.1743,-4.1743,-4.183,-4.2158,-4.2289,-4.2442,-4.266,-4.2857,-4.2813,-4.2813,-4.2922,-4.2988,-4.3053,-4.3119,-4.3184,-4.3184,-4.3163,-4.3097,-4.3097,-4.3119,-4.3184,-4.325,-4.3272,-4.3551,-4.3551,-4.3346,-4.3874,-4.4407,-4.4799,-4.5187,-4.5913,-4.6271,-4.6288,-4.6689,-4.6931,-4.6836,-4.6669,-4.6849,-4.7029,-4.661,-4.692,-4.6896,-4.6227,-4.5916,-4.5725,-4.5605,-4.551,-4.51,-4.4924,-4.4877,-4.4806,-4.492,-4.5024,-4.5079,-4.5055,-4.4904,-4.4881,-4.5206,-4.5278,-4.5501,-4.5501,-4.5501,-4.5405,-4.5333,-4.5549,-4.5446,-4.5294,-4.5055,-4.4191,-4.3726,-4.3529,-4.3391,-4.317,-4.3775,-4.4383,-4.4736,-4.4889,-3.6504,-3.668,-3.6934,-3.7266,-3.7637,-3.7656,-3.7793,-3.793,-3.7754,-3.7656,-3.7598,-3.7383,-3.7704,-3.8224,-3.8584,-3.8886,-3.9353,-3.9475,-3.9718,-3.9983,-4.033,-4.0576,-4.0841,-4.1289,-4.1594,-4.1594,-4.1997,-4.215,-4.1604,-4.1241,-4.1122,-4.1519,-4.1817,-4.2159,-4.1869,-4.237,-4.2551,-4.2573,-4.2551,-4.2529,-4.2573,-4.2726,-4.2835,-4.2835,-4.3075,-4.3163,-4.3184,-4.3184,-4.3184,-4.3184,-4.3184,-4.3184,-4.3184,-4.3206,-4.325,-4.3578,-4.3556,-4.3447,-4.325,-4.3447,-4.3534,-4.3643,-4.3916,-4.4299,-4.4679,-4.5594,-4.6127,-4.6331,-4.6988,-4.7298,-4.7084,-4.7364,-4.7364,-4.7521,-4.7666,-4.7569,-4.7569,-4.7497,-4.7377,-4.7353,-4.7305,-4.692,-4.6535,-4.6141,-4.5997,-4.5797,-4.562,-4.5572,-4.5477,-4.551,-4.5638,-4.5662,-4.5662,-4.5381,-4.5486,-4.5742,-4.5638,-4.5814,-4.5814,-4.5814,-4.5838,-4.5886,-4.6078,-4.603,-4.571,-4.5422,-4.511,-4.4833,-4.4418,-4.4512,-4.4525,-4.4937,-4.5456,-4.58,-4.6025,-3.7014,-3.7012,-3.7324,-3.7695,-3.8086,-3.8086,-3.8262,-3.8496,-3.8367,-3.823,-3.8295,-3.8363,-3.8828,-3.9353,-3.98,-4.0187,-4.0841,-4.0882,-4.1025,-4.1167,-4.1147,-4.131,-4.1735,-4.2159,-4.23,-4.23,-4.2743,-4.2979,-4.284,-4.2678,-4.2495,-4.3163,-4.2892,-4.3097,-4.3141,-4.3097,-4.3053,-4.3053,-4.3053,-4.3075,-4.3097,-4.3119,-4.3141,-4.3163,-4.3184,-4.3184,-4.3184,-4.3184,-4.3184,-4.3184,-4.3359,-4.3425,-4.3403,-4.3599,-4.3774,-4.4014,-4.4036,-4.3927,-4.3818,-4.3883,-4.4014,-4.4288,-4.4585,-4.5168,-4.5924,-4.726,-4.8001,-4.7667,-4.8076,-4.8132,-4.8026,-4.7954,-4.8026,-4.805,-4.8026,-4.7858,-4.7738,-4.7786,-4.7666,-4.7449,-4.7425,-4.7449,-4.7064,-4.668,-4.6487,-4.6391,-4.6319,-4.6295,-4.6271,-4.6247,-4.6343,-4.6463,-4.6357,-4.6357,-4.6333,-4.6391,-4.6319,-4.6223,-4.6223,-4.6295,-4.6415,-4.6463,-4.6583,-4.6439,-4.6247,-4.6319,-4.6319,-4.5739,-4.5314,-4.5514,-4.5609,-4.5858,-4.6179,-4.6549,-4.692,-3.8045,-3.7832,-3.7871,-3.8125,-3.8496,-3.8535,-3.8535,-3.872,-3.8971,-3.9221,-3.9614,-4.0167,-4.0411,-4.0657,-4.082,-4.0862,-4.1025,-4.0882,-4.1452,-4.1735,-4.1997,-4.23,-4.2603,-4.2883,-4.3045,-4.3045,-4.3184,-4.3184,-4.3184,-4.3045,-4.3023,-4.3163,-4.3184,-4.3184,-4.3184,-4.3184,-4.3184,-4.3184,-4.3184,-4.3184,-4.3184,-4.3184,-4.3184,-4.3184,-4.3184,-4.3184,-4.3184,-4.3228,-4.3272,-4.3294,-4.3621,-4.3818,-4.3862,-4.4102,-4.432,-4.4495,-4.4539,-4.4495,-4.4539,-4.4495,-4.4517,-4.4848,-4.5224,-4.6096,-4.6854,-4.7516,-4.8211,-4.8786,-4.9036,-4.8964,-4.8892,-4.894,-4.87,-4.8652,-4.8531,-4.8435,-4.8315,-4.8243,-4.8074,-4.7642,-4.7617,-4.7834,-4.7882,-4.7545,-4.7088,-4.6968,-4.692,-4.6896,-4.6992,-4.7016,-4.7136,-4.7233,-4.7257,-4.7281,-4.7305,-4.7185,-4.6944,-4.6896,-4.692,-4.704,-4.7209,-4.7209,-4.7016,-4.7064,-4.6968,-4.7185,-4.7233,-4.6514,-4.6251,-4.6477,-4.6704,-4.6645,-4.6765,-4.7112,-4.7305,-3.9636,-3.9739,-3.9759,-3.9573,-3.9301,-3.9011,-3.9156,-3.959,-3.9878,-4.0166,-4.0433,-4.074,-4.1147,-4.1452,-4.1594,-4.1877,-4.2321,-4.2321,-4.2462,-4.2603,-4.2743,-4.2883,-4.3184,-4.3184,-4.3184,-4.3206,-4.3206,-4.3184,-4.3184,-4.3272,-4.3206,-4.3184,-4.3272,-4.3184,-4.3184,-4.3184,-4.3184,-4.3184,-4.3184,-4.3184,-4.3184,-4.3184,-4.3184,-4.3184,-4.3184,-4.3184,-4.3228,-4.3468,-4.3556,-4.3709,-4.408,-4.4233,-4.432,-4.4561,-4.4779,-4.4997,-4.5041,-4.515,-4.5281,-4.5216,-4.515,-4.5581,-4.6211,-4.6893,-4.7666,-4.8448,-4.8967,-4.9432,-4.9565,-4.9517,-4.9133,-4.906,-4.9012,-4.906,-4.9084,-4.9012,-4.8892,-4.8659,-4.8628,-4.8267,-4.8387,-4.8579,-4.8579,-4.8507,-4.8002,-4.7593,-4.7545,-4.7497,-4.7497,-4.7497,-4.7497,-4.7497,-4.7497,-4.7497,-4.7497,-4.7497,-4.7497,-4.7497,-4.7497,-4.7497,-4.7497,-4.7473,-4.7353,-4.7473,-4.7497,-4.7425,-4.7305,-4.7112,-4.704,-4.704,-4.7136,-4.7257,-4.7401,-4.7545,-4.7714,-4.0751,-4.0862,-4.1167,-4.0719,-4.0002,-3.9734,-4.0022,-4.0453,-4.0596,-4.0882,-4.1452,-4.1594,-4.1877,-4.23,-4.23,-4.2603,-4.3023,-4.3045,-4.3184,-4.3184,-4.3184,-4.3184,-4.3228,-4.3337,-4.3447,-4.3403,-4.3578,-4.3665,-4.3709,-4.3621,-4.3687,-4.3687,-4.3578,-4.3534,-4.3184,-4.3184,-4.3184,-4.3184,-4.3184,-4.3184,-4.3184,-4.3184,-4.3316,-4.3359,-4.3425,-4.3578,-4.3709,-4.3949,-4.4058,-4.4233,-4.4495,-4.4757,-4.4845,-4.4954,-4.5172,-4.5537,-4.5713,-4.5844,-4.6102,-4.5932,-4.5675,-4.6124,-4.7096,-4.7726,-4.8377,-4.9245,-4.9936,-5.005,-5.0095,-4.995,-4.9517,-4.9686,-4.9456,-4.9551,-4.983,-4.9734,-4.9193,-4.9025,-4.8995,-4.894,-4.9036,-4.8964,-4.894,-4.8844,-4.8507,-4.7978,-4.7617,-4.7545,-4.7497,-4.7497,-4.7497,-4.7497,-4.7497,-4.7497,-4.7497,-4.7497,-4.7497,-4.7497,-4.7497,-4.7497,-4.7497,-4.7497,-4.7497,-4.7497,-4.7497,-4.7497,-4.7425,-4.7305,-4.7353,-4.7425,-4.7497,-4.7545,-4.7919,-4.8064,-4.8147,-4.1193,-4.0983,-4.1735,-4.1594,-4.1025,-4.0882,-4.0862,-4.1025,-4.131,-4.1735,-4.2441,-4.2743,-4.3023,-4.3045,-4.3023,-4.3045,-4.3184,-4.3184,-4.3184,-4.3184,-4.3184,-4.3184,-4.3359,-4.3556,-4.3774,-4.3949,-4.4124,-4.4298,-4.443,-4.432,-4.4364,-4.4386,-4.4255,-4.4036,-4.3294,-4.3206,-4.3206,-4.3206,-4.3294,-4.3337,-4.3359,-4.3403,-4.3599,-4.3774,-4.3862,-4.4014,-4.4233,-4.4473,-4.4561,-4.4648,-4.5187,-4.5406,-4.5472,-4.5756,-4.6102,-4.6485,-4.6507,-4.6699,-4.7038,-4.6426,-4.6255,-4.6721,-4.7626,-4.8232,-4.8667,-4.9532,-5.0388,-5.0338,-5.041,-5.0458,-5.0576,-5.041,-4.989,-4.9984,-5.0242,-5.0287,-4.9719,-4.9575,-4.9571,-4.9638,-4.9349,-4.9133,-4.9133,-4.906,-4.8844,-4.8411,-4.7834,-4.7642,-4.7714,-4.7642,-4.7714,-4.7642,-4.7642,-4.7497,-4.7497,-4.7497,-4.7497,-4.7497,-4.7497,-4.7497,-4.7497,-4.7497,-4.7497,-4.7497,-4.7642,-4.7762,-4.7666,-4.7545,-4.7786,-4.8136,-4.7786,-4.7834,-4.8342,-4.8608,-4.8715,-4.2988,-4.2462,-4.2743,-4.2603,-4.2321,-4.1594,-4.1452,-4.1997,-4.2138,-4.2441,-4.2883,-4.3184,-4.3184,-4.3184,-4.3184,-4.3184,-4.3184,-4.3184,-4.3184,-4.3184,-4.3206,-4.3403,-4.3599,-4.384,-4.408,-4.432,-4.4561,-4.467,-4.4539,-4.4692,-4.4626,-4.4582,-4.4713,-4.443,-4.4189,-4.4124,-4.4124,-4.4124,-4.4146,-4.4124,-4.4102,-4.408,-4.4167,-4.4342,-4.4342,-4.4473,-4.4692,-4.4932,-4.5063,-4.5107,-4.5647,-4.5992,-4.6161,-4.6574,-4.6743,-4.7038,-4.7038,-4.7186,-4.7355,-4.7186,-4.7163,-4.7479,-4.7772,-4.8354,-4.9628,-4.9652,-5.0104,-5.027,-5.0554,-5.0388,-4.9914,-4.9914,-4.9724,-5.0316,-5.06,-5.0576,-5.029,-5.029,-5.0359,-5.0335,-5.0167,-5.0046,-5.0022,-4.971,-4.9421,-4.9277,-4.882,-4.8531,-4.8507,-4.8219,-4.8098,-4.793,-4.7834,-4.7617,-4.7521,-4.7738,-4.7786,-4.7762,-4.7642,-4.7497,-4.7497,-4.7666,-4.7642,-4.7738,-4.7882,-4.8026,-4.8074,-4.8171,-4.8594,-4.885,-4.8643,-4.8459,-4.8811,-4.9028,-4.906,-4.425,-4.358,-4.358,-4.3441,-4.3045,-4.2321,-4.23,-4.2721,-4.2861,-4.3023,-4.3184,-4.3184,-4.3184,-4.3184,-4.3184,-4.3184,-4.3184,-4.3184,-4.3184,-4.3206,-4.3381,-4.3578,-4.384,-4.4211,-4.4604,-4.4823,-4.4997,-4.5107,-4.5172,-4.5107,-4.5129,-4.5172,-4.5063,-4.5129,-4.4997,-4.4823,-4.4517,-4.4473,-4.4451,-4.4495,-4.4495,-4.4539,-4.4626,-4.4779,-4.4866,-4.4932,-4.4982,-4.52,-4.5396,-4.5653,-4.6102,-4.6596,-4.6743,-4.7038,-4.7332,-4.7332,-4.7648,-4.7794,-4.7794,-4.7794,-4.7918,-4.8621,-4.8064,-4.8499,-4.9914,-5.008,-5.0388,-5.0672,-5.053,-5.053,-5.0222,-5.008,-5.008,-5.0696,-5.0696,-5.0672,-5.0364,-5.034,-5.0648,-5.0672,-5.0672,-5.0696,-5.0696,-5.0455,-5.0095,-4.9998,-4.9854,-4.9565,-4.9205,-4.8844,-4.8555,-4.8435,-4.8339,-4.8243,-4.8171,-4.8243,-4.8219,-4.8074,-4.7978,-4.7882,-4.8074,-4.8339,-4.8147,-4.805,-4.8339,-4.8579,-4.87,-4.898,-4.927,-4.9511,-4.9655,-4.9607,-4.9535,-4.9559,-4.9541,-4.4914,-4.4228,-4.4228,-4.3836,-4.3324,-4.3045,-4.3184,-4.3163,-4.3163,-4.3163,-4.3184,-4.3184,-4.3184,-4.3184,-4.3184,-4.3184,-4.3184,-4.3184,-4.325,-4.3359,-4.3599,-4.384,-4.4277,-4.4801,-4.5107,-4.5412,-4.5609,-4.5675,-4.5937,-4.5762,-4.5784,-4.5871,-4.574,-4.574,-4.5544,-4.5238,-4.4888,-4.491,-4.491,-4.4932,-4.4932,-4.4845,-4.5041,-4.5216,-4.5347,-4.5353,-4.5379,-4.5574,-4.5766,-4.5959,-4.6129,-4.6596,-4.6891,-4.7208,-4.7502,-4.7794,-4.8232,-4.8255,-4.84,-4.84,-4.8783,-4.9241,-4.8997,-4.905,-4.9652,-5.0364,-5.0648,-5.1095,-5.1236,-5.1376,-5.1376,-5.1071,-5.0648,-5.0813,-5.0672,-5.053,-5.008,-5.0222,-5.0554,-5.0696,-5.0696,-5.0696,-5.0696,-5.0576,-5.0455,-5.0431,-5.0263,-5.007,-4.971,-4.9349,-4.9109,-4.9084,-4.8988,-4.8964,-4.8916,-4.8748,-4.8676,-4.8531,-4.8676,-4.8676,-4.8868,-4.8892,-4.87,-4.8652,-4.894,-4.9181,-4.9421,-4.9614,-4.9806,-5.0022,-5.0143,-5.0258,-5.0065,-5.0041,-5.0022,-4.5324,-4.4228,-4.4228,-4.3836,-4.3324,-4.3184,-4.3184,-4.3184,-4.3184,-4.3184,-4.3184,-4.3184,-4.3184,-4.3184,-4.3184,-4.3184,-4.3184,-4.3228,-4.3447,-4.3621,-4.384,-4.432,-4.4779,-4.5194,-4.55,-4.574,-4.5915,-4.6002,-4.598,-4.6002,-4.6002,-4.598,-4.6002,-4.6002,-4.5915,-4.5718,-4.5587,-4.55,-4.5456,-4.5456,-4.5478,-4.5478,-4.5631,-4.5696,-4.574,-4.5723,-4.581,-4.6002,-4.6151,-4.6299,-4.6891,-4.7502,-4.7502,-4.7941,-4.8232,-4.8789,-4.8812,-4.8546,-4.9003,-4.8991,-4.9176,-4.9998,-5.0186,-5.0627,-5.0936,-5.1027,-5.1168,-5.1687,-5.1877,-5.2091,-5.195,-5.162,-5.1503,-5.1528,-5.1338,-5.1075,-5.0626,-5.0554,-5.0861,-5.0696,-5.0696,-5.0696,-5.0696,-5.0696,-5.06,-5.0672,-5.0624,-5.0431,-5.0215,-4.983,-4.9662,-4.9638,-4.9517,-4.9469,-4.9253,-4.906,-4.906,-4.9036,-4.9229,-4.9301,-4.9229,-4.9205,-4.9133,-4.9253,-4.9493,-4.9878,-5.0239,-5.0335,-5.0287,-5.0431,-5.0527,-5.0527,-5.0644,-5.0407,-5.0359,-4.6136,-4.5051,-4.4778,-4.4112,-4.3324,-4.3184,-4.3184,-4.3184,-4.3184,-4.3184,-4.3184,-4.3184,-4.3184,-4.3184,-4.3184,-4.3184,-4.3184,-4.3206,-4.3403,-4.3774,-4.408,-4.4604,-4.5107,-4.55,-4.574,-4.5937,-4.6002,-4.6002,-4.6002,-4.6002,-4.6002,-4.6002,-4.6002,-4.6002,-4.598,-4.5937,-4.5959,-4.5937,-4.5959,-4.6002,-4.6002,-4.6002,-4.6002,-4.6002,-4.6002,-4.6002,-4.5853,-4.6151,-4.6448,-4.6596,-4.7355,-4.7794,-4.7941,-4.8232,-4.8561,-4.9021,-4.8991,-4.9029,-4.9507,-4.984,-5.0103,-5.066,-5.1313,-5.1826,-5.2041,-5.2132,-5.2392,-5.2699,-5.265,-5.2601,-5.2294,-5.2128,-5.246,-5.2625,-5.2171,-5.1834,-5.1455,-5.1192,-5.1027,-5.072,-5.0696,-5.0696,-5.0696,-5.0696,-5.0696,-5.0696,-5.0696,-5.0648,-5.0527,-5.0359,-5.0215,-5.0191,-5.0046,-4.9902,-4.9686,-4.9589,-4.9686,-4.9782,-4.9902,-4.9926,-4.971,-4.9734,-4.9854,-4.9926,-5.0046,-5.0359,-5.0765,-5.0624,-5.0624,-5.0792,-5.096,-5.1008,-5.0936,-5.072,-5.0672,-4.7098,-4.6271,-4.5595,-4.4526,-4.3463,-4.3441,-4.3441,-4.3324,-4.3302,-4.3184,-4.3184,-4.3184,-4.3184,-4.3184,-4.3184,-4.3184,-4.3228,-4.3294,-4.3599,-4.3949,-4.4451,-4.4976,-4.5434,-4.5762,-4.5893,-4.598,-4.6002,-4.6002,-4.6002,-4.6002,-4.6002,-4.6002,-4.6002,-4.6002,-4.6002,-4.6002,-4.6002,-4.6002,-4.6002,-4.6002,-4.6002,-4.6002,-4.6002,-4.6002,-4.6002,-4.5853,-4.5704,-4.5853,-4.6299,-4.6596,-4.7186,-4.7794,-4.82,-4.8684,-4.8914,-4.9291,-4.96,-5.0056,-5.0607,-5.099,-5.1355,-5.1697,-5.2038,-5.3011,-5.3421,-5.3148,-5.3143,-5.357,-5.3686,-5.3686,-5.352,-5.3378,-5.3545,-5.352,-5.3088,-5.2823,-5.2607,-5.2079,-5.1313,-5.1099,-5.0837,-5.0837,-5.0837,-5.0837,-5.0696,-5.0696,-5.0696,-5.0696,-5.0696,-5.0648,-5.0624,-5.06,-5.0431,-5.0287,-5.0335,-5.0287,-5.0455,-5.0551,-5.0527,-5.0479,-5.0239,-5.0383,-5.0789,-5.0809,-5.078,-5.0882,-5.1075,-5.1006,-5.1008,-5.1201,-5.1369,-5.1513,-5.1417,-5.1344,-5.1201,-4.7098,-4.6271,-4.5595,-4.5051,-4.4778,-4.48,-4.4503,-4.3974,-4.3974,-4.3719,-4.3302,-4.3184,-4.3184,-4.3184,-4.3184,-4.3184,-4.3228,-4.3512,-4.3971,-4.4386,-4.4866,-4.5281,-4.5718,-4.5915,-4.6002,-4.6002,-4.6002,-4.6002,-4.6002,-4.6002,-4.6002,-4.6002,-4.6002,-4.6002,-4.6002,-4.6002,-4.6002,-4.6002,-4.6002,-4.6002,-4.6002,-4.6002,-4.6002,-4.6002,-4.6002,-4.6002,-4.6002,-4.6448,-4.6743,-4.7186,-4.7794,-4.8415,-4.8905,-4.9514,-5.0355,-5.1171,-5.0872,-5.1308,-5.1939,-5.2521,-5.2812,-5.3399,-5.3986,-5.4647,-5.4815,-5.3907,-5.373,-5.4327,-5.4637,-5.4662,-5.4662,-5.452,-5.452,-5.4302,-5.4035,-5.3843,-5.3626,-5.2755,-5.1839,-5.1528,-5.1099,-5.1051,-5.1075,-5.1051,-5.0696,-5.0696,-5.0696,-5.072,-5.091,-5.0885,-5.0861,-5.0837,-5.0672,-5.0624,-5.0696,-5.0696,-5.0696,-5.0696,-5.0624,-5.0648,-5.072,-5.1075,-5.1406,-5.1541,-5.1632,-5.181,-5.1913,-5.1583,-5.1585,-5.1873,-5.2283,-5.2622,-5.255,-5.2429,-5.2115,-4.7232,-4.6808,-4.6136,-4.5595,-4.5324,-4.5324,-4.5051,-4.4778,-4.464,-4.4228,-4.358,-4.3324,-4.3184,-4.3184,-4.3184,-4.3206,-4.3272,-4.3643,-4.408,-4.4582,-4.5129,-4.5544,-4.5828,-4.6002,-4.6002,-4.6002,-4.6002,-4.6002,-4.6002,-4.6002,-4.6002,-4.6002,-4.6002,-4.6002,-4.6002,-4.6002,-4.6002,-4.6002,-4.6002,-4.6002,-4.6002,-4.6002,-4.6002,-4.6002,-4.6002,-4.6002,-4.6299,-4.6743,-4.7332,-4.8009,-4.9021,-5.0021,-5.0642,-5.1052,-5.1629,-5.211,-5.2301,-5.2373,-5.335,-5.3863,-5.4083,-5.4647,-5.5187,-5.5751,-5.5751,-5.5081,-5.5032,-5.5491,-5.5491,-5.5516,-5.5491,-5.5516,-5.5516,-5.5321,-5.4827,-5.4577,-5.4067,-5.3409,-5.2878,-5.2519,-5.2278,-5.2278,-5.2421,-5.2421,-5.2087,-5.2087,-5.1965,-5.1556,-5.1532,-5.1317,-5.122,-5.1148,-5.1196,-5.0792,-5.0696,-5.0696,-5.0837,-5.0837,-5.0861,-5.0885,-5.0934,-5.1644,-5.2115,-5.2305,-5.2734,-5.3222,-5.3137,-5.2784,-5.2976,-5.3384,-5.3562,-5.3907,-5.3667,-5.3595,-5.3814,-4.7497,-4.7364,-4.6831,-4.6136,-4.5595,-4.5595,-4.5595,-4.546,-4.546,-4.5051,-4.4366,-4.3858,-4.3441,-4.3184,-4.3184,-4.3228,-4.3425,-4.3883,-4.4277,-4.4757,-4.5238,-4.5653,-4.5893,-4.6002,-4.6002,-4.6002,-4.6002,-4.6002,-4.6002,-4.6002,-4.6002,-4.6002,-4.6002,-4.6002,-4.6002,-4.6002,-4.6002,-4.6002,-4.6002,-4.6151,-4.6151,-4.6002,-4.6002,-4.6002,-4.6151,-4.6151,-4.6426,-4.7105,-4.7963,-4.9067,-5.0554,-5.1512,-5.1993,-5.2331,-5.2815,-5.3252,-5.3397,-5.3614,-5.4178,-5.4844,-5.5066,-5.541,-5.5901,-5.6219,-5.6194,-5.6168,-5.6143,-5.6118,-5.6118,-5.6118,-5.6118,-5.6118,-5.6118,-5.6068,-5.5641,-5.5121,-5.4677,-5.4116,-5.3899,-5.3562,-5.3488,-5.3345,-5.3345,-5.3513,-5.3394,-5.3394,-5.3295,-5.305,-5.2853,-5.2445,-5.2205,-5.2083,-5.1917,-5.158,-5.0958,-5.1051,-5.1216,-5.1192,-5.1382,-5.1124,-5.1386,-5.2576,-5.3387,-5.3437,-5.3778,-5.4451,-5.4653,-5.447,-5.4662,-5.4762,-5.4827,-5.4911,-5.5081,-5.506,-5.5626,-4.7497,-4.7497,-4.7364,-4.7232,-4.7098,-4.7098,-4.6697,-4.6271,-4.6136,-4.5731,-4.5187,-4.4914,-4.4388,-4.3184,-4.3184,-4.3456,-4.3969,-4.431,-4.4713,-4.5216,-4.5565,-4.5849,-4.598,-4.6002,-4.6002,-4.6002,-4.6002,-4.6002,-4.6002,-4.6002,-4.6002,-4.6002,-4.6002,-4.6002,-4.6002,-4.6002,-4.6151,-4.6151,-4.6299,-4.6448,-4.6743,-4.6596,-4.6002,-4.6151,-4.6596,-4.7016,-4.7671,-4.8891,-4.9759,-5.0841,-5.1922,-5.2914,-5.3254,-5.3619,-5.4035,-5.4402,-5.4574,-5.4795,-5.5287,-5.5607,-5.5754,-5.5754,-5.6219,-5.6219,-5.6219,-5.6219,-5.6168,-5.6168,-5.6194,-5.6194,-5.6168,-5.6168,-5.6168,-5.6168,-5.5917,-5.5666,-5.5246,-5.4927,-5.4539,-5.4196,-5.3998,-5.4022,-5.4022,-5.4022,-5.3735,-5.3759,-5.3784,-5.3562,-5.3607,-5.339,-5.3173,-5.3025,-5.2759,-5.201,-5.143,-5.1644,-5.1785,-5.1901,-5.2024,-5.2269,-5.2847,-5.4044,-5.4527,-5.4693,-5.5076,-5.5586,-5.5765,-5.5903,-5.5821,-5.5947,-5.5962,-5.5922,-5.6214,-5.6454,-5.687]}]]